GFSSW_sfc_thetae_000.txt.gz
Theta_e
322 322 323 323 324 325 325 325 325 326 326 327 326 327 326 327 325 315 309 317 320 327 324 315 314 313 314 312 312 311 298 296 299 298 298 301 298 301 299 297 299 303 299 299 303
320 320 321 321 322 323 324 324 324 325 326 326 326 326 326 326 317 313 324 328 328 328 316 311 310 311 307 309 308 303 300 300 301 300 298 301 300 300 297 297 298 299 301 301 301
318 318 318 319 320 321 322 323 324 324 325 325 325 326 326 323 313 312 329 329 328 324 316 313 312 310 306 308 306 304 299 303 301 303 302 301 300 302 298 297 300 299 301 298 298
318 317 317 317 318 320 321 321 322 323 324 324 325 325 325 321 301 315 325 325 325 319 313 311 309 306 303 304 307 299 304 305 305 303 301 298 301 299 300 300 302 300 301 299 298
318 317 317 317 317 318 319 320 321 322 323 324 324 325 321 309 309 315 323 322 316 313 310 308 306 306 303 304 304 301 302 304 304 302 301 302 299 299 299 302 304 304 301 299 299
319 318 317 316 317 318 318 319 320 321 322 322 323 323 313 301 313 315 311 312 312 310 308 308 306 307 304 302 301 302 302 302 302 302 302 299 298 299 300 303 303 303 300 299 300
319 318 317 316 317 317 317 318 319 320 321 322 323 321 310 305 313 312 311 310 310 309 307 309 308 306 306 302 303 301 296 299 300 301 299 299 295 296 301 301 300 301 301 300 300
318 317 316 317 317 317 317 318 319 320 321 321 323 318 305 314 312 310 310 308 309 309 309 309 308 306 304 304 301 295 296 291 298 300 299 297 290 299 302 300 300 299 298 300 301
317 316 316 316 316 317 317 318 318 320 321 321 317 313 303 314 310 310 309 307 307 308 307 307 308 303 302 295 293 295 290 292 296 301 297 295 292 299 298 297 297 297 298 299 300
317 316 315 316 316 316 317 318 320 317 319 320 314 306 306 305 309 309 307 308 306 306 305 304 302 297 296 294 287 290 290 293 292 296 296 293 293 297 299 298 298 299 300 300 300
317 316 316 316 317 318 315 313 307 309 309 304 305 304 305 308 310 306 306 305 305 302 296 300 294 291 294 297 297 296 293 292 296 298 294 293 294 296 298 298 298 299 300 299 299
317 317 317 317 317 318 313 306 306 305 296 303 304 305 306 308 303 305 305 299 299 294 297 295 292 297 298 297 294 293 291 291 295 297 293 292 292 296 296 298 299 299 299 299 297
318 317 316 317 317 314 310 307 311 310 298 299 302 301 302 304 300 301 301 300 297 295 295 293 295 299 297 294 293 292 290 290 291 294 292 289 288 291 295 298 298 298 300 297 297
318 317 316 316 311 311 307 309 311 310 291 294 297 301 302 302 295 300 302 300 297 294 295 294 298 297 294 293 294 289 294 293 292 288 284 289 283 289 291 294 294 296 298 294 296
317 317 317 315 309 307 307 309 310 305 281 297 295 304 302 297 296 295 297 296 293 293 293 292 292 291 291 293 295 291 291 290 289 287 286 286 283 286 292 290 292 295 298 296 297
317 316 315 313 312 311 311 309 307 289 280 293 296 295 295 296 295 295 295 296 295 292 292 292 294 293 293 292 292 292 289 288 286 285 280 285 285 283 288 291 292 294 296 296 295
317 316 314 315 308 311 309 305 289 282 295 293 293 295 294 293 294 292 290 288 287 284 285 290 291 291 293 290 290 289 286 279 278 277 280 287 284 289 291 293 294 294 295 295 295
317 316 314 314 311 310 305 296 283 294 292 296 294 294 291 294 293 292 290 287 290 289 287 285 285 290 292 291 290 287 288 281 274 278 282 282 281 287 295 296 295 296 295 295 294
317 315 312 313 310 309 298 285 290 297 300 298 297 290 290 292 292 292 289 290 292 292 287 286 286 289 291 291 293 288 284 290 282 277 278 285 287 292 294 294 294 293 292 293 293
313 311 309 314 310 304 291 288 292 303 302 299 291 293 289 291 289 289 290 292 292 294 295 290 286 290 287 288 288 287 289 282 283 273 272 282 283 287 291 294 292 291 291 292 293
311 304 310 311 308 298 286 288 296 302 303 298 296 292 291 290 292 290 290 293 293 293 295 290 289 286 286 284 285 283 283 285 286 284 277 278 283 289 290 291 292 292 292 293 294
308 297 306 309 294 294 290 294 298 298 302 298 294 293 291 291 289 290 290 294 296 294 290 293 290 284 286 290 287 288 287 288 283 281 280 283 284 293 291 292 292 292 294 294 295
302 302 305 306 292 291 294 295 297 297 297 297 297 296 297 293 288 290 291 295 296 294 289 292 286 281 282 288 286 284 287 288 288 286 283 280 283 294 295 294 292 291 292 293 294
300 293 296 298 298 295 293 292 292 298 297 298 297 298 294 291 294 291 291 295 297 295 296 295 287 285 281 284 288 284 285 285 286 282 283 283 285 290 293 294 295 296 296 293 293
297 294 296 289 291 293 295 293 291 291 297 299 295 295 293 289 290 290 292 293 294 296 294 293 284 285 287 289 288 286 286 287 285 285 282 285 286 290 292 293 295 296 294 294 293
291 293 294 293 295 293 292 290 290 293 294 293 293 294 294 291 292 290 291 293 292 292 292 293 285 285 283 286 286 284 286 287 287 287 287 287 286 293 294 295 294 294 295 294 295
297 296 291 288 289 289 289 290 290 293 294 295 295 294 292 294 297 298 298 298 296 293 289 287 285 283 280 285 284 280 285 287 288 290 288 284 290 294 293 294 294 295 296 296 296

GFSSW_sfc_thetae_003.txt.gz
Theta_e
321 321 321 322 322 323 324 325 325 325 325 325 325 326 326 326 325 313 306 315 317 328 322 311 309 308 307 306 306 304 292 290 293 294 295 297 296 297 297 295 297 301 298 298 300
319 319 319 320 321 321 322 323 323 324 324 325 325 325 326 325 315 309 321 334 331 328 313 307 305 305 301 303 303 299 293 295 298 296 295 297 296 297 295 295 295 297 296 299 298
319 319 319 319 319 320 321 321 322 323 323 324 324 325 325 322 310 308 329 332 331 325 312 309 307 306 300 302 301 298 294 298 299 299 298 297 295 298 296 294 296 297 297 297 295
319 318 318 318 318 319 320 320 321 321 323 323 324 324 324 316 291 312 326 327 327 315 310 306 304 300 298 298 303 296 300 301 302 301 298 296 298 297 297 300 301 300 299 297 294
319 318 317 317 318 318 319 320 320 320 321 322 323 323 316 303 304 314 323 322 314 311 306 304 302 301 297 299 299 297 298 301 301 300 299 299 298 296 297 299 300 300 300 297 296
319 318 317 317 317 318 318 319 319 319 320 321 322 322 305 296 309 312 310 311 309 306 304 304 302 303 299 298 296 297 299 298 299 300 299 298 296 297 298 300 299 300 299 296 297
318 317 317 317 317 317 317 318 318 319 319 320 322 320 306 300 309 308 308 306 305 305 303 304 304 301 300 298 300 298 295 295 298 298 297 298 294 295 301 298 298 298 298 298 297
318 317 317 317 317 317 317 318 319 319 319 321 322 313 298 310 305 307 306 304 305 305 306 305 304 303 300 300 297 292 291 288 294 296 297 297 290 296 299 296 297 298 296 296 297
318 317 316 317 317 317 318 318 318 319 320 320 311 306 298 313 305 307 306 304 304 304 303 306 304 299 298 291 289 289 285 287 292 297 295 293 291 296 298 296 296 295 295 297 299
318 317 317 317 317 317 318 318 317 317 316 319 314 300 302 301 307 306 303 306 303 303 302 300 297 292 292 289 284 285 286 289 289 292 292 290 292 296 296 294 294 294 294 295 298
319 317 317 318 318 318 314 306 298 299 305 297 298 299 302 305 307 303 304 303 302 299 293 297 290 288 292 292 292 289 288 287 292 295 293 293 293 296 297 294 294 295 297 299 298
319 318 318 318 318 318 310 302 302 301 293 300 299 302 304 305 299 302 303 298 297 292 294 292 289 294 294 294 292 290 288 288 292 293 292 291 292 294 294 296 297 297 297 299 296
319 318 317 317 317 311 305 302 307 305 294 296 298 297 298 303 298 298 300 297 294 291 292 291 293 297 295 293 291 291 288 289 289 291 290 288 286 290 293 294 297 298 298 299 296
319 318 317 316 309 306 301 305 307 304 285 291 294 298 300 299 293 297 299 297 294 292 292 291 296 294 291 290 292 288 292 292 289 286 284 287 282 287 290 291 293 295 297 294 292
317 317 316 315 304 303 305 306 305 299 277 293 293 302 299 293 293 293 295 293 290 290 290 290 289 289 290 292 292 290 291 289 287 285 283 284 282 284 289 288 292 295 297 296 293
317 317 316 311 306 306 307 305 301 284 276 290 294 292 292 293 292 293 292 293 292 289 289 289 290 291 291 290 291 291 287 286 284 283 280 283 283 284 285 289 290 295 296 297 293
317 316 314 313 306 307 307 304 287 280 290 290 289 292 290 290 291 289 287 285 284 282 282 286 288 289 292 288 288 288 285 278 276 274 279 285 281 288 289 291 293 295 295 296 293
317 316 314 314 309 310 307 295 283 291 289 294 292 290 288 291 291 289 286 284 287 286 284 283 283 288 290 291 287 285 286 279 273 276 282 279 279 286 292 295 294 295 296 292 292
316 314 312 313 310 308 299 286 289 291 299 298 299 294 287 289 289 288 285 285 288 290 285 283 284 288 289 289 291 285 283 289 281 271 275 284 286 290 292 292 292 293 289 291 292
312 310 309 312 310 304 293 292 291 297 301 299 293 295 291 292 290 289 286 289 290 291 294 289 284 289 286 287 287 287 288 281 281 274 272 282 279 286 290 293 294 291 290 290 291
310 303 307 310 309 298 289 291 295 299 299 297 295 295 294 293 294 292 290 293 291 291 293 290 288 286 285 284 285 284 284 285 285 282 280 278 283 289 287 291 292 291 290 290 291
305 296 307 309 295 295 293 293 298 297 299 298 297 296 294 295 294 293 292 294 298 295 291 291 288 282 283 287 287 287 286 286 282 280 280 282 284 293 289 289 290 290 291 290 292
300 298 306 306 291 292 294 296 297 296 296 297 295 297 297 293 289 292 293 298 300 296 292 292 285 280 282 286 285 285 285 287 287 283 281 279 282 295 295 293 290 289 290 291 292
297 291 296 298 299 295 293 293 293 298 296 297 295 297 294 292 295 292 293 296 298 297 298 297 287 284 282 285 287 283 283 285 286 281 283 283 285 290 292 293 294 295 296 297 293
292 288 293 288 291 293 294 292 291 291 296 297 294 294 292 289 290 290 294 294 296 296 294 293 285 286 287 289 288 287 286 287 285 286 282 285 286 289 291 293 294 296 296 293 290
287 287 290 291 293 292 291 289 289 291 291 290 290 292 293 290 291 289 291 292 291 291 292 293 286 288 285 288 287 285 288 288 288 288 287 287 287 294 296 297 295 296 296 295 295
291 291 290 285 284 285 286 288 289 291 293 293 289 287 287 290 290 291 291 292 292 291 290 289 286 285 282 287 286 282 286 288 288 289 288 284 289 293 293 294 295 296 297 296 296

GFSSW_sfc_thetae_006.txt.gz
Theta_e
321 321 321 321 321 322 323 323 323 324 324 325 325 325 325 326 324 311 304 312 317 330 323 310 308 306 305 304 304 301 290 288 290 292 294 295 294 296 296 294 296 299 296 297 298
320 320 320 320 320 321 322 322 322 322 323 324 325 325 325 325 312 307 319 333 332 331 310 305 303 304 300 301 302 297 290 291 296 295 294 295 295 295 293 294 294 296 296 297 297
320 319 319 319 319 320 321 321 321 321 322 323 324 324 324 321 305 306 330 334 332 328 310 307 305 304 298 299 299 297 293 296 299 298 297 296 294 297 294 294 295 296 297 296 295
320 319 318 318 319 319 320 320 320 320 321 322 323 323 323 314 291 308 328 331 331 313 308 304 302 299 297 296 301 294 298 298 301 300 297 296 296 295 295 300 299 299 297 295 294
320 318 317 318 318 319 319 319 320 320 320 321 322 323 313 300 302 314 326 325 315 310 305 303 301 299 296 297 297 296 297 299 300 299 297 297 297 296 296 298 298 299 297 295 296
319 318 318 317 317 318 318 318 319 320 320 320 321 320 303 292 306 312 310 311 308 305 303 303 301 301 298 297 296 295 297 297 298 298 298 297 296 297 300 297 298 298 298 295 296
319 318 318 318 317 317 318 318 318 319 319 320 321 318 305 298 307 308 308 306 305 304 302 302 302 301 297 296 299 296 294 294 296 296 295 296 293 293 301 296 297 297 297 297 296
319 318 317 318 318 318 319 319 319 319 319 320 321 312 296 308 304 305 305 303 303 303 303 303 303 300 298 298 295 291 290 287 293 294 295 295 290 296 299 296 297 297 296 296 297
319 318 318 318 318 318 319 319 318 318 319 321 310 303 296 311 303 305 304 302 302 303 302 306 302 296 296 291 287 286 284 285 290 295 294 292 291 296 296 294 295 296 294 296 297
319 318 318 318 318 318 318 319 316 315 317 318 313 298 301 300 305 303 301 304 301 301 299 299 296 291 291 288 283 284 283 286 287 291 291 290 291 296 296 293 293 294 293 293 294
319 319 318 318 318 319 314 305 298 296 302 295 297 297 299 304 305 302 303 302 301 297 291 294 289 287 292 291 292 286 285 285 289 293 290 290 292 295 298 294 292 294 297 298 299
319 319 319 318 318 318 307 302 300 300 293 299 299 300 302 303 298 301 303 297 296 291 292 290 287 293 294 291 291 290 288 288 291 293 289 290 290 294 294 297 297 297 297 297 298
319 318 318 317 317 309 302 300 305 304 292 295 297 296 297 302 297 297 300 296 292 290 291 290 291 295 292 290 289 289 287 288 288 289 288 286 287 288 292 294 297 295 297 299 300
319 318 317 316 309 304 300 304 305 302 283 289 293 295 298 298 292 296 297 295 292 290 290 289 294 293 290 289 291 288 291 290 288 284 283 286 282 286 289 291 293 294 296 296 298
318 318 317 315 305 303 305 306 304 296 278 291 292 301 298 292 291 292 293 293 288 289 289 288 289 289 288 291 291 290 289 288 285 283 282 282 281 285 288 287 291 295 295 297 298
317 317 316 311 306 307 307 303 299 285 279 288 292 291 290 292 291 291 291 292 291 288 288 289 289 290 290 290 290 289 287 286 283 282 279 283 282 284 284 288 289 293 295 296 298
318 317 313 312 305 308 306 303 294 283 291 289 288 290 289 288 289 288 287 286 285 281 281 284 286 287 290 287 287 288 285 278 275 274 277 284 280 288 289 292 291 294 295 296 297
315 317 313 313 309 309 307 299 287 292 290 294 294 289 288 290 290 288 285 283 286 285 282 281 283 287 289 289 286 285 286 281 273 276 282 279 279 286 291 293 293 293 294 294 292
315 314 312 313 310 309 301 290 292 293 297 296 296 293 289 288 290 288 285 284 287 288 285 282 284 287 288 288 290 283 282 288 281 269 273 283 285 290 289 291 291 291 292 292 291
311 310 309 313 310 306 296 293 294 297 298 298 292 294 288 289 291 288 287 288 288 289 291 287 283 288 285 287 286 287 288 281 280 275 272 280 279 285 288 289 289 290 292 292 290
308 302 308 310 309 299 289 292 296 299 300 296 294 294 292 292 293 291 291 291 292 289 292 290 287 286 284 283 285 283 284 284 284 283 280 279 282 287 287 286 288 291 293 289 290
304 294 307 310 295 295 292 295 298 297 300 298 297 295 294 294 293 294 293 295 297 294 291 292 288 284 287 289 286 286 287 288 283 280 280 281 282 295 295 294 294 293 294 291 290
298 296 306 306 290 292 294 294 297 295 296 296 295 296 297 293 289 293 294 298 299 297 294 294 288 283 283 288 289 283 286 287 286 285 283 280 282 295 295 294 295 293 295 292 291
294 289 297 299 299 294 292 292 292 297 296 297 295 296 293 291 293 291 291 295 297 297 299 297 290 286 281 285 287 284 284 284 285 282 283 283 285 290 292 293 295 295 296 292 294
290 287 292 287 291 293 293 292 290 289 294 295 292 292 291 288 289 288 292 291 293 296 296 294 286 288 289 290 290 289 288 289 286 287 283 285 286 290 292 294 295 297 298 294 292
286 285 289 288 289 290 290 288 288 290 290 289 289 292 291 287 287 285 287 286 286 289 288 290 285 288 285 288 287 285 288 289 288 288 288 288 287 294 296 296 295 296 297 297 296
288 289 289 284 282 280 284 286 287 288 290 291 289 285 285 286 287 287 288 288 288 285 285 285 284 283 280 284 283 280 286 287 288 289 289 284 289 291 290 291 294 295 291 289 291

GFSSW_sfc_thetae_009.txt.gz
Theta_e
321 321 321 321 321 322 323 323 323 322 323 324 324 324 324 325 324 310 303 311 314 330 320 308 307 305 303 302 302 298 289 286 289 290 293 293 293 295 294 295 295 298 295 296 297
320 320 320 320 321 321 322 322 322 322 322 323 323 324 324 324 312 305 317 330 332 331 308 305 302 302 299 300 300 296 287 289 292 293 293 294 294 294 295 293 293 295 296 296 296
320 319 319 320 320 320 321 321 321 321 322 322 322 323 323 320 302 300 327 333 334 325 309 305 304 302 297 298 298 296 292 294 297 298 296 295 293 295 292 293 294 296 297 295 294
319 319 319 319 319 319 320 320 320 320 321 321 321 322 321 312 290 302 329 333 332 313 307 303 300 298 295 295 299 293 297 296 298 299 296 295 295 294 294 300 298 298 297 295 294
320 319 318 318 319 319 319 319 319 319 320 320 321 322 309 297 300 312 328 328 315 308 304 301 299 298 295 295 296 295 296 299 299 298 297 297 296 295 295 300 297 297 296 295 295
319 319 319 319 319 319 319 319 319 319 319 320 320 320 301 291 303 313 312 312 307 305 301 301 299 300 296 296 296 295 296 297 296 297 297 296 298 295 298 297 298 296 296 295 295
320 319 319 319 319 320 320 320 319 320 319 319 320 317 302 297 305 309 308 306 305 303 299 300 300 298 296 293 297 295 293 293 294 294 295 295 292 291 299 295 297 295 296 296 295
320 319 319 319 319 319 320 320 320 320 319 319 319 309 294 305 304 304 304 302 302 302 302 302 301 299 296 297 294 289 289 286 291 292 293 293 288 297 297 295 296 296 295 295 296
319 318 319 319 319 319 319 319 319 318 319 320 309 300 295 310 302 304 303 301 301 301 301 305 300 296 294 289 287 285 283 284 288 294 292 292 289 295 295 293 294 294 294 295 296
319 319 319 319 319 319 319 319 316 315 317 317 312 294 295 298 303 303 301 303 299 299 298 297 294 290 288 287 282 283 281 284 284 290 289 288 289 294 297 293 294 295 295 297 298
319 319 319 319 319 319 313 304 298 295 301 295 297 294 297 301 304 300 302 301 299 295 290 292 288 286 291 290 291 285 284 284 287 292 288 289 290 293 296 296 296 293 296 298 298
319 319 319 319 319 318 304 300 297 298 291 299 299 299 301 301 296 299 301 296 294 290 291 289 286 292 292 290 289 287 287 286 290 292 287 289 289 291 293 294 296 297 297 298 298
320 318 318 318 317 308 300 299 304 302 291 293 296 295 296 300 296 296 299 295 292 289 290 289 290 294 291 289 287 287 285 287 287 288 287 286 287 289 290 291 295 296 298 298 297
319 319 317 317 310 304 300 303 304 301 285 288 291 293 296 297 291 295 295 294 291 289 289 288 292 291 289 287 289 286 289 289 287 283 282 285 281 284 290 291 292 294 295 295 296
318 319 317 315 305 303 304 305 303 295 282 292 291 299 296 290 290 291 293 292 288 289 288 286 287 287 287 289 290 288 289 287 284 281 281 281 279 283 287 287 290 292 293 295 296
318 317 316 311 306 306 305 304 297 288 283 289 291 290 290 291 290 290 290 291 290 287 287 288 288 289 289 289 289 289 286 284 282 281 277 282 282 283 284 287 288 290 293 294 294
315 317 313 312 307 308 305 304 293 286 293 289 287 289 287 286 288 287 286 286 285 281 280 283 285 286 289 286 286 286 283 277 275 273 277 282 279 288 290 292 290 293 292 293 293
312 315 314 313 310 308 308 299 286 292 291 294 292 288 289 289 291 288 284 283 285 283 281 280 284 286 288 288 285 284 284 278 271 275 281 279 278 288 291 291 289 291 291 291 291
311 314 313 314 310 311 304 289 290 294 295 295 295 289 289 288 290 286 284 284 288 287 284 281 282 285 287 287 289 283 281 286 280 273 274 282 284 290 289 289 288 289 289 291 293
304 310 309 313 311 308 297 292 293 298 297 297 291 293 287 286 291 288 287 287 287 288 289 287 282 287 285 286 286 286 287 280 279 273 274 279 282 284 288 292 291 290 291 292 292
304 300 305 310 310 300 290 292 295 299 299 296 294 293 291 291 292 292 293 292 290 289 290 290 287 286 287 284 287 282 282 283 283 282 279 278 281 293 290 288 288 290 291 292 292
302 293 306 310 296 296 292 294 297 296 298 298 297 296 294 293 292 292 291 294 298 296 291 294 289 284 286 287 288 286 285 285 280 280 282 283 283 295 295 294 293 293 296 294 291
294 293 307 306 290 291 294 295 297 295 295 295 294 296 296 292 288 291 293 297 298 297 293 292 287 282 283 285 285 285 288 289 288 286 281 278 282 295 295 295 296 293 291 292 293
292 285 296 299 297 293 291 291 291 297 295 297 295 295 293 290 293 289 290 293 294 295 297 296 289 286 281 283 287 285 285 287 286 282 282 283 284 289 292 293 295 295 293 293 291
290 286 290 282 289 291 292 290 287 288 295 296 292 293 291 287 288 287 290 289 290 292 291 292 284 286 287 288 288 287 286 287 286 286 282 284 286 290 292 292 291 292 290 288 287
286 284 288 285 287 287 288 287 287 288 290 289 288 290 290 287 288 285 284 285 285 286 285 288 281 284 282 284 284 283 286 285 285 284 283 284 284 289 283 283 284 283 283 283 284
286 287 288 283 281 281 282 285 286 286 289 290 287 286 286 287 285 285 285 286 286 283 281 282 281 278 275 280 279 275 280 282 284 287 283 279 277 280 279 279 282 281 281 282 284

GFSSW_sfc_thetae_012.txt.gz
Theta_e
321 321 321 321 321 322 322 322 322 322 322 323 323 324 324 324 323 309 301 310 313 330 319 307 305 303 302 301 300 296 289 285 288 288 291 293 292 296 296 294 293 297 295 296 296
320 320 320 321 321 321 321 321 321 321 322 322 322 323 323 323 310 304 316 327 332 329 306 304 302 301 298 298 299 295 287 288 291 291 292 293 293 294 296 293 293 294 296 295 296
320 320 320 320 320 321 320 320 320 320 321 321 322 322 322 319 298 298 326 330 334 324 307 304 302 301 296 297 297 294 292 292 295 295 295 294 293 294 292 293 294 295 297 295 295
320 319 319 320 320 321 321 320 320 320 320 320 321 321 321 309 290 300 330 333 332 309 305 302 300 296 294 294 297 293 296 296 297 297 295 295 295 293 294 300 298 298 297 294 294
320 320 319 319 320 320 321 320 321 320 320 320 320 321 307 294 298 312 329 329 312 306 303 300 298 296 293 294 294 293 295 297 298 297 297 296 296 295 294 299 298 297 296 295 294
320 320 320 320 320 320 320 321 321 320 320 319 320 320 299 291 301 315 315 310 307 304 301 300 298 299 295 294 294 293 294 295 295 296 296 295 297 296 296 296 297 295 295 295 294
320 320 319 320 321 321 321 321 321 321 320 320 319 315 299 297 304 309 309 305 304 303 299 299 299 297 295 292 294 294 292 292 292 292 293 294 292 291 298 293 296 295 294 294 295
320 319 319 320 320 320 320 321 321 320 320 320 319 307 293 303 304 304 304 301 301 301 300 301 301 298 294 294 292 288 288 285 289 291 291 292 286 295 295 291 294 294 294 294 295
319 319 319 320 319 319 320 320 318 321 320 319 308 298 293 308 301 302 302 300 301 300 299 304 299 294 292 288 286 284 282 283 287 292 291 290 287 294 292 292 293 294 295 295 298
319 319 319 319 319 319 319 317 316 316 317 317 309 294 296 295 301 301 300 301 298 298 297 296 293 290 287 286 281 283 281 283 283 289 287 287 288 292 295 293 292 295 297 298 298
319 319 319 319 320 320 310 301 296 294 299 296 296 293 294 300 302 299 301 301 298 294 290 291 287 286 290 289 288 283 283 283 285 290 286 290 290 291 293 293 295 296 296 296 297
320 320 319 319 319 316 303 298 297 297 292 297 297 298 300 300 295 298 300 296 294 289 289 288 285 291 289 288 287 286 285 286 289 291 286 287 288 292 293 294 295 295 296 297 297
320 319 319 318 317 307 300 298 303 302 290 294 296 295 296 299 295 295 298 294 290 288 288 288 289 292 289 287 287 285 283 286 285 286 286 284 285 286 290 291 294 295 296 295 296
320 319 318 317 310 304 300 303 304 299 288 290 290 293 295 295 290 294 295 293 290 289 288 287 290 290 287 286 288 285 288 288 286 283 279 284 280 284 288 289 289 292 291 292 294
319 319 318 315 306 304 304 304 302 294 282 292 290 297 295 290 289 290 292 291 287 287 286 286 286 286 285 288 288 287 287 286 283 281 280 279 278 283 285 286 289 290 292 292 291
317 318 317 312 307 308 305 304 298 290 283 290 290 289 289 290 289 289 290 291 289 286 286 287 287 288 288 288 289 288 285 283 281 280 276 281 280 282 283 286 287 291 291 293 292
312 315 314 312 308 307 305 304 293 286 294 289 286 288 286 286 287 287 286 285 284 281 280 282 285 286 288 285 285 285 282 276 274 273 276 280 278 285 288 290 290 291 291 292 291
310 313 314 313 309 309 309 300 285 290 291 293 291 289 288 288 289 287 284 283 285 283 280 280 284 285 287 287 285 283 283 278 273 273 281 277 278 287 289 290 291 290 290 289 289
310 310 312 313 312 311 304 291 290 289 294 293 295 290 288 288 290 285 283 283 287 287 286 281 282 284 286 286 287 282 281 285 281 277 275 283 284 290 290 288 287 288 289 290 290
301 305 306 313 311 308 298 292 294 297 296 296 291 293 286 287 286 285 285 286 287 288 289 287 284 288 287 286 285 285 286 280 279 275 272 278 280 283 289 290 291 291 291 290 293
302 297 303 309 310 300 290 292 295 299 299 296 294 293 293 291 292 292 292 292 289 288 289 291 287 285 287 283 285 284 283 282 283 282 278 277 281 291 291 291 288 288 290 293 296
299 289 305 310 295 296 291 294 297 296 298 296 297 295 292 293 291 290 290 294 297 293 290 293 289 284 286 289 288 286 288 286 281 279 279 281 281 293 293 294 295 291 290 287 288
292 291 305 306 287 289 293 294 296 295 295 295 293 295 295 292 288 291 291 296 296 295 293 293 287 282 283 283 286 285 288 289 288 287 282 278 280 293 294 294 285 287 286 286 286
291 282 294 297 295 291 289 289 289 295 295 295 294 295 292 290 292 289 290 293 293 293 295 294 286 284 280 283 286 285 287 288 286 281 282 282 284 289 290 289 284 284 283 283 283
286 283 287 285 285 289 290 289 286 286 291 294 291 290 289 287 288 288 290 290 289 291 290 290 284 286 287 288 285 283 282 283 281 283 280 282 282 283 280 280 282 281 282 281 282
282 283 285 284 285 285 284 285 285 286 288 287 286 288 288 286 286 284 286 285 284 285 285 287 279 281 278 281 281 279 282 282 282 281 281 282 280 279 280 281 280 281 280 280 281
284 286 286 281 281 280 279 282 283 283 286 286 284 284 283 285 285 285 285 284 284 281 281 282 280 276 273 278 276 272 277 279 280 282 279 275 275 276 276 278 279 280 282 280 281

GFSSW_sfc_thetae_015.txt.gz
Theta_e
321 321 322 322 322 322 322 322 322 322 322 323 323 323 323 324 322 311 300 309 312 331 319 308 307 305 305 304 303 299 292 288 291 290 293 297 296 297 298 298 298 300 300 302 301
321 321 321 321 321 322 322 321 321 321 321 322 322 323 323 323 310 303 315 326 332 327 306 304 302 303 300 301 302 297 290 291 293 292 294 296 296 298 297 298 296 298 300 300 300
320 320 320 321 321 321 322 321 321 321 321 321 321 322 322 318 297 297 326 328 333 321 306 304 303 302 299 300 300 296 293 294 295 294 296 297 295 297 296 296 298 298 300 299 298
320 320 320 320 321 322 322 322 322 322 321 320 320 321 322 308 290 298 329 332 332 308 305 303 301 299 297 296 299 294 297 296 298 298 297 296 297 296 296 302 302 300 301 299 298
321 320 320 320 321 322 322 322 322 322 321 320 320 320 307 293 297 314 330 331 310 306 303 301 299 298 295 295 296 295 296 298 298 297 297 297 297 297 296 300 300 299 298 298 297
320 320 320 320 321 321 322 322 322 322 321 321 320 320 297 291 302 318 317 310 306 304 301 301 299 299 296 295 295 294 296 295 295 296 296 296 297 296 297 298 298 297 298 297 296
320 320 320 320 321 322 321 322 321 321 321 321 320 314 296 296 305 311 310 306 305 303 300 300 300 299 297 293 295 294 292 293 292 293 293 294 293 291 299 296 297 297 296 296 296
320 319 319 320 320 321 321 321 321 320 320 320 319 307 292 302 305 305 303 301 302 302 301 301 301 299 296 296 293 290 289 287 291 292 292 294 288 295 296 293 295 296 297 297 299
319 319 319 320 320 320 320 320 318 321 320 320 305 295 292 308 300 302 302 300 300 300 300 303 300 295 294 290 287 286 284 284 287 292 291 291 288 293 294 293 294 296 298 299 299
319 319 319 320 320 320 319 315 316 315 316 316 308 293 296 295 301 300 300 301 298 298 297 297 292 290 288 287 282 284 282 283 284 290 288 288 288 293 295 295 295 297 297 297 298
319 319 320 320 320 320 308 299 299 296 298 295 296 293 294 299 302 299 301 300 298 295 290 292 288 286 289 289 288 285 283 283 286 290 287 290 290 291 294 293 294 296 297 297 297
321 320 320 320 319 316 303 297 296 297 292 298 297 297 298 299 295 297 300 295 293 289 290 287 285 291 290 289 288 286 285 285 288 290 286 287 288 292 294 294 295 296 296 296 296
321 320 320 319 318 308 300 299 303 301 290 295 296 295 295 298 294 295 297 294 291 288 288 287 289 291 289 287 286 284 284 286 285 286 287 285 285 287 292 291 293 295 295 295 294
320 320 320 318 310 304 301 302 303 298 288 292 290 292 294 294 289 294 295 293 289 288 287 287 290 289 287 286 287 284 288 287 285 283 280 286 279 284 289 291 290 292 292 292 293
318 318 318 315 306 304 303 303 302 295 282 292 289 296 294 290 289 290 292 291 287 287 287 286 286 285 286 287 288 286 287 285 284 282 281 281 279 283 286 287 290 292 293 294 295
314 317 316 312 309 307 304 303 298 293 284 291 289 288 288 289 288 289 290 291 289 286 286 286 287 288 288 287 288 288 285 283 281 281 277 281 281 282 284 287 288 293 293 293 293
311 313 314 312 308 306 304 304 290 287 295 290 287 287 285 285 286 287 287 285 285 281 281 284 285 286 288 285 286 287 284 278 276 274 277 280 279 284 287 289 291 292 293 291 292
309 312 314 313 308 305 307 300 286 290 291 293 291 288 288 288 288 286 285 283 285 283 281 282 285 285 287 288 286 285 285 282 275 275 282 278 280 287 289 290 291 289 290 291 293
308 308 310 311 309 311 304 288 290 291 293 292 294 289 286 288 290 286 283 284 286 287 285 281 282 285 285 286 289 283 282 286 281 279 276 283 285 292 290 290 289 290 289 288 288
299 302 303 311 309 308 297 289 292 295 296 296 290 292 286 288 288 287 286 287 285 287 288 287 284 288 286 285 285 286 287 281 280 275 275 280 280 284 287 287 288 285 285 287 287
299 295 301 310 311 301 288 289 293 298 299 296 293 292 292 291 292 291 291 294 291 289 289 290 287 285 288 284 284 283 282 283 284 283 277 277 281 288 287 285 284 285 286 285 285
297 286 303 311 295 295 290 293 295 294 297 295 295 293 292 292 290 289 289 292 295 292 288 292 289 284 286 289 286 287 287 286 282 280 281 282 282 294 287 287 285 283 283 283 284
291 290 301 306 288 289 293 292 295 293 294 294 292 293 292 290 286 290 289 294 295 294 293 293 287 281 281 284 285 286 287 288 288 285 281 278 281 293 291 284 284 281 281 282 283
288 281 289 298 293 289 286 287 288 292 292 294 292 292 289 288 290 288 288 292 292 292 295 293 287 285 280 283 286 284 285 287 286 281 281 282 283 287 284 281 281 281 281 282 282
285 282 286 278 284 288 288 286 284 284 289 290 288 288 287 285 284 284 288 289 290 291 288 289 283 284 286 287 282 282 281 281 279 281 277 280 280 284 281 279 280 282 282 281 281
281 280 283 283 285 283 286 283 283 284 286 284 283 285 285 284 285 283 285 284 285 286 285 287 280 279 276 281 281 279 279 280 280 280 281 281 280 279 279 280 279 279 281 281 279
283 285 285 280 280 278 278 281 280 282 285 283 282 281 280 284 285 285 285 284 284 282 281 281 278 278 274 278 275 270 275 278 279 280 279 275 275 275 275 278 278 278 280 280 279

GFSSW_sfc_thetae_018.txt.gz
Theta_e
322 322 322 322 322 323 323 322 322 322 322 323 323 323 324 324 322 317 306 313 316 329 321 314 314 312 313 311 309 308 302 298 298 298 300 304 303 304 306 305 305 307 309 312 309
321 321 321 322 322 322 322 322 322 322 321 322 322 322 323 323 315 309 321 325 331 327 313 311 309 310 309 308 309 306 301 300 303 303 302 304 303 305 304 306 306 306 310 310 308
320 321 321 321 322 322 322 322 322 322 322 321 321 322 322 322 307 305 328 329 333 322 314 312 311 309 306 307 307 306 301 304 303 303 303 303 303 305 304 303 307 306 309 311 308
321 320 321 321 321 322 322 323 323 323 322 321 321 321 322 316 298 306 328 333 330 315 312 310 309 306 304 303 306 301 305 304 305 304 303 302 305 303 304 306 309 310 310 309 309
321 321 321 321 321 322 323 323 323 323 322 321 321 321 313 303 304 322 331 332 316 312 310 309 306 306 302 303 303 301 303 304 305 304 304 305 303 303 304 308 309 309 308 307 308
321 320 321 321 321 322 322 322 323 323 322 321 321 320 306 297 310 325 325 315 313 311 309 309 307 308 303 302 302 302 302 302 303 303 303 300 302 301 304 307 306 306 306 307 307
321 320 320 320 321 322 322 322 322 321 321 321 321 316 303 303 312 320 315 313 312 311 307 308 308 306 305 301 303 301 298 301 301 301 300 301 298 298 305 305 303 305 306 306 307
320 319 319 320 320 321 322 322 320 321 320 320 321 314 302 307 314 312 310 307 310 309 308 308 308 306 303 303 300 297 297 294 300 298 299 300 294 302 305 302 302 304 305 306 307
319 319 319 320 320 320 321 319 320 321 321 320 313 304 301 311 305 307 309 306 307 307 308 306 307 303 302 298 295 296 292 293 295 299 297 298 295 301 303 302 301 303 304 305 306
319 319 320 320 320 320 319 314 318 318 318 317 310 301 303 301 305 305 306 306 304 305 304 304 302 299 298 296 290 293 292 293 292 298 297 295 295 298 300 300 299 301 302 304 305
320 320 321 320 320 321 313 310 312 307 307 306 307 302 301 304 307 303 305 304 304 302 297 300 296 294 297 298 297 295 293 292 295 298 295 294 295 297 300 300 300 300 302 303 304
321 321 321 320 320 317 312 307 304 303 302 305 303 302 302 304 300 301 305 300 299 296 296 295 292 298 299 296 294 294 292 292 295 297 293 294 293 297 299 299 301 301 302 302 303
320 320 320 320 319 315 308 305 309 306 299 302 301 300 300 303 300 299 302 300 297 294 294 294 297 297 294 294 292 293 291 292 292 295 295 292 293 294 299 300 301 300 301 301 301
320 319 319 318 315 312 308 307 309 305 297 298 296 298 299 300 295 298 300 299 297 294 294 294 296 293 293 292 294 290 296 293 291 289 287 292 286 294 298 298 299 300 300 301 301
318 319 319 317 318 314 309 308 308 303 287 298 295 302 299 296 295 295 299 299 294 294 294 294 292 291 291 293 294 292 293 291 290 289 288 290 286 294 294 293 297 299 299 299 300
315 318 316 314 314 311 309 308 306 297 286 296 295 294 294 294 294 295 296 298 296 293 293 294 294 294 294 293 293 293 292 291 289 289 284 291 289 291 294 294 296 298 296 296 296
311 315 316 314 312 310 309 311 296 288 298 295 293 293 292 291 292 292 292 292 292 289 291 292 291 293 293 291 291 291 289 286 286 286 285 288 287 290 296 295 295 293 293 294 295
309 313 315 315 311 310 314 303 287 293 295 298 297 293 295 294 294 292 291 293 292 290 290 289 288 291 293 294 294 290 291 288 280 282 286 290 285 292 299 295 295 294 293 293 293
309 312 312 314 312 314 307 289 289 294 298 296 298 294 294 294 294 293 292 294 294 293 290 290 290 292 290 292 293 289 286 292 287 287 283 287 291 296 297 293 293 293 293 291 291
306 307 306 313 313 311 298 290 292 298 299 299 292 295 290 293 293 292 292 292 291 292 293 291 286 294 293 291 291 290 294 286 285 278 278 283 286 288 290 290 291 291 289 289 289
304 297 304 313 314 302 289 291 294 299 300 296 294 293 293 292 293 291 292 296 297 295 293 294 290 290 293 290 290 289 286 286 286 285 280 279 284 293 290 290 289 287 286 286 287
301 289 305 312 297 297 291 293 296 296 299 297 297 295 293 293 291 290 290 294 299 297 292 295 290 285 288 295 294 291 290 290 283 282 285 284 284 292 290 289 287 285 285 286 286
295 295 304 307 288 291 294 293 295 294 295 294 293 295 295 291 287 290 291 296 298 296 293 294 287 283 284 289 290 289 291 290 290 288 283 281 283 289 287 286 284 283 284 284 285
293 286 293 299 298 292 290 289 289 294 294 295 294 295 292 289 291 288 289 293 295 295 296 294 288 284 279 284 288 285 288 288 286 282 282 283 285 289 291 290 284 283 284 284 283
290 286 289 287 290 292 291 289 286 286 291 293 290 291 288 285 286 286 289 289 292 292 292 291 283 285 286 287 287 286 285 285 283 283 278 281 281 285 288 286 283 282 283 283 281
286 286 288 286 287 288 289 287 285 286 287 286 286 287 287 284 285 283 285 286 284 288 287 288 281 283 281 284 284 282 283 284 283 283 282 282 281 287 283 282 281 281 281 283 281
289 290 288 283 283 284 284 286 284 286 286 286 284 283 282 285 286 286 287 286 285 283 283 283 281 279 275 281 280 275 279 281 282 284 282 278 282 280 278 280 281 281 282 282 282

GFSSW_sfc_thetae_021.txt.gz
Theta_e
322 322 322 323 323 323 323 323 323 322 322 323 323 323 323 324 323 320 310 316 318 329 324 316 315 314 315 313 313 312 302 299 301 300 302 306 304 308 310 307 309 310 310 313 314
321 321 321 322 322 322 323 323 323 322 322 322 322 322 323 322 317 312 321 325 333 327 315 313 311 312 310 310 311 307 303 302 306 305 303 305 305 306 306 306 307 309 313 314 314
320 320 321 321 322 323 323 323 323 323 322 322 322 322 322 322 311 307 326 329 333 325 316 315 313 311 307 310 309 307 302 305 306 307 307 305 304 307 304 303 306 307 309 312 313
320 321 321 321 322 323 323 323 324 323 323 322 322 322 322 318 300 311 329 332 331 318 314 311 310 307 305 304 308 303 306 306 307 307 305 304 306 304 305 306 309 310 311 311 310
321 321 321 321 322 322 323 323 324 324 323 322 322 321 318 306 306 323 330 331 318 314 311 310 307 307 303 304 305 303 304 306 307 307 306 306 304 304 304 308 310 310 310 309 310
321 321 321 321 322 322 323 323 323 323 322 322 322 320 312 301 313 324 326 322 315 313 311 311 308 309 305 304 302 305 304 304 305 304 305 302 303 304 305 308 308 308 308 309 309
321 320 320 320 322 322 322 322 322 320 321 321 322 318 307 308 315 321 320 316 315 313 310 312 311 307 307 303 306 303 299 302 303 304 303 303 299 300 306 308 306 306 307 308 309
320 320 320 320 321 322 322 322 319 321 320 320 322 315 305 309 315 315 314 311 314 313 312 311 311 308 305 306 303 299 300 295 302 301 302 301 295 302 306 304 303 305 306 307 308
320 319 320 320 321 321 321 318 320 321 320 320 316 311 304 310 307 309 311 307 310 310 310 308 309 305 305 299 297 299 293 296 298 303 300 299 296 302 305 304 303 304 304 305 306
320 320 320 321 321 321 320 314 320 318 319 318 311 304 304 303 307 307 309 309 306 307 305 305 304 300 300 297 291 295 296 297 296 301 301 299 298 301 304 303 303 304 305 306 306
321 321 322 321 321 321 318 316 314 311 311 309 310 307 311 307 308 306 307 306 306 304 299 302 297 295 299 301 300 298 296 295 298 301 299 297 297 299 302 302 302 304 305 306 305
322 322 322 321 321 319 317 312 307 306 304 313 311 308 306 307 303 303 307 302 301 297 300 297 294 300 301 300 296 296 294 294 298 300 298 296 295 298 300 302 304 304 304 304 304
321 321 321 321 320 320 314 309 311 309 303 307 306 305 304 305 305 305 305 303 299 298 297 296 299 301 298 297 295 296 294 294 294 297 297 295 294 299 301 305 305 304 303 302 301
321 320 320 319 315 320 313 311 312 310 299 301 300 300 301 303 299 301 303 302 300 298 300 298 300 296 296 294 296 291 298 295 293 291 289 295 286 295 300 301 301 301 300 300 299
320 320 320 315 321 317 312 312 312 308 288 300 297 305 301 298 297 297 302 301 297 297 297 295 295 293 294 295 297 294 295 293 293 291 292 293 289 294 300 297 297 297 298 298 298
318 318 316 319 320 316 313 312 311 297 287 298 297 296 296 296 296 298 298 301 298 296 297 296 297 295 296 297 296 296 293 293 294 292 286 293 291 292 295 295 296 296 297 297 297
313 316 316 318 314 316 314 314 297 289 300 297 295 295 295 294 295 295 295 294 294 291 293 297 295 296 296 293 295 293 291 286 285 287 286 293 290 293 298 297 297 295 295 296 296
310 315 315 318 317 315 316 303 287 294 297 301 299 298 296 299 298 295 296 295 298 294 293 290 288 294 295 294 294 294 293 287 280 282 287 293 288 293 299 296 297 296 295 295 294
310 313 312 316 316 318 308 292 291 295 299 298 298 295 295 298 296 297 297 296 298 298 291 290 290 299 296 296 294 293 289 294 287 287 284 288 293 299 299 295 295 294 294 292 293
308 307 307 315 315 314 300 292 295 298 299 298 292 295 291 294 294 294 294 296 294 295 296 294 288 296 295 295 295 292 293 287 288 279 278 285 287 289 294 294 293 292 290 290 291
306 298 306 315 316 303 291 292 294 298 300 297 294 293 293 292 293 292 293 297 298 297 296 295 291 290 294 291 290 290 288 289 289 287 280 279 284 293 292 293 291 288 288 288 288
302 292 309 314 296 297 292 294 295 296 299 297 296 295 293 293 291 291 291 294 299 298 292 295 291 285 287 294 296 294 290 290 284 282 285 283 284 295 292 290 289 287 287 288 288
296 296 307 308 290 292 294 293 296 295 295 295 294 296 296 292 288 291 292 297 298 295 293 294 288 281 284 288 291 290 292 292 291 288 283 281 283 292 290 288 287 286 287 287 286
295 288 296 299 300 293 291 291 291 297 295 296 294 295 293 291 292 289 289 293 296 295 295 295 288 284 279 283 288 285 287 289 287 281 282 283 284 287 290 289 287 287 287 286 285
294 289 293 287 291 292 292 290 288 288 293 294 291 291 289 285 287 287 289 291 293 293 292 291 283 285 286 287 286 285 284 285 284 285 280 283 284 287 289 289 286 286 286 285 284
289 289 291 291 293 291 290 289 288 288 288 287 287 289 290 286 287 284 287 287 286 289 287 288 281 283 279 283 283 281 284 284 285 285 284 284 283 290 287 285 284 284 283 283 283
292 293 291 287 287 288 289 289 287 290 289 289 289 287 285 287 289 288 288 288 288 285 284 283 281 278 274 279 279 274 279 281 282 284 283 279 282 281 281 281 282 282 282 282 283

GFSSW_sfc_thetae_024.txt.gz
Theta_e
322 322 322 323 323 323 323 323 323 323 323 323 323 323 323 324 323 321 312 318 319 331 327 315 313 313 314 312 312 309 297 294 297 296 297 302 298 302 303 300 302 304 303 305 310
321 321 322 322 323 323 324 324 324 323 323 323 323 323 323 323 317 312 321 331 331 330 315 311 309 311 307 309 308 302 297 298 301 300 299 301 300 300 300 300 300 301 306 308 308
321 321 322 322 322 323 324 324 324 324 324 324 323 323 323 321 312 310 327 330 330 327 316 314 312 310 305 307 305 304 298 302 302 304 303 301 300 301 298 297 300 300 303 305 304
321 321 321 322 322 323 324 324 325 325 324 323 323 323 322 318 299 316 328 332 331 318 314 311 308 305 302 301 306 299 303 303 304 304 302 300 302 300 300 300 305 304 305 304 304
322 321 321 321 322 323 323 324 324 324 323 323 323 323 318 307 307 323 329 331 320 315 310 308 305 304 300 301 302 300 302 304 304 303 302 303 300 300 300 304 305 305 305 303 303
322 321 321 321 322 323 323 323 323 323 322 322 322 321 314 301 314 324 323 321 314 311 309 308 306 306 302 301 299 301 301 301 301 301 301 300 299 299 301 303 303 303 302 302 302
321 321 320 321 322 323 323 323 322 321 322 322 322 318 309 306 316 321 321 316 314 312 308 310 309 306 304 300 302 301 296 298 299 300 299 300 295 296 301 301 300 301 300 301 302
321 320 320 320 321 322 322 322 319 322 321 320 322 316 304 311 314 315 314 312 314 313 311 310 310 306 303 304 300 296 295 290 298 298 298 297 290 298 301 299 299 301 301 301 302
320 320 320 321 321 321 322 321 318 321 320 321 317 313 303 312 307 309 311 308 310 309 308 308 308 302 301 295 292 293 288 291 294 300 297 294 291 298 301 299 299 301 300 300 300
320 320 321 321 321 321 321 319 320 318 319 318 313 304 304 304 307 308 308 309 306 306 304 303 300 295 295 292 285 289 290 292 292 297 297 294 293 297 299 299 299 299 298 299 298
321 321 322 322 322 322 319 315 312 310 309 308 310 306 311 306 309 306 308 305 305 303 296 299 293 290 294 296 296 292 292 290 294 298 294 294 293 295 298 298 298 298 298 298 297
321 322 323 322 322 322 317 312 307 307 302 312 311 311 309 307 303 303 306 300 299 295 298 294 290 297 299 298 295 293 290 290 293 297 294 292 291 295 297 297 298 297 297 296 296
322 323 322 321 320 319 315 310 312 310 301 307 308 306 305 306 304 302 303 301 297 295 295 293 297 300 297 294 293 292 290 290 290 293 293 290 288 292 298 298 298 298 297 296 295
322 322 322 320 315 319 313 312 313 311 297 300 300 300 302 303 299 302 304 300 299 295 297 295 298 296 294 293 294 289 295 293 291 287 283 291 282 288 295 295 295 295 293 293 294
320 321 320 316 319 315 312 313 313 307 285 300 296 306 302 298 297 297 301 299 295 296 293 293 292 291 291 293 295 292 293 290 289 286 284 287 283 288 294 291 291 292 293 292 292
319 319 318 317 319 316 314 312 310 295 286 295 298 297 296 296 296 298 298 299 297 294 294 293 294 293 293 294 294 293 290 290 288 286 279 287 286 286 288 290 290 292 293 293 292
317 317 315 318 312 316 314 311 296 288 300 295 294 296 295 294 294 294 294 291 290 287 288 292 292 293 294 289 291 289 286 280 279 278 279 288 285 288 291 293 293 292 291 291 291
312 316 315 316 313 313 312 303 287 295 296 300 297 297 296 298 296 294 293 290 295 292 288 286 285 291 292 291 289 290 289 281 273 275 279 286 281 288 293 293 293 293 291 291 290
311 311 311 315 315 315 308 292 291 295 298 297 298 293 294 296 296 294 293 293 294 294 288 286 285 292 292 292 292 288 285 290 282 278 276 283 287 293 293 291 291 290 289 288 289
308 305 306 314 314 311 298 293 295 299 298 298 292 294 289 292 292 292 291 292 292 294 296 292 285 293 291 292 290 288 290 283 284 278 272 280 280 284 289 289 290 287 286 287 287
304 297 306 314 313 301 289 292 296 299 300 295 293 292 292 291 292 290 290 294 296 292 294 293 290 287 291 288 287 286 286 287 287 283 276 276 279 289 288 289 286 285 286 286 286
301 291 307 313 295 296 291 294 296 296 298 297 296 294 292 292 290 290 290 293 298 296 291 293 289 280 285 291 292 290 288 288 281 278 281 282 281 291 289 288 287 286 287 287 287
295 296 307 307 288 290 294 294 295 294 294 294 293 295 294 291 287 290 291 295 296 294 292 292 284 276 277 283 290 288 289 289 287 285 281 278 280 289 288 286 286 288 288 288 287
295 287 296 299 298 292 291 291 290 296 295 295 294 294 292 290 292 288 289 293 294 294 295 294 285 279 274 279 284 280 284 285 284 279 278 278 281 286 288 289 289 288 287 285 285
293 288 293 287 291 292 292 291 289 289 294 293 291 291 290 286 287 286 289 289 292 293 292 290 279 283 284 285 284 282 281 282 280 281 277 280 280 284 287 287 282 282 283 284 284
289 288 290 290 291 291 291 287 287 288 290 288 288 288 289 286 287 281 285 285 285 287 287 287 274 279 273 280 280 278 280 280 280 280 280 281 280 287 282 282 281 282 282 281 280
292 292 289 288 287 287 288 288 288 290 290 290 288 287 285 286 287 287 286 286 286 283 281 280 275 268 267 276 274 267 275 277 278 280 279 275 278 277 278 280 278 278 280 280 281

GFSSW_sfc_thetae_027.txt.gz
Theta_e
322 322 322 323 323 324 324 324 324 324 324 324 324 324 324 324 322 319 311 316 318 331 325 311 309 307 307 305 305 302 291 289 291 293 293 298 296 299 300 297 298 301 300 302 305
321 321 322 322 323 323 324 324 324 324 324 324 324 324 324 323 316 309 322 333 332 332 311 306 304 306 301 303 303 297 291 293 296 294 294 297 295 295 296 296 296 299 301 302 307
321 321 322 322 322 323 324 324 325 325 324 324 324 324 324 321 308 307 327 332 331 328 313 309 307 305 299 300 300 299 293 297 300 300 299 298 298 298 295 293 297 297 299 301 302
322 321 321 322 322 323 324 325 325 325 324 324 323 324 323 314 292 313 327 329 329 316 310 307 303 299 297 296 302 295 300 300 301 301 299 297 299 299 298 300 301 301 301 300 301
321 321 321 321 322 323 324 325 325 324 323 322 323 323 315 303 303 320 328 329 318 312 306 304 300 299 295 296 297 295 297 300 301 300 299 299 297 297 298 302 302 302 302 300 300
321 320 320 321 322 323 324 324 324 323 322 322 322 321 308 297 315 321 321 317 311 308 305 304 302 302 298 296 295 296 297 297 298 299 298 297 295 296 298 299 299 299 299 298 299
321 320 320 320 322 323 323 324 323 321 322 321 322 317 306 302 315 320 319 313 311 309 305 307 305 301 299 296 299 297 293 295 296 296 296 297 293 295 299 297 298 298 296 299 298
320 319 319 320 321 322 323 323 321 321 322 320 322 312 298 308 310 314 311 308 310 309 307 307 306 303 300 300 298 293 290 287 295 296 296 294 288 296 298 296 297 298 295 297 297
319 319 319 320 321 322 322 322 318 321 321 322 312 307 299 310 305 305 306 305 306 306 304 307 304 298 298 292 289 289 285 287 292 297 295 292 288 296 299 297 296 296 295 296 295
319 319 320 321 321 321 322 322 318 318 318 318 314 298 301 300 304 305 303 306 303 302 300 300 296 291 290 288 282 285 285 289 288 294 293 290 290 294 296 297 297 295 292 293 293
319 320 321 321 322 323 318 311 307 305 305 304 303 299 305 304 306 303 304 302 302 298 292 295 289 286 289 291 291 289 288 287 290 295 291 291 290 293 296 295 295 292 292 292 293
320 321 322 322 322 322 314 306 304 305 300 308 308 309 305 305 300 301 303 297 296 291 294 291 287 293 294 294 293 290 287 287 290 294 291 290 289 293 295 294 294 293 291 292 292
321 321 322 321 321 316 309 306 308 305 298 303 305 304 302 304 301 299 300 297 293 291 292 289 293 297 295 292 290 288 287 287 288 290 290 287 287 290 294 293 293 293 293 293 291
321 321 321 320 313 313 308 309 309 305 292 297 299 298 300 301 296 299 300 298 295 292 292 291 295 294 292 291 292 287 291 291 289 285 281 287 279 287 291 290 291 291 290 290 290
320 321 320 319 312 311 310 309 308 303 282 296 295 303 299 296 295 295 298 296 292 292 291 291 291 289 289 291 293 289 290 288 287 284 282 283 280 285 288 287 288 288 289 289 289
319 320 319 317 314 312 311 309 306 293 284 292 294 294 293 293 293 295 295 295 294 291 291 291 291 291 292 292 292 291 288 287 285 283 278 283 283 283 286 288 288 289 289 289 288
318 318 316 317 312 312 311 308 294 287 298 291 291 292 292 290 291 292 290 288 287 284 284 288 290 290 292 287 290 288 284 279 276 275 277 285 282 285 289 290 290 288 287 287 287
317 316 315 316 313 312 309 301 287 293 293 296 292 292 292 292 292 291 289 287 290 288 286 284 283 289 290 290 288 287 287 279 271 274 276 284 279 285 288 289 289 289 288 288 287
314 310 312 315 315 314 306 292 291 293 297 296 295 291 291 295 294 290 289 289 290 291 286 284 284 289 291 291 292 287 284 288 282 273 274 280 285 288 288 287 287 286 286 286 287
306 305 306 314 314 310 299 292 295 298 297 297 291 292 287 290 290 289 289 290 290 292 293 289 283 290 288 291 289 288 289 282 281 270 269 278 279 281 285 284 285 285 284 285 285
303 299 306 313 312 300 289 292 295 298 298 295 291 289 288 289 291 287 288 291 293 290 294 292 288 286 288 287 286 285 284 285 285 282 274 272 277 287 287 285 283 284 284 284 284
300 293 306 312 294 294 291 294 296 295 298 296 293 291 290 290 289 287 288 291 295 293 289 291 288 278 285 289 289 288 286 286 279 277 278 280 280 289 287 286 285 285 286 285 285
295 295 305 307 288 289 294 295 296 293 294 294 292 293 293 290 287 289 290 293 294 292 290 291 283 272 277 282 288 286 287 287 286 285 279 277 278 288 286 285 286 285 285 285 284
294 289 295 300 297 292 291 290 290 295 293 294 293 294 291 289 291 287 288 292 293 293 296 294 286 278 275 277 283 279 282 282 284 276 273 275 277 284 285 285 286 286 287 286 283
293 288 292 287 291 292 292 291 289 288 293 294 290 291 289 285 287 286 289 289 291 294 291 289 278 282 283 283 281 280 280 281 279 280 275 279 279 282 284 282 282 281 283 284 283
288 287 288 288 292 291 290 288 287 289 290 288 288 290 290 287 286 281 285 285 285 288 287 287 274 278 272 280 280 277 279 279 279 279 278 279 278 284 280 279 280 280 280 280 279
290 290 288 287 286 288 288 288 287 289 289 290 290 288 285 284 286 286 285 285 285 283 281 281 276 268 265 276 273 267 275 277 278 279 277 273 277 275 277 279 277 277 278 279 280

GFSSW_sfc_thetae_030.txt.gz
Theta_e
321 322 322 323 323 324 324 324 324 324 324 324 324 324 324 324 322 317 307 314 315 331 323 309 306 305 305 303 303 299 290 287 289 290 291 296 295 297 297 295 296 299 296 299 303
320 321 322 322 323 323 324 324 324 324 325 325 324 324 324 323 313 308 320 332 333 332 309 304 302 304 299 301 301 295 288 290 294 294 293 296 295 295 295 295 295 295 298 301 304
321 321 321 322 322 323 324 325 325 325 325 324 324 324 323 320 303 305 325 330 332 325 310 307 305 303 297 299 298 296 291 295 297 298 297 297 296 296 294 293 296 297 296 299 302
322 321 321 321 322 323 324 325 325 325 324 323 323 324 323 313 292 309 327 329 330 314 308 305 302 298 295 294 299 293 299 298 300 299 297 295 298 297 296 299 300 300 299 298 299
321 321 321 321 321 323 324 325 325 325 324 322 322 323 313 301 302 318 328 327 313 310 304 302 299 298 294 295 295 294 295 298 300 298 297 297 296 295 297 300 300 299 299 297 296
321 320 320 320 321 323 324 325 325 324 322 322 322 321 305 296 314 320 317 312 309 306 303 303 300 301 296 295 293 294 295 296 297 297 296 295 293 295 298 296 299 297 297 295 296
321 320 320 320 321 322 324 324 324 322 322 322 322 317 305 300 315 318 315 310 309 307 304 305 303 300 299 295 298 296 292 294 294 295 295 295 292 293 298 296 296 296 294 295 295
320 320 319 320 321 322 323 324 323 320 321 320 322 311 297 306 309 313 310 306 308 307 306 305 304 301 298 298 296 291 289 286 293 294 294 293 289 296 297 295 295 293 292 293 293
320 319 319 320 320 322 322 323 322 320 321 322 311 304 297 309 303 304 304 304 304 304 303 306 302 297 296 290 287 288 283 286 290 295 293 291 288 295 297 295 294 291 291 292 292
319 319 319 320 321 321 322 321 318 318 317 318 314 298 300 298 302 303 302 305 301 300 299 298 294 290 289 286 281 284 284 286 287 292 291 290 290 293 296 294 292 290 289 291 291
319 319 320 320 322 323 318 310 306 305 306 303 300 298 301 302 304 301 303 301 301 297 290 293 288 285 288 290 288 287 286 286 288 293 289 290 289 293 294 294 290 289 290 290 290
319 320 320 321 322 322 314 306 304 303 300 306 306 306 303 303 299 300 302 296 295 291 293 290 286 292 292 291 290 288 286 286 289 292 289 289 289 292 292 291 290 289 289 289 289
319 320 320 322 321 316 309 306 307 304 298 302 304 304 302 304 300 299 300 296 293 290 291 288 292 295 293 291 289 288 286 286 288 289 288 286 286 289 289 291 291 291 290 289 288
320 320 320 321 314 312 307 308 308 304 292 296 298 298 299 301 296 298 299 296 292 291 290 289 294 293 290 290 291 287 291 290 288 284 281 286 278 285 288 287 288 288 287 287 287
319 320 320 320 311 310 310 308 307 302 282 296 295 302 298 297 295 293 297 295 291 292 291 290 289 288 289 290 292 289 290 288 286 283 281 281 279 283 287 285 285 285 286 286 286
319 319 320 318 313 312 309 309 307 294 283 291 293 292 291 292 292 294 293 294 293 290 289 290 290 291 291 290 290 291 287 286 283 282 277 281 281 282 284 286 285 286 286 286 286
318 319 318 319 312 310 310 308 293 287 295 289 289 291 290 289 289 290 289 287 286 283 283 287 288 289 290 287 288 287 284 279 276 274 276 283 280 284 286 288 288 285 284 285 285
318 318 317 318 312 311 311 301 286 291 292 294 291 290 289 290 289 289 287 285 288 287 285 284 283 288 290 288 287 285 285 278 270 273 276 282 278 282 285 287 287 286 286 286 285
318 314 314 313 314 314 306 291 292 293 297 293 292 289 289 291 290 287 286 286 290 289 286 283 284 288 288 289 291 286 283 286 280 270 273 280 281 285 286 284 285 285 285 285 285
308 307 307 314 315 311 300 293 296 299 297 297 290 293 287 291 290 287 287 289 289 291 292 288 283 289 288 290 288 287 289 281 280 270 270 277 279 280 282 282 284 284 284 285 285
305 301 306 314 311 302 293 293 297 299 298 294 293 291 290 289 291 286 287 290 290 290 293 291 287 284 287 286 285 284 283 283 283 279 271 269 276 284 285 285 284 284 285 284 284
302 295 306 311 296 295 292 295 297 295 298 296 294 291 289 290 288 287 287 290 293 293 289 290 287 277 284 286 287 286 284 284 277 275 277 277 278 288 288 286 285 285 285 284 284
298 295 305 307 291 290 294 295 296 294 294 294 292 293 293 291 287 288 288 291 293 292 289 290 281 271 277 281 286 283 285 285 284 282 273 274 277 287 285 284 285 285 284 284 283
296 289 295 299 297 293 291 292 292 296 294 295 293 294 291 288 290 286 287 290 292 292 296 293 283 279 276 276 282 280 282 283 283 275 275 278 279 283 284 283 283 284 285 284 282
294 291 293 287 291 292 294 292 291 289 294 295 291 291 290 286 286 286 287 288 290 294 291 290 283 282 282 283 283 281 281 281 280 279 275 278 277 282 282 281 281 282 283 285 282
289 288 290 290 294 292 292 289 289 291 291 288 288 290 291 288 287 284 287 287 286 288 287 286 277 279 274 281 281 278 280 279 280 280 279 280 278 284 282 279 279 280 281 282 281
291 291 290 287 288 290 288 288 289 290 290 291 291 288 287 289 288 286 287 286 287 285 283 283 277 271 269 275 273 267 273 277 278 278 277 274 277 275 277 279 279 279 278 278 279

GFSSW_sfc_thetae_033.txt.gz
Theta_e
321 321 322 323 323 323 324 324 324 324 324 325 325 324 324 324 321 314 301 312 316 330 322 307 305 304 304 302 302 296 288 285 288 288 291 295 295 295 295 295 295 297 299 298 302
320 321 321 322 323 323 324 324 324 324 325 325 324 324 324 323 311 306 319 330 332 330 306 302 300 302 298 299 300 293 286 288 292 293 292 295 293 294 294 296 293 294 298 299 302
320 320 321 321 322 323 324 324 324 325 325 324 324 323 323 320 302 301 326 329 332 324 307 305 304 301 296 298 298 294 290 293 295 296 295 295 294 295 293 291 295 295 297 298 299
322 321 321 321 321 322 323 324 325 325 325 323 323 323 322 311 293 306 326 328 329 312 306 303 300 296 293 292 297 294 297 296 298 298 296 294 296 296 294 298 297 298 297 296 294
321 321 321 321 321 322 323 324 325 325 324 322 322 323 312 299 301 317 327 324 311 308 303 301 298 297 292 293 294 293 294 296 298 297 295 296 295 294 295 298 298 296 295 295 294
321 320 320 320 321 322 323 324 325 325 322 322 322 321 302 294 312 318 314 308 307 304 301 301 299 299 295 293 293 294 294 295 296 296 295 294 292 293 296 295 296 295 294 293 293
321 320 320 320 321 322 323 324 324 324 321 322 321 316 303 300 314 316 312 307 307 305 302 303 302 299 297 293 296 294 292 293 293 293 293 294 291 292 296 296 294 292 291 292 292
321 320 320 320 320 321 323 324 324 323 321 321 322 309 297 305 310 313 309 306 307 306 305 303 302 300 296 296 294 289 288 285 291 293 293 292 289 295 296 294 292 290 289 291 291
320 319 319 319 320 321 322 323 321 321 320 321 310 302 298 309 303 304 304 303 303 302 302 305 301 295 295 289 286 286 282 284 289 293 292 290 288 294 295 294 290 288 289 290 290
319 319 319 319 320 321 322 321 318 317 316 317 313 299 300 297 301 302 301 304 300 299 298 297 293 289 288 286 282 283 283 285 285 290 290 288 289 293 294 292 288 288 288 288 288
319 319 319 319 320 322 318 310 305 304 306 301 299 298 299 301 303 300 302 301 300 295 289 292 287 285 288 289 287 285 284 284 286 292 288 288 288 291 292 288 287 287 287 288 288
319 319 319 320 321 322 313 306 304 304 299 306 304 301 301 301 297 298 301 295 294 290 291 289 285 290 290 289 288 286 284 285 288 290 288 288 288 289 289 288 288 287 286 287 287
319 319 319 320 321 316 310 308 307 304 298 302 304 303 302 302 299 299 299 295 292 289 289 287 291 293 291 289 288 286 285 285 287 287 286 285 285 286 287 288 288 288 287 287 286
319 318 318 320 316 313 307 309 307 305 292 295 298 299 299 302 296 298 299 296 291 290 289 288 292 292 289 288 290 285 290 289 287 284 282 285 278 283 285 285 286 285 284 284 285
319 318 319 321 312 308 311 308 306 302 282 295 295 301 297 298 294 293 297 295 290 290 290 289 289 288 288 289 291 289 289 287 285 282 280 281 279 281 284 283 283 284 284 284 284
318 318 319 319 315 313 308 308 306 292 282 290 293 291 292 292 291 293 293 294 294 290 288 290 290 289 290 289 290 290 286 285 282 281 276 281 281 280 283 284 283 284 284 285 284
318 318 318 320 313 313 310 307 293 287 294 289 288 290 289 288 288 290 289 287 286 284 284 286 288 288 289 287 287 286 284 278 276 275 277 281 279 282 284 285 286 284 283 284 284
318 318 318 320 317 311 310 300 286 292 291 292 290 289 287 288 287 288 286 285 287 285 283 283 282 288 289 288 286 284 285 279 271 272 276 281 278 283 284 285 286 285 284 284 283
317 317 317 320 315 312 305 292 290 293 295 290 290 286 286 289 288 286 285 285 288 288 286 283 284 287 287 288 290 284 282 285 279 268 272 279 281 284 284 283 283 283 283 283 283
315 314 313 315 314 309 301 295 296 300 298 293 288 290 286 289 287 285 284 288 289 289 289 287 282 287 287 288 287 286 288 281 279 270 269 276 278 280 281 281 283 283 283 284 284
307 303 307 314 312 304 294 296 298 301 298 295 292 291 289 290 289 284 287 289 290 289 292 289 286 283 287 285 284 284 282 283 283 278 271 268 276 283 284 284 283 284 285 285 285
304 297 307 312 298 298 297 297 298 296 298 296 294 292 291 290 289 287 287 289 292 293 289 291 286 279 283 285 285 285 284 284 280 276 276 276 279 286 286 286 285 285 285 285 284
298 296 305 306 293 291 294 295 296 294 295 295 294 294 293 290 287 288 287 290 291 292 289 290 282 272 278 281 284 283 283 284 282 279 271 273 276 286 285 285 285 285 285 284 284
296 290 295 299 297 294 292 292 293 297 295 296 294 294 291 289 289 286 287 290 291 291 295 294 283 281 281 279 282 280 281 282 280 276 275 279 280 283 284 284 284 284 284 285 284
296 292 294 287 291 293 295 293 291 290 295 296 292 293 291 287 287 286 287 288 290 293 290 289 278 280 280 281 281 280 280 281 279 280 278 281 281 282 284 284 283 283 282 283 282
290 289 291 292 294 292 293 291 291 293 292 290 291 293 292 288 288 285 287 287 285 286 286 285 279 279 274 281 282 280 281 281 282 282 280 280 280 285 282 281 279 280 281 283 283
292 292 289 290 292 291 290 292 291 295 293 293 293 291 290 292 291 288 289 288 289 286 283 282 280 277 277 276 275 272 275 280 281 280 280 276 281 275 278 279 279 279 279 280 281

GFSSW_sfc_thetae_036.txt.gz
Theta_e
320 320 321 322 322 323 324 324 325 325 325 325 325 325 324 324 321 312 298 310 313 329 322 305 304 303 303 301 299 294 287 284 287 288 290 293 293 294 294 293 295 295 299 296 302
319 320 321 322 322 323 324 324 324 325 325 325 324 324 324 323 309 303 317 327 331 328 304 300 299 300 297 299 298 291 285 286 290 294 294 293 293 294 296 294 292 293 297 298 298
320 320 321 321 321 322 323 324 325 325 325 324 323 323 323 319 301 299 326 328 331 322 305 304 302 300 294 298 297 292 288 290 293 294 294 293 293 294 294 292 292 293 296 295 294
322 321 321 321 321 322 323 324 325 325 325 322 322 323 322 308 293 304 325 328 330 309 305 302 300 295 291 293 296 292 295 294 297 296 294 293 295 294 294 294 296 294 294 293 293
321 321 321 321 321 322 323 324 325 325 325 322 323 323 310 297 301 315 325 322 310 306 301 299 297 295 290 292 293 293 293 295 296 296 294 294 293 292 294 294 294 295 294 292 291
321 320 320 320 321 321 322 324 325 325 324 322 322 321 300 294 311 315 310 306 306 303 300 300 298 298 294 292 291 292 293 294 295 294 293 293 291 291 292 293 293 293 291 290 290
321 320 320 320 321 321 322 323 324 324 323 322 321 314 300 300 313 314 309 305 305 303 300 301 300 297 295 292 295 293 290 291 291 291 292 293 289 291 293 293 291 290 289 290 290
320 320 320 320 320 321 322 323 323 323 321 321 321 307 298 304 311 311 307 305 305 304 303 302 301 299 295 295 292 288 287 285 289 291 291 292 288 293 292 293 289 288 287 289 289
319 319 319 319 319 320 321 323 319 321 320 321 308 301 298 308 303 304 303 303 302 301 301 304 299 294 294 288 285 285 283 282 288 291 290 289 288 293 293 291 288 287 287 288 288
319 319 319 319 319 320 322 322 318 316 315 315 310 298 300 297 300 302 301 303 299 298 297 296 292 289 287 286 283 283 282 283 284 288 289 287 289 292 291 289 286 285 286 286 286
319 319 319 319 319 321 317 309 305 303 304 301 300 299 298 300 301 298 301 300 298 294 289 290 287 285 288 288 286 285 284 284 285 290 287 288 288 290 288 286 285 285 285 285 285
319 319 319 319 320 322 314 306 305 303 299 305 304 300 301 300 296 297 301 295 292 289 290 287 284 289 289 289 287 285 283 283 287 289 288 287 288 286 287 286 286 285 285 284 284
319 319 319 319 320 319 312 308 306 304 297 301 303 302 303 301 298 297 299 294 290 288 288 286 290 291 290 287 286 284 283 284 286 286 286 284 284 284 286 286 286 286 286 285 284
319 318 318 319 316 315 310 314 306 305 292 294 298 300 299 301 296 298 298 295 290 289 289 287 291 291 287 287 288 284 289 288 286 285 281 284 279 282 284 284 284 284 283 283 283
319 318 318 320 311 309 311 307 305 302 281 295 295 300 298 299 295 293 296 294 289 290 290 289 288 287 288 288 290 288 289 287 285 282 280 280 278 281 283 282 282 282 283 283 283
318 318 318 318 315 311 308 308 305 291 282 291 292 291 293 292 292 292 293 294 294 290 288 290 290 290 290 288 290 289 286 285 282 280 276 281 281 280 281 284 283 283 283 284 283
318 317 316 320 312 310 309 306 292 287 293 288 288 289 290 288 289 290 289 287 287 284 284 286 287 288 289 286 286 286 283 278 276 275 276 279 278 282 285 285 285 284 283 283 283
317 317 316 319 317 311 310 299 287 292 291 290 289 288 287 288 287 288 287 286 288 285 284 283 282 288 289 287 285 284 284 279 271 272 275 280 278 283 284 284 285 286 284 283 282
317 316 315 318 315 313 303 292 290 292 295 289 289 284 284 287 286 286 285 285 288 287 285 282 283 286 286 287 288 284 281 284 278 268 272 279 281 284 283 282 282 282 282 282 282
314 313 312 319 315 312 299 294 295 298 296 291 289 288 283 286 285 283 283 286 287 289 289 287 282 286 286 288 287 286 287 281 279 271 268 277 278 280 282 281 281 281 281 282 283
313 306 311 320 314 305 294 294 298 301 299 294 293 289 286 288 287 283 285 287 290 288 291 288 286 283 286 285 284 284 282 282 283 279 272 269 276 282 284 283 282 283 283 284 284
305 297 307 318 301 300 296 299 300 300 298 296 295 293 289 290 286 284 285 288 292 293 288 290 286 279 283 284 284 284 284 284 281 276 274 275 279 285 284 285 285 284 285 285 285
300 297 306 306 295 295 297 299 299 295 297 295 293 294 293 291 289 288 288 291 292 293 291 291 283 274 278 282 283 282 283 283 282 279 273 273 278 285 284 283 284 284 284 284 284
298 292 296 299 298 296 294 293 293 297 296 297 295 294 291 290 291 288 287 290 292 292 296 294 284 281 280 280 283 281 282 283 281 274 276 280 282 281 283 284 283 284 284 284 284
297 293 295 289 292 294 295 293 293 291 295 297 293 294 293 289 290 288 288 288 290 294 290 290 280 281 281 281 282 282 282 281 280 283 280 283 281 282 286 285 285 285 284 283 283
291 291 292 291 295 293 293 290 290 292 293 291 291 293 294 290 291 285 288 287 287 288 287 286 279 281 277 282 281 280 281 280 282 281 279 279 280 284 284 283 283 283 282 281 282
292 292 290 291 291 291 291 291 291 294 294 295 294 293 291 294 293 291 289 291 290 288 285 284 280 278 278 275 277 277 279 280 280 281 282 279 284 279 279 281 281 280 280 281 282

GFSSW_sfc_thetae_039.txt.gz
Theta_e
320 320 321 322 322 323 324 324 325 325 326 326 325 324 324 324 321 311 298 310 313 328 321 305 305 304 305 303 301 297 289 287 290 290 293 297 297 299 299 299 299 300 300 298 299
319 320 321 321 322 323 324 324 325 325 326 324 324 324 323 323 308 301 318 326 331 328 304 302 301 301 299 301 300 293 288 289 292 293 294 296 296 297 298 297 298 299 298 298 298
320 320 320 321 321 322 323 324 325 325 325 323 323 323 323 318 300 299 325 327 331 321 306 305 303 301 297 299 298 295 290 292 295 296 297 296 296 298 297 295 298 299 295 296 296
321 320 320 320 321 322 323 324 325 325 325 323 324 324 322 307 293 304 326 328 329 309 305 303 301 296 294 293 298 293 295 295 298 298 297 296 297 296 296 298 296 295 295 294 293
321 320 320 320 320 321 322 324 325 325 325 323 324 323 308 298 301 315 324 324 311 305 302 300 297 297 292 294 295 295 295 296 297 297 296 295 295 295 295 293 294 294 293 292 292
320 320 320 320 320 321 322 323 325 325 324 322 323 321 299 295 311 313 309 306 306 303 301 301 298 299 295 294 293 294 294 294 295 295 295 295 293 294 294 293 293 292 291 291 291
320 320 320 320 320 321 321 323 324 324 323 322 321 314 298 301 313 312 308 304 305 303 301 301 301 299 297 294 296 294 292 292 292 293 293 294 291 292 294 293 291 290 290 290 290
320 319 319 320 320 320 321 323 323 322 322 322 321 305 299 303 312 311 306 304 304 304 303 303 302 299 297 296 292 290 289 288 291 293 293 294 291 293 293 293 290 289 288 289 289
319 319 319 320 319 319 320 322 321 320 321 321 307 300 298 308 304 305 303 303 301 301 301 303 300 295 295 290 287 287 286 285 288 293 292 292 291 292 293 291 288 288 288 288 288
319 319 319 319 319 319 321 323 319 315 315 314 308 298 300 297 300 301 301 302 299 299 298 297 292 289 288 288 284 285 284 284 285 290 291 289 291 291 289 290 287 287 287 287 287
319 319 319 319 319 320 318 310 305 302 303 301 300 299 299 299 301 299 301 300 297 295 290 291 288 287 288 289 288 287 285 286 287 290 290 289 289 291 288 287 286 286 286 286 286
319 319 320 319 320 321 316 306 304 303 298 305 304 300 300 300 295 297 301 295 293 289 290 288 285 290 290 289 288 285 284 284 287 289 289 288 288 289 288 287 287 286 286 286 285
319 319 319 319 319 319 314 310 307 304 297 301 303 302 301 300 297 296 299 295 290 288 287 286 289 290 289 286 286 284 284 284 286 287 287 286 286 286 286 287 287 287 286 286 285
319 318 318 318 315 315 312 316 307 305 291 294 298 301 299 300 295 298 298 296 290 289 288 287 290 290 287 286 287 283 287 287 286 285 282 285 280 285 285 284 285 285 284 285 285
319 318 318 319 311 310 311 309 305 303 279 293 295 299 299 298 295 293 297 295 289 290 291 290 288 288 287 289 289 287 288 287 286 284 282 282 280 283 284 283 283 284 284 284 285
318 318 318 317 315 311 307 306 305 291 282 290 291 291 294 292 291 292 293 295 293 290 288 290 290 290 291 289 290 288 286 285 283 281 277 282 282 281 283 285 284 284 284 284 284
318 317 316 317 310 309 308 305 292 286 292 287 288 290 291 288 288 290 289 287 287 284 284 286 287 288 289 286 287 286 285 279 277 277 278 280 279 283 286 286 286 285 284 284 284
318 317 316 317 315 310 309 300 286 290 290 289 288 288 288 288 287 288 287 285 288 286 284 283 282 287 289 288 286 284 285 280 274 274 276 280 278 284 285 285 285 286 286 285 284
317 316 315 316 314 313 303 291 289 291 294 288 287 283 283 286 286 285 285 285 289 288 288 284 284 287 287 288 289 285 282 285 278 269 274 280 282 285 284 283 283 283 284 284 283
314 312 312 318 315 311 298 293 293 297 293 291 289 288 283 284 284 283 283 286 288 290 291 288 283 286 286 288 287 286 288 282 280 273 271 278 279 281 283 283 282 282 283 284 284
312 305 313 318 314 305 292 293 296 299 297 291 291 289 286 285 287 282 284 286 289 289 292 289 287 283 286 284 284 284 283 282 283 280 274 272 277 283 285 284 282 283 284 284 284
309 299 308 317 299 301 295 295 299 299 299 296 293 293 288 289 287 284 284 287 290 290 288 290 286 280 282 285 285 285 284 284 280 277 276 276 279 285 285 285 285 284 285 285 285
301 299 306 311 294 295 299 298 298 297 298 297 294 294 292 292 288 286 285 290 291 291 289 290 285 277 280 282 283 283 284 284 283 281 274 276 278 285 284 283 284 284 284 285 285
299 293 297 299 298 297 295 296 295 298 298 298 296 295 292 290 293 289 287 289 290 291 296 295 285 284 284 283 284 281 282 283 284 276 279 280 281 283 284 284 284 284 285 284 285
299 294 295 289 294 296 297 295 293 292 296 298 293 294 293 291 291 291 289 288 290 294 292 291 286 283 281 283 283 283 282 282 282 284 281 284 283 283 287 287 285 286 284 284 284
293 292 293 292 296 295 295 292 291 294 293 292 293 295 295 293 294 291 291 288 288 288 289 288 285 283 281 282 282 280 282 283 283 284 285 282 282 286 287 285 283 284 284 283 283
292 293 294 292 291 292 292 292 292 295 295 296 295 292 291 293 293 292 291 291 291 289 286 286 282 282 281 278 279 279 280 281 280 280 284 279 285 280 282 283 284 284 284 285 283

GFSSW_sfc_thetae_042.txt.gz
Theta_e
320 320 322 322 322 323 324 325 325 326 326 326 325 325 324 324 322 317 307 314 318 328 322 313 313 312 313 310 308 305 301 297 298 298 300 304 303 305 305 305 305 305 304 302 305
319 320 320 321 322 323 324 325 325 326 326 325 324 324 324 323 314 309 321 326 331 328 311 309 308 309 308 308 308 304 300 297 301 302 302 303 303 304 303 304 303 303 303 304 305
320 320 320 320 321 322 323 324 325 326 326 325 324 325 324 321 309 306 326 327 331 322 312 312 310 307 304 307 305 302 299 299 301 303 304 303 303 304 303 301 303 303 302 302 303
321 320 320 320 320 321 322 324 325 325 325 325 324 324 322 314 301 310 327 328 329 314 312 310 308 304 302 300 305 300 301 301 303 304 302 302 304 302 303 302 301 302 301 301 301
321 320 320 320 320 321 322 323 325 325 325 325 324 323 314 308 308 319 324 327 317 312 310 307 304 304 300 301 303 302 302 302 304 303 303 302 302 301 301 300 300 300 299 299 299
321 320 320 320 320 320 321 323 324 325 325 324 323 321 309 305 316 318 313 311 312 311 308 308 305 306 302 301 301 301 301 301 302 301 301 300 300 300 297 299 298 298 298 298 298
321 320 320 320 321 321 321 322 324 324 323 322 322 316 308 309 319 317 311 310 311 310 307 308 308 305 305 300 302 300 298 300 300 299 299 301 296 297 299 299 297 296 296 296 296
320 319 319 320 320 320 321 322 323 321 321 322 321 310 307 308 321 314 313 310 310 310 309 309 309 306 303 302 300 298 297 296 298 299 298 299 297 298 299 299 297 296 296 295 294
319 319 319 319 320 319 320 321 322 320 321 321 314 309 305 312 311 313 312 308 308 308 308 307 308 303 302 299 297 296 296 294 296 299 298 298 297 297 298 298 297 296 295 294 295
319 319 319 319 320 319 320 322 321 317 316 316 312 306 306 302 305 307 309 309 306 306 305 305 303 300 298 297 293 295 293 293 295 297 297 297 298 297 296 297 297 295 294 294 293
319 319 319 319 320 320 321 318 311 309 311 307 307 305 303 303 306 305 307 305 305 303 299 299 297 295 298 299 298 296 295 295 295 296 296 298 298 299 296 295 295 294 294 293 292
319 319 319 320 320 320 320 314 310 309 304 309 308 305 304 304 299 302 306 302 300 296 297 295 294 300 297 296 295 294 294 294 295 295 295 296 295 299 295 296 296 294 293 293 292
319 318 319 319 319 319 316 315 312 311 305 306 307 307 304 303 301 300 303 300 297 294 295 296 297 297 295 293 292 293 293 294 293 293 294 293 294 296 293 292 293 293 294 293 293
319 318 318 319 315 317 313 319 314 311 298 299 301 306 302 304 299 302 304 301 296 295 294 295 296 293 293 293 294 291 295 293 292 291 290 293 289 294 294 291 290 291 291 292 292
319 318 318 319 315 311 314 320 318 309 285 299 299 304 302 303 300 297 301 300 295 294 295 295 292 293 293 294 294 294 294 293 292 291 290 290 289 294 289 289 290 291 291 292 293
318 318 318 316 315 316 313 313 310 295 285 294 296 295 297 296 295 296 297 300 299 295 295 296 296 296 296 293 294 293 291 290 290 290 285 291 289 292 290 292 293 291 291 291 291
318 318 317 318 310 314 310 308 295 289 297 291 292 295 296 292 292 294 293 293 294 290 291 293 293 294 294 292 292 293 292 286 284 284 284 286 286 293 295 292 293 291 291 291 290
318 317 316 318 318 310 309 300 287 295 295 293 292 294 293 292 292 291 292 292 295 294 291 290 288 292 294 296 292 290 293 288 281 281 285 284 284 290 291 291 291 294 292 291 290
317 316 315 317 317 311 303 291 291 295 299 292 291 290 292 291 292 291 292 293 295 294 292 289 289 292 291 292 296 289 287 292 283 277 284 287 288 292 288 288 289 290 290 289 289
312 312 312 319 315 308 299 292 295 301 297 296 292 294 290 289 290 290 290 294 293 295 297 294 289 289 290 293 292 292 294 286 287 281 281 284 285 290 287 289 288 287 288 289 290
308 305 313 318 314 303 292 293 298 302 300 296 295 294 293 290 292 289 292 292 296 293 297 293 291 287 290 288 289 288 287 288 289 287 285 283 286 293 293 292 289 290 290 291 290
304 297 314 316 300 300 294 297 299 300 300 299 298 298 292 292 290 290 290 295 295 295 291 295 290 286 287 290 290 292 291 290 287 282 283 284 288 290 291 292 292 291 291 292 291
300 301 309 312 294 294 298 297 299 298 300 299 297 298 297 293 289 291 292 294 295 295 293 294 289 286 286 287 288 287 288 290 291 288 285 285 288 290 289 290 291 291 291 291 291
300 290 298 300 303 298 293 294 294 300 299 300 300 297 294 294 294 294 291 292 294 295 297 297 291 289 287 290 290 285 288 288 289 286 287 286 290 288 289 290 290 290 291 291 290
300 294 298 291 295 298 297 295 294 293 298 299 296 297 296 291 293 293 295 291 292 294 294 294 288 290 292 291 290 289 289 288 287 289 287 291 288 290 292 291 292 293 292 291 290
296 294 294 295 296 296 296 294 293 296 295 294 295 296 297 293 295 293 295 293 293 291 291 291 288 290 287 289 287 286 289 289 288 289 290 291 289 295 294 294 291 291 290 289 290
294 294 295 293 293 293 293 294 292 296 296 297 296 296 293 296 296 293 293 294 293 291 289 289 289 285 284 289 284 280 285 288 289 291 291 287 291 290 289 290 291 292 291 291 291

GFSSW_sfc_thetae_045.txt.gz
Theta_e
320 320 321 322 322 323 324 325 325 326 326 327 325 325 325 324 324 320 311 316 320 328 322 315 315 314 315 311 311 309 301 299 300 301 303 306 304 307 309 307 307 307 307 306 308
319 319 320 321 321 322 324 325 325 326 326 326 325 325 325 324 318 312 320 328 330 330 313 311 309 311 309 309 310 306 301 300 304 305 304 306 305 306 305 305 304 305 306 307 309
320 320 320 320 320 321 323 324 325 325 326 326 325 325 324 322 313 310 324 328 331 322 314 313 312 309 305 308 307 305 300 302 303 305 307 305 304 307 305 303 306 305 305 306 307
321 321 320 320 320 321 322 323 324 325 325 326 325 324 322 318 302 313 326 328 330 317 314 312 309 305 304 303 306 302 303 303 304 306 305 304 306 304 305 304 305 305 305 305 304
322 321 320 320 320 321 322 323 324 325 325 325 325 323 318 311 311 320 325 326 317 314 312 309 305 305 302 303 304 303 303 304 306 305 305 305 304 304 304 304 304 303 303 303 303
321 320 320 320 320 321 321 322 323 325 325 324 324 321 314 306 318 319 315 315 314 313 311 310 306 307 304 303 302 304 304 303 305 304 304 301 303 302 304 304 302 302 301 302 301
321 320 320 320 320 321 321 321 323 324 322 322 323 318 311 311 320 317 313 312 313 312 309 311 310 306 306 302 305 303 300 303 303 303 302 303 300 299 303 302 301 301 301 300 300
321 320 320 320 320 321 321 321 323 323 321 321 322 315 309 312 321 316 315 312 313 313 312 312 312 308 306 305 302 300 301 298 303 302 301 301 299 302 302 301 301 301 301 299 298
319 319 319 319 320 320 320 321 322 321 320 321 317 313 307 315 312 317 315 310 310 311 310 310 310 306 304 300 299 300 296 299 300 302 301 300 300 301 302 301 301 301 300 299 298
319 319 319 319 320 320 319 321 323 318 318 317 314 308 309 305 309 313 313 312 308 308 306 306 305 301 301 300 293 297 297 299 298 300 299 299 299 300 300 301 301 301 300 299 298
319 319 319 319 320 320 319 320 312 311 313 308 309 308 306 305 309 309 311 308 308 306 300 303 299 296 300 301 301 300 298 298 301 300 298 299 299 302 301 300 301 301 300 298 297
319 319 319 319 320 320 320 312 312 311 305 312 312 310 307 307 301 305 309 304 302 299 302 298 295 302 304 302 300 298 297 297 301 298 297 298 298 302 303 300 301 301 300 298 296
318 318 319 319 320 318 315 314 316 314 305 307 311 309 307 305 304 303 306 304 300 299 298 297 300 301 299 297 296 297 296 297 297 296 297 296 295 298 302 302 300 300 300 298 296
318 318 318 319 314 316 311 318 319 314 298 299 303 308 306 306 302 307 307 303 298 297 299 298 302 297 297 296 297 294 300 297 296 294 291 297 289 298 301 297 296 296 297 296 296
319 318 318 319 315 311 315 320 321 314 285 302 303 308 307 304 302 298 305 301 298 297 297 297 295 295 294 296 298 296 298 296 296 294 294 295 289 295 299 296 295 295 295 296 296
318 318 318 316 316 318 320 320 317 295 285 296 300 298 298 302 298 298 298 302 302 299 297 298 299 298 298 296 298 298 295 294 294 293 287 293 292 293 296 295 297 295 294 295 294
318 317 316 319 310 314 316 313 294 288 299 294 295 298 298 296 294 296 294 293 293 290 292 295 296 299 298 294 295 296 293 288 286 285 285 292 292 294 300 296 298 294 294 294 294
316 317 316 318 319 312 312 301 286 293 295 298 297 297 295 295 294 293 292 292 296 297 296 292 291 297 297 298 296 292 294 289 283 285 287 286 286 293 298 297 295 297 295 295 293
314 314 315 317 318 314 304 289 290 294 299 297 296 293 294 294 294 292 293 294 298 298 293 293 294 297 297 299 300 293 290 297 288 283 283 289 291 296 292 291 293 295 294 292 292
310 309 310 318 317 310 299 291 295 301 301 301 293 296 293 293 292 292 294 299 298 299 301 298 292 293 293 294 295 294 297 287 288 282 282 289 290 291 289 290 291 292 292 292 292
308 301 313 319 313 303 292 293 298 304 304 300 297 296 296 296 294 292 296 299 300 298 299 298 295 290 291 290 291 289 289 291 292 290 286 285 288 296 296 294 291 292 293 292 292
305 295 315 317 298 300 294 297 299 301 304 302 301 299 298 298 294 294 294 298 300 299 293 298 295 292 290 295 295 296 293 292 287 285 287 286 289 292 297 298 295 293 293 294 293
300 299 311 312 293 294 297 297 299 299 300 300 299 301 301 297 292 296 297 302 300 297 296 296 291 286 289 288 290 288 291 293 292 289 286 286 289 293 293 294 295 294 294 294 293
300 291 299 301 301 298 294 294 293 301 299 301 300 300 297 297 298 296 297 295 298 298 299 299 292 290 289 292 293 287 289 290 290 286 287 289 291 289 291 292 293 295 295 294 293
299 291 297 291 293 295 298 295 293 293 298 300 297 298 296 292 294 295 297 292 293 296 296 296 288 292 293 295 295 291 290 289 287 289 287 291 292 296 293 294 295 295 295 293 292
293 293 296 296 297 295 295 293 293 295 296 294 294 297 298 294 295 294 297 296 293 292 292 294 287 291 288 293 293 290 292 291 290 290 291 292 293 300 300 297 296 295 294 292 292
298 295 294 294 293 292 289 292 294 297 298 299 297 296 295 297 301 299 297 299 298 294 289 288 287 285 284 290 289 282 287 290 292 292 292 288 293 294 294 293 293 293 294 293 293

GFSSW_sfc_thetae_048.txt.gz
Theta_e
320 320 321 322 322 324 325 325 326 326 327 327 327 326 326 325 324 321 313 317 321 327 322 314 313 313 313 310 310 306 296 293 295 296 298 302 299 301 301 300 301 303 300 301 304
320 320 321 321 322 323 324 325 325 326 326 326 327 326 326 324 319 314 319 327 329 329 314 310 309 310 305 307 307 301 296 297 300 299 299 302 300 301 298 300 299 300 303 305 305
320 320 321 321 321 322 323 324 325 326 326 326 327 326 324 321 314 311 326 328 330 323 314 312 311 308 304 304 303 301 296 298 300 303 303 302 299 301 298 297 299 300 300 302 303
321 321 321 321 321 321 322 323 325 326 326 326 326 325 323 319 302 316 326 328 329 315 313 311 308 303 301 300 304 297 301 300 304 303 302 300 302 299 299 297 302 301 302 302 301
322 321 321 321 321 321 322 323 324 325 326 325 325 323 318 311 311 319 324 325 318 314 311 309 304 304 300 300 302 299 300 301 303 302 301 303 299 299 298 300 301 301 302 300 299
321 321 320 320 321 321 321 322 323 324 325 324 324 322 315 305 318 318 316 317 314 312 310 309 305 305 302 300 299 301 301 301 302 302 302 299 299 298 299 300 299 300 299 298 298
321 320 320 320 321 321 321 321 322 324 323 323 324 318 311 310 319 315 313 312 313 312 310 310 308 305 304 301 303 301 296 299 300 300 299 300 296 296 300 300 298 298 296 297 297
320 320 320 320 320 321 321 321 322 323 322 323 324 317 307 315 319 316 314 311 312 312 311 311 310 307 304 303 300 296 296 292 299 300 298 297 292 300 298 297 296 297 295 297 296
319 319 319 319 319 320 320 321 320 323 322 322 316 313 306 316 312 316 314 310 310 310 309 310 310 303 302 295 293 295 290 293 295 299 297 295 294 297 298 297 296 296 296 296 295
318 318 319 319 319 319 320 320 321 322 319 317 315 306 307 305 310 313 312 311 308 307 305 305 301 296 296 293 288 291 291 294 293 296 296 293 293 296 297 297 296 296 296 295 295
318 318 319 319 319 320 318 317 312 309 312 307 307 307 306 306 311 309 310 308 307 304 297 300 294 292 295 297 297 296 294 292 295 296 294 294 294 297 296 295 295 296 295 294 294
318 318 319 319 320 320 317 311 311 310 303 311 310 310 308 307 301 306 308 302 301 296 299 295 291 298 301 300 297 295 293 292 296 296 293 293 293 297 297 296 297 297 295 294 292
319 318 319 319 319 318 313 312 315 313 303 303 310 309 307 304 302 302 304 302 298 296 297 294 297 300 298 296 295 294 292 292 293 294 292 290 289 293 298 299 298 298 298 295 292
319 318 318 318 314 314 310 316 319 314 295 295 303 308 306 305 300 306 306 302 298 296 297 296 300 296 295 294 295 291 296 296 294 290 285 291 283 291 295 296 296 296 294 293 292
319 318 318 318 314 310 313 317 318 313 281 299 301 310 306 302 301 299 303 300 295 295 297 294 294 293 293 294 297 293 295 293 292 289 287 288 286 290 296 295 294 294 293 292 292
318 318 318 316 315 316 318 318 314 293 281 296 299 298 298 301 297 298 297 300 300 296 296 295 296 296 296 295 295 296 293 291 290 289 281 288 288 288 293 294 295 294 293 293 292
316 317 316 318 309 318 318 311 290 284 296 292 294 297 297 296 294 295 293 291 291 288 289 292 293 295 296 291 294 293 290 283 280 279 280 287 286 290 294 293 296 294 294 292 292
315 315 316 317 318 317 313 299 282 291 292 298 297 297 294 296 294 293 291 289 293 293 291 287 286 293 295 295 292 290 291 284 277 279 280 282 281 288 291 292 293 295 294 292 291
313 313 313 316 319 315 304 288 288 293 297 295 296 292 292 294 293 291 290 291 294 294 290 290 290 295 295 296 296 290 287 294 285 276 277 284 287 292 290 289 290 291 292 291 291
308 308 308 318 318 310 299 290 291 298 300 298 291 295 290 292 290 290 290 295 295 296 298 295 289 292 290 294 293 291 293 284 284 274 275 282 284 287 286 288 288 290 290 291 291
306 301 310 318 315 303 292 292 295 301 301 296 294 293 294 293 291 289 292 295 298 296 298 296 292 286 289 287 289 288 286 288 289 285 278 278 284 291 293 291 289 291 292 291 291
303 294 311 316 300 299 294 297 299 299 302 300 300 297 295 296 293 291 291 296 300 299 293 296 293 283 285 291 292 293 290 290 285 282 284 282 286 289 291 293 292 292 292 292 291
296 299 309 312 293 295 297 297 299 297 298 298 298 299 300 296 292 294 295 299 299 297 294 296 289 282 285 286 289 287 289 292 292 286 285 281 285 290 290 290 291 291 291 291 290
296 291 298 301 300 295 294 293 294 300 298 300 299 300 297 295 298 293 294 295 298 298 299 299 291 288 286 288 289 284 286 289 289 284 283 286 287 286 288 288 290 291 291 291 290
295 292 296 290 292 294 294 294 292 292 298 299 296 297 296 292 294 294 296 292 293 296 296 296 289 290 292 293 292 287 286 287 286 288 285 288 289 293 294 290 291 293 291 291 290
292 291 295 293 295 294 293 291 289 293 295 294 294 297 297 294 295 292 296 295 292 291 292 294 288 290 288 290 291 289 290 287 288 289 289 290 289 295 297 293 290 291 291 290 290
298 296 293 290 291 291 291 292 291 294 296 298 297 296 295 297 301 301 299 299 296 291 289 289 287 285 284 287 288 284 289 291 291 290 289 285 291 292 292 290 290 290 291 291 291

GFSSW_sfc_thetae_051.txt.gz
Theta_e
321 321 322 322 323 323 324 325 326 326 327 327 327 327 326 326 324 319 309 315 318 326 322 309 307 306 306 304 303 299 290 287 290 292 294 297 296 298 299 299 298 299 298 300 303
320 320 321 321 322 322 323 324 325 325 326 327 326 327 326 324 316 311 321 327 329 326 310 305 303 303 299 300 301 296 290 291 294 294 295 298 297 298 296 296 296 297 300 302 302
320 320 321 321 321 322 323 323 324 325 326 326 326 326 325 321 310 308 326 328 328 322 311 308 305 302 297 298 297 295 291 294 296 299 299 298 297 298 297 293 296 297 298 300 300
321 321 321 320 321 321 322 323 324 324 325 326 325 325 322 315 296 313 325 327 328 313 309 306 303 297 295 295 299 291 297 297 301 300 299 297 299 296 296 295 298 299 300 299 298
321 321 321 320 320 321 322 322 323 324 325 325 324 323 314 305 306 317 324 323 315 310 307 304 299 298 294 296 298 294 296 298 300 299 298 300 297 296 295 297 298 299 299 297 297
321 320 320 320 320 321 321 322 322 323 324 324 324 323 310 299 315 314 315 313 312 307 305 304 300 301 297 296 295 297 298 297 299 299 299 297 295 296 295 296 297 298 296 295 296
319 320 320 320 320 321 321 321 321 322 323 323 324 318 306 305 313 310 311 308 309 308 305 306 304 300 299 296 299 298 293 295 296 298 297 297 293 294 296 296 296 296 295 295 295
319 318 319 319 320 320 321 321 321 321 323 323 323 312 301 312 313 311 309 307 308 308 308 307 305 303 300 299 297 292 291 289 296 297 296 295 289 296 296 295 294 294 292 294 295
319 318 319 319 319 319 320 321 320 321 323 323 311 308 301 314 310 313 308 306 306 306 305 308 305 299 297 292 289 290 286 289 293 296 295 293 290 294 295 295 293 292 292 293 292
318 318 318 319 319 319 320 321 320 319 320 317 314 299 304 302 308 309 307 307 304 303 301 300 297 292 292 289 284 287 287 290 290 294 293 291 291 293 295 294 293 292 292 292 292
319 318 318 319 319 320 317 313 307 304 308 299 302 301 302 304 308 306 307 305 304 299 293 296 290 288 291 292 293 291 289 288 292 295 292 291 291 293 294 293 292 292 292 292 292
319 319 319 319 319 320 313 307 307 306 299 308 307 306 304 304 299 304 306 299 298 293 295 292 289 295 296 295 293 292 289 289 292 294 292 290 291 294 293 294 295 295 293 293 290
319 319 319 319 319 316 310 310 312 309 298 302 307 306 302 303 299 300 302 299 295 293 293 290 294 298 296 294 293 291 289 288 290 291 290 288 288 290 294 295 294 296 296 294 291
320 318 318 318 313 313 308 314 315 311 288 292 298 305 302 302 297 305 304 300 295 293 294 293 297 296 294 293 294 289 294 293 292 288 284 289 283 289 291 293 293 295 293 293 290
317 319 318 318 312 308 312 316 314 308 275 292 298 307 302 300 298 297 301 298 293 294 295 291 293 292 292 293 295 291 293 291 290 287 285 285 282 287 293 293 296 295 294 292 291
316 317 318 316 315 313 316 317 313 292 278 291 298 296 296 298 295 297 297 299 298 294 293 292 294 295 294 293 295 294 291 290 288 286 280 286 285 286 291 294 296 293 291 290 290
315 316 316 318 309 317 317 310 287 282 294 290 292 295 295 294 292 293 291 291 291 287 287 290 291 293 295 291 292 292 288 281 279 278 280 286 284 290 292 294 295 294 291 290 290
313 314 314 317 318 317 313 294 282 288 291 295 295 294 291 293 291 291 289 287 291 290 288 287 283 291 294 293 290 289 288 282 276 277 279 283 281 288 293 293 292 294 294 291 289
312 310 311 316 318 316 305 285 287 290 293 293 293 290 289 292 290 289 287 287 291 292 289 286 287 292 292 295 295 287 286 292 284 273 276 283 286 291 290 290 289 290 291 289 289
302 307 306 317 318 311 299 288 291 297 298 297 291 292 288 289 288 287 287 291 292 295 295 293 287 289 289 293 291 290 292 284 283 274 273 280 282 286 287 289 288 288 288 288 288
302 297 306 316 315 303 292 294 294 298 299 296 293 292 291 289 289 286 288 292 295 293 296 294 293 285 287 287 288 288 286 287 287 283 276 275 284 290 292 292 288 290 290 289 289
299 291 305 315 298 299 294 297 299 298 299 299 299 296 293 293 290 287 288 292 296 296 291 295 292 281 285 288 289 289 289 287 283 280 281 280 286 289 289 291 291 290 291 291 291
294 292 305 309 290 291 297 296 299 297 297 297 297 298 298 295 290 291 290 296 297 295 292 295 289 282 282 285 287 287 289 292 290 284 284 279 286 288 289 289 289 289 289 290 290
294 287 294 298 298 295 293 294 294 300 299 299 298 299 296 295 297 293 292 295 296 297 298 299 290 288 286 287 288 284 286 289 290 284 284 286 289 286 287 289 288 288 289 289 289
293 288 290 288 290 294 294 292 290 292 299 300 296 296 295 292 294 293 295 292 294 296 296 296 288 288 291 290 289 286 286 288 287 289 286 290 289 293 292 290 291 289 288 288 288
289 286 289 288 292 291 292 290 289 290 294 294 294 297 296 293 295 292 295 295 292 291 294 294 287 289 288 289 289 288 287 287 288 289 290 290 290 294 296 294 289 290 290 289 289
296 292 292 289 287 286 288 291 290 293 294 295 294 294 294 297 300 301 301 299 297 291 289 290 288 286 285 287 287 284 289 290 291 290 289 285 291 291 292 292 289 289 290 290 290

GFSSW_sfc_thetae_054.txt.gz
Theta_e
321 321 322 322 322 323 324 324 325 325 326 326 327 327 327 326 324 317 306 313 316 326 322 307 305 304 304 302 301 295 288 286 288 290 292 295 294 296 297 297 296 297 296 298 303
320 321 321 321 322 322 323 323 324 324 325 326 326 326 326 324 315 309 320 326 326 324 307 303 301 301 298 298 299 294 287 290 293 293 293 296 295 297 295 294 294 295 298 300 302
320 320 321 321 321 322 322 322 323 324 324 326 325 325 324 320 307 305 325 325 327 321 310 306 303 300 296 296 295 292 290 293 294 297 297 296 294 296 294 292 295 295 298 299 299
320 320 320 320 320 321 322 322 323 323 324 325 325 324 323 313 294 310 325 325 325 313 307 303 300 295 293 293 297 289 294 294 298 298 297 296 296 295 295 295 298 298 298 297 297
321 320 320 320 320 320 321 322 322 323 323 325 324 323 312 302 304 314 323 320 313 307 304 302 297 296 293 294 295 292 294 296 298 298 296 298 295 295 294 294 297 298 298 297 296
320 320 319 319 319 320 321 321 321 322 323 324 324 323 308 296 312 313 313 311 309 305 303 301 299 299 296 294 293 295 296 296 297 297 297 296 294 295 294 295 296 297 296 295 296
319 319 319 319 319 320 320 321 321 322 322 323 324 317 304 302 312 309 309 306 307 306 303 303 303 299 298 295 297 296 291 293 295 297 296 296 292 294 295 294 295 295 294 294 295
319 318 318 319 319 319 320 320 321 321 322 324 324 310 300 310 310 307 307 305 306 306 305 305 304 301 298 298 295 291 290 287 293 295 295 294 288 295 294 294 293 293 291 293 294
319 318 318 318 319 319 319 320 320 321 322 324 310 305 298 313 309 311 306 304 304 304 304 307 302 297 295 290 288 288 285 286 291 295 293 292 290 294 293 293 292 291 291 292 292
319 318 318 318 318 318 319 320 320 319 318 317 312 298 301 301 307 308 306 306 302 300 299 299 295 291 290 288 284 285 285 287 288 292 291 289 290 292 293 293 293 291 291 291 291
319 319 319 318 319 319 316 310 304 301 306 296 299 295 301 303 306 305 306 303 302 298 292 294 290 287 290 290 291 289 287 287 290 294 291 290 290 293 293 291 291 290 291 291 292
320 319 319 319 319 319 312 304 304 305 297 306 306 305 303 304 298 302 305 298 296 292 293 291 288 294 294 293 291 289 287 287 290 293 291 290 289 292 292 292 294 294 293 293 290
320 319 319 319 319 316 309 308 310 307 297 299 305 304 303 302 299 299 302 298 294 292 292 289 293 296 294 292 290 289 287 287 289 290 289 287 286 289 293 293 293 296 296 295 293
317 319 319 318 313 313 309 314 313 310 285 288 298 302 300 302 297 303 303 299 293 292 292 291 295 294 292 291 292 287 292 292 290 287 283 288 282 287 290 292 292 295 293 294 293
316 316 318 318 312 308 312 315 314 305 277 292 296 304 301 298 296 297 300 297 292 293 293 291 292 292 291 292 294 290 292 290 289 285 283 285 282 285 289 290 293 296 294 293 292
315 315 318 316 315 313 315 316 312 290 278 290 297 295 295 296 294 295 296 297 296 293 292 291 293 294 294 293 294 293 290 289 286 285 279 286 284 285 288 292 294 297 296 293 291
313 314 315 318 309 317 317 306 286 282 292 289 291 294 294 292 291 292 291 291 290 286 287 289 291 292 293 291 292 291 289 280 279 277 280 284 282 289 291 294 294 297 294 290 290
312 312 313 316 317 317 311 294 281 287 289 294 293 292 291 293 291 290 289 289 292 290 287 286 284 291 293 292 290 289 288 281 274 276 278 282 280 287 292 295 294 292 291 289 288
311 306 309 312 318 316 303 286 288 289 292 292 293 290 288 291 290 289 287 288 291 292 288 285 285 290 291 292 294 287 285 290 284 271 275 282 285 290 291 291 291 291 288 286 287
300 300 304 313 316 310 299 292 291 296 296 296 291 292 286 290 288 287 286 290 290 294 293 291 284 287 288 292 290 289 291 283 282 273 272 280 281 286 287 289 291 290 288 287 287
300 295 303 314 314 303 292 293 295 297 298 295 294 293 291 289 289 286 287 290 293 292 295 292 289 284 287 287 287 286 285 286 286 282 276 274 282 288 292 292 291 291 289 287 286
299 290 302 314 297 298 294 297 298 296 298 298 298 296 292 292 290 288 287 291 295 294 290 293 291 281 284 287 288 288 287 286 281 279 280 280 286 289 291 292 292 291 290 288 288
292 293 301 307 288 289 295 296 299 297 297 296 295 297 296 293 290 290 290 294 296 294 291 294 288 279 282 285 286 285 288 291 288 284 282 280 286 288 288 290 290 291 288 288 287
292 286 291 296 297 292 290 291 292 299 298 298 297 298 296 293 296 291 291 295 296 296 298 298 290 286 284 285 287 283 286 288 290 285 284 286 289 289 289 289 290 289 288 287 287
291 287 288 286 287 289 292 292 290 291 297 299 295 296 295 291 293 292 295 293 292 296 296 295 288 288 291 291 288 287 286 288 287 289 287 290 290 295 293 291 292 291 288 287 286
286 286 289 287 289 289 289 288 288 291 292 292 294 295 295 293 294 292 295 295 293 292 292 294 289 290 288 290 288 286 286 288 289 290 290 291 291 295 295 292 290 291 289 288 288
290 295 289 286 284 284 287 289 288 291 293 294 293 293 291 295 298 299 299 298 298 295 292 291 290 286 285 289 286 283 289 287 288 290 290 287 292 294 294 293 292 291 289 290 290

GFSSW_sfc_thetae_057.txt.gz
Theta_e
321 321 321 321 322 322 323 323 324 324 325 326 326 326 326 326 323 315 304 311 313 326 322 306 303 302 302 299 299 293 287 285 288 289 291 294 293 295 294 296 294 296 296 298 306
320 320 321 321 321 321 322 322 323 323 324 325 326 325 325 325 313 307 320 326 326 323 305 301 299 300 297 297 296 291 285 289 292 291 292 294 293 296 294 293 292 294 296 300 305
319 320 320 320 321 321 322 322 322 323 323 324 325 325 324 319 305 303 325 326 326 318 307 304 301 298 294 295 294 290 288 291 293 295 296 295 293 294 293 291 294 295 297 298 301
320 319 320 320 320 321 321 322 322 322 322 324 325 324 323 310 291 308 324 325 324 311 305 301 298 293 293 291 295 291 293 292 296 296 295 294 296 293 294 295 296 297 298 297 299
320 320 319 319 319 320 321 321 322 322 322 323 325 323 311 299 301 312 322 319 310 306 302 299 295 294 292 293 294 290 292 294 296 296 294 296 294 293 294 294 294 297 298 297 297
319 320 319 319 319 320 320 321 321 321 322 322 325 322 306 293 311 310 310 308 306 303 301 299 297 297 294 292 291 294 294 294 295 295 295 294 292 294 293 294 294 296 296 295 296
319 318 319 319 319 319 320 320 321 321 321 322 325 315 302 299 310 307 307 304 305 304 301 301 301 297 296 294 296 294 291 292 293 295 294 295 291 293 293 294 294 294 294 294 295
319 318 317 318 319 319 319 319 320 321 321 323 324 308 296 308 308 305 305 303 305 305 304 303 302 300 297 296 294 290 289 287 291 294 293 293 287 294 294 293 293 292 291 293 294
319 318 318 318 318 319 319 319 320 320 321 322 308 303 295 312 307 309 304 302 303 302 303 306 301 295 294 290 287 287 284 285 290 294 292 290 288 292 291 292 292 291 291 292 292
319 318 318 318 318 318 319 320 319 318 317 316 311 295 299 299 305 307 304 304 300 299 298 298 293 291 288 288 283 284 284 286 286 291 290 288 289 292 291 291 292 290 290 291 292
320 319 319 319 319 319 315 308 299 298 304 295 296 292 299 302 305 303 304 302 300 297 291 292 289 287 290 289 289 288 285 285 289 292 290 289 290 293 292 290 290 290 291 292 292
320 320 320 319 319 319 311 303 302 303 295 303 303 303 303 303 298 301 303 298 295 291 292 290 287 292 293 291 289 287 286 286 289 291 290 289 289 291 291 291 293 293 293 292 293
318 320 319 319 319 316 310 307 311 307 294 297 303 302 302 301 298 299 301 297 293 290 291 289 292 294 293 290 289 287 286 285 288 288 288 286 286 288 292 292 292 294 296 295 295
316 317 319 319 313 313 309 316 314 307 285 288 295 301 300 301 296 302 302 298 292 291 291 290 294 293 290 289 291 286 291 290 288 286 282 286 282 286 289 291 291 294 294 295 295
315 316 317 318 312 308 312 314 314 306 282 292 294 303 299 297 295 296 299 296 292 292 292 289 290 290 289 290 292 289 291 289 287 284 283 283 281 284 287 288 292 295 295 296 295
313 314 315 316 314 313 314 316 310 288 279 288 295 294 293 294 293 295 296 297 295 292 291 289 292 293 293 292 293 292 289 287 285 283 279 286 283 286 286 291 292 295 296 294 292
312 313 313 318 310 316 316 306 287 282 292 288 290 293 292 290 290 291 291 290 289 285 286 288 290 291 293 290 290 290 288 280 278 276 279 282 281 289 289 292 293 295 295 292 290
311 311 309 313 317 317 309 296 281 289 287 293 291 291 290 292 290 289 288 288 291 288 285 284 282 290 292 293 290 288 288 281 274 274 277 282 280 286 291 294 293 293 293 290 288
310 302 305 309 315 314 301 287 288 288 291 291 293 290 288 289 290 288 286 286 290 291 287 284 284 289 290 291 294 286 284 289 283 271 275 282 284 289 291 290 291 292 290 287 289
301 297 299 309 313 309 297 291 292 295 295 296 290 292 288 288 289 286 285 289 289 293 291 288 282 286 288 291 290 288 291 283 281 273 271 279 280 284 288 290 292 292 290 288 287
302 295 299 308 312 300 289 292 295 296 298 294 293 291 290 288 290 285 287 289 291 290 295 290 287 283 286 286 286 286 285 284 285 281 275 273 282 288 292 292 292 292 292 290 288
298 288 300 311 293 295 290 294 297 297 299 297 297 295 292 291 289 288 287 290 293 293 289 292 290 280 283 286 287 287 286 287 281 277 279 279 284 290 290 292 291 293 292 288 287
290 291 302 304 286 288 291 293 297 296 297 296 295 297 296 294 290 291 289 293 295 294 290 293 287 277 282 283 285 284 287 290 287 283 280 278 285 287 288 289 290 291 290 288 287
287 282 289 294 294 290 288 289 290 299 298 298 296 297 295 293 296 290 290 292 295 295 297 297 289 284 283 283 286 283 285 287 289 284 284 285 288 289 289 289 291 291 289 288 286
290 285 286 284 285 287 290 290 288 288 296 298 295 295 294 291 292 291 291 292 292 295 295 295 285 288 290 288 286 285 285 287 287 288 285 289 288 293 295 291 294 292 290 287 286
285 282 286 284 286 286 286 286 287 290 291 291 291 292 294 291 293 291 294 294 294 292 292 295 286 288 286 289 288 286 286 287 288 290 290 290 290 295 294 292 290 293 291 288 288
291 290 286 285 283 282 285 285 285 290 292 294 293 292 291 292 295 297 298 298 297 295 289 290 288 286 284 288 287 283 287 289 289 291 291 287 292 293 295 293 294 294 291 290 290

GFSSW_sfc_thetae_060.txt.gz
Theta_e
320 321 321 321 322 322 323 323 323 323 324 325 326 326 326 325 323 313 303 310 313 326 321 304 301 300 300 298 297 291 287 285 287 288 290 292 292 291 293 294 293 295 295 298 308
320 320 320 320 321 321 322 322 322 322 323 324 325 325 325 324 311 305 319 327 325 324 303 300 297 298 296 295 294 289 285 287 290 289 290 292 292 294 293 292 292 293 295 300 307
319 320 320 320 320 321 321 321 322 322 322 323 324 325 324 317 303 302 323 325 325 316 305 302 299 297 293 297 295 289 286 290 292 293 294 293 291 294 293 290 294 295 296 301 304
319 319 319 319 320 320 321 321 321 322 321 322 324 325 323 309 288 306 323 324 325 309 303 300 296 293 291 293 293 290 291 291 294 295 293 292 294 292 292 294 294 295 297 299 302
320 319 319 319 319 320 320 321 321 321 321 322 324 324 312 297 299 310 322 318 307 304 301 298 294 293 290 293 292 291 292 292 294 294 293 295 293 293 293 294 294 295 298 298 300
319 319 319 319 319 319 320 320 320 321 321 322 325 322 304 291 309 309 308 306 304 302 299 298 296 296 293 291 290 292 293 292 293 294 293 293 294 295 295 293 293 294 295 296 297
319 318 318 319 319 319 319 320 320 320 321 322 323 314 301 296 309 306 306 303 303 302 299 300 299 296 294 292 294 293 290 291 291 293 292 295 290 293 295 292 294 293 293 294 295
319 318 318 317 318 319 319 319 319 320 321 322 323 305 293 306 308 304 304 302 303 303 302 302 301 299 295 294 293 289 288 286 289 293 292 292 286 293 292 293 293 293 292 293 294
319 318 318 318 317 318 319 319 319 320 321 322 306 300 292 311 305 307 302 301 301 301 301 304 299 293 293 289 287 286 283 284 289 292 290 289 287 291 290 291 292 291 291 292 292
319 318 318 318 318 318 319 319 319 317 315 313 309 292 296 297 303 305 302 303 299 297 296 297 293 290 287 287 282 284 283 284 285 289 288 287 288 291 291 291 291 291 291 291 292
320 319 319 318 318 319 314 306 296 295 302 293 293 291 297 301 304 302 302 301 298 295 290 291 288 286 289 288 287 286 284 285 287 291 288 288 288 291 292 289 290 290 290 292 293
320 320 320 319 319 319 311 301 300 302 296 301 301 300 303 303 298 300 302 296 293 290 290 288 285 291 292 290 288 286 285 285 288 289 289 288 288 292 291 291 292 293 293 293 293
317 318 320 320 319 316 309 307 312 305 294 295 301 300 299 301 297 299 300 296 291 289 289 287 290 292 292 288 288 286 284 284 287 287 287 285 285 287 291 291 292 292 295 294 295
316 316 317 319 313 312 309 315 313 310 289 290 293 299 299 300 295 301 301 297 291 291 289 288 292 291 288 288 290 285 289 288 286 285 281 285 280 285 289 290 291 294 292 294 295
313 315 316 318 312 308 311 314 314 307 283 293 293 302 298 294 294 295 298 296 291 291 291 288 289 289 288 289 291 288 290 288 287 283 282 281 281 284 286 288 292 294 294 294 295
312 313 315 316 314 314 315 314 308 290 281 288 294 293 293 293 292 294 295 296 294 291 290 288 291 292 292 291 291 291 288 287 284 283 279 283 283 284 285 290 291 295 294 294 293
311 311 310 314 310 316 316 307 289 283 292 289 290 292 291 289 289 291 290 289 288 285 285 287 288 290 292 289 290 289 287 280 277 275 278 280 280 287 288 290 292 294 294 291 291
311 310 307 310 315 316 309 296 283 289 287 292 291 291 288 290 288 288 288 287 291 287 283 284 282 289 291 292 289 287 288 280 272 273 277 281 279 284 290 293 292 292 293 291 290
310 300 302 306 309 313 301 287 287 288 291 291 291 287 286 290 289 287 286 286 289 289 285 282 282 288 289 290 293 286 284 288 282 269 274 281 282 288 290 291 290 292 290 290 290
302 298 296 307 309 306 296 288 292 294 293 294 289 290 285 287 288 285 285 288 288 292 290 287 282 285 287 290 289 288 289 282 280 273 270 279 280 283 287 290 291 291 291 290 289
302 293 298 307 307 298 286 290 293 296 297 294 291 291 291 288 289 285 287 288 290 290 294 289 286 282 285 285 285 286 284 283 284 280 274 272 282 286 289 290 291 292 292 291 290
297 286 298 307 291 293 287 290 295 296 298 296 296 295 293 291 289 287 286 289 292 292 289 290 288 281 283 285 286 285 285 285 280 277 277 278 284 289 290 290 290 292 291 289 289
290 289 297 301 284 286 288 290 292 293 296 295 294 295 295 292 289 291 288 292 294 294 290 291 287 275 281 283 284 283 286 288 285 282 279 278 284 287 288 289 290 290 290 290 288
287 279 285 290 289 289 286 286 287 294 293 295 295 297 294 292 295 289 290 292 294 295 298 297 289 285 283 283 285 282 284 286 288 283 283 283 287 290 288 290 290 291 290 289 288
290 282 284 279 282 285 287 288 286 286 293 295 293 294 293 290 292 292 292 291 291 295 295 295 285 288 288 288 285 285 284 286 286 288 283 288 287 292 293 292 293 293 290 290 288
286 285 285 282 285 283 284 283 285 287 290 288 290 293 294 291 292 291 294 293 292 291 292 294 286 287 285 288 288 286 286 287 287 289 289 289 289 295 294 292 290 293 295 292 289
292 291 288 284 282 280 282 284 283 286 289 291 290 290 290 292 296 296 296 295 293 292 290 291 288 285 284 287 285 282 286 288 287 289 289 286 291 295 294 292 295 294 292 291 292

GFSSW_sfc_thetae_063.txt.gz
Theta_e
320 321 321 321 321 322 322 322 322 323 324 325 326 326 326 325 323 314 303 310 312 326 322 304 302 301 302 300 299 296 291 288 290 290 293 294 295 295 298 298 298 300 301 304 312
319 320 321 321 321 321 321 321 321 322 322 324 324 325 325 324 310 305 319 327 326 324 303 300 298 300 297 298 297 292 289 290 292 292 293 294 295 295 296 297 297 298 300 305 310
319 319 319 320 320 321 321 321 321 321 322 323 324 325 324 318 302 302 325 326 327 316 305 303 300 299 295 296 295 292 288 290 293 295 296 295 294 296 295 294 297 298 299 303 309
319 319 319 319 319 320 321 321 321 321 321 322 324 325 323 308 289 305 324 325 325 308 304 300 298 295 293 292 295 290 292 292 296 296 295 294 295 294 294 297 299 298 300 304 308
320 319 318 318 318 319 320 321 321 321 321 322 324 324 309 296 299 310 321 318 306 304 300 298 295 295 292 294 294 291 293 293 296 295 294 296 294 295 294 297 298 297 299 303 308
319 319 319 318 319 319 319 320 320 321 321 322 324 322 303 290 308 309 307 305 304 302 299 299 296 297 294 293 292 294 294 293 294 295 295 294 294 295 296 296 297 296 297 300 304
319 318 318 318 319 319 319 319 319 320 320 321 323 313 297 295 309 306 305 303 303 302 300 300 299 298 296 294 295 293 291 293 292 294 294 295 292 293 296 296 296 296 296 296 299
319 318 318 318 318 318 319 319 319 319 321 321 323 305 292 305 307 304 304 302 303 303 302 302 301 299 296 295 293 290 290 287 291 293 293 294 288 294 294 295 296 295 295 295 296
319 318 318 318 318 318 319 319 319 320 321 321 305 299 291 310 304 306 302 301 301 301 301 302 299 294 294 290 288 288 284 285 289 293 292 291 289 293 293 293 293 294 294 294 295
319 318 318 318 318 318 319 320 318 316 314 311 307 290 294 296 303 304 301 302 299 297 297 297 293 290 288 288 282 285 284 285 286 290 290 289 290 292 293 293 294 294 293 294 295
320 320 319 319 319 320 314 303 295 292 300 292 292 290 296 301 303 301 301 300 297 295 290 291 289 287 289 288 287 287 285 284 287 291 290 289 289 292 294 292 292 293 294 294 294
319 320 320 320 319 319 312 300 301 303 294 301 300 299 301 301 297 300 301 296 293 289 290 288 286 291 291 289 289 287 285 286 288 289 290 289 289 293 292 295 296 297 296 296 297
317 317 319 320 319 315 310 305 310 306 294 296 299 299 298 301 296 298 299 295 291 288 289 287 289 291 291 288 287 285 285 285 287 288 288 286 285 287 291 293 295 295 297 296 297
314 316 316 319 314 313 309 313 313 305 293 293 293 298 299 299 294 300 300 296 290 290 288 288 291 290 288 287 289 284 288 288 287 286 282 286 280 286 289 291 291 294 294 296 297
312 313 316 318 312 309 309 313 312 308 281 294 292 301 298 293 293 295 297 295 290 290 290 287 289 288 287 289 290 287 289 287 286 284 283 282 282 285 287 288 291 295 295 296 296
311 311 313 314 314 313 314 313 308 290 280 291 294 293 292 293 292 294 294 296 294 291 289 287 290 291 291 290 290 290 288 286 284 283 279 283 283 285 285 289 291 293 295 295 294
311 311 308 310 309 315 315 307 289 283 291 288 289 291 290 289 289 290 290 289 287 284 284 286 288 290 291 288 289 288 286 279 277 276 279 281 281 288 288 290 292 294 296 293 293
309 309 305 307 311 315 309 297 282 289 287 291 290 290 287 289 287 288 288 287 290 285 282 283 281 289 291 290 288 286 286 280 273 273 277 281 279 285 290 292 292 292 293 292 293
308 299 300 303 306 312 302 287 284 287 291 290 290 286 285 288 287 286 286 285 289 289 285 281 282 287 288 289 292 286 284 288 282 269 275 280 282 287 289 290 291 292 291 291 292
298 296 296 304 306 303 295 289 291 294 293 293 288 290 284 286 286 285 284 287 288 291 289 286 281 285 287 289 288 287 289 283 280 273 270 278 280 284 287 290 292 291 292 292 292
297 289 296 304 303 295 285 288 292 296 296 294 291 291 289 287 287 283 286 287 289 289 293 288 285 282 285 285 285 285 284 283 283 280 274 272 281 286 289 290 290 291 292 292 292
291 282 296 304 289 291 285 289 293 293 296 296 296 293 291 290 289 286 285 289 292 292 288 290 287 281 283 285 285 285 285 285 280 276 277 277 284 288 290 291 290 291 292 291 291
286 289 296 298 281 283 286 287 290 289 292 295 294 294 294 292 289 289 288 291 292 292 290 291 286 275 281 282 283 283 285 287 284 282 279 278 284 287 288 289 290 291 291 291 291
288 278 284 290 290 285 283 284 284 290 290 291 292 295 293 290 294 289 288 291 293 293 297 296 288 284 282 282 284 282 283 285 287 280 283 282 287 290 289 290 291 292 291 291 291
289 281 283 277 282 284 287 287 284 284 290 291 289 289 288 286 288 288 290 292 292 294 295 295 287 287 289 288 286 286 284 286 286 287 284 287 287 291 292 292 294 295 292 291 291
286 285 286 280 283 282 283 282 282 285 287 287 286 288 289 288 289 287 292 292 292 292 292 294 287 289 286 289 290 287 286 285 287 288 288 289 288 296 296 293 291 293 296 295 293
292 291 288 283 281 280 280 281 281 283 285 289 289 286 286 289 293 294 294 294 293 290 286 288 288 285 283 288 287 282 287 288 289 289 289 285 290 295 294 292 294 293 293 293 293

GFSSW_sfc_thetae_066.txt.gz
Theta_e
321 321 321 321 322 322 322 322 322 323 323 324 325 326 326 325 324 320 309 314 317 328 323 311 310 310 310 307 305 304 303 299 300 298 301 302 302 302 304 305 306 309 307 311 324
320 320 321 321 321 321 322 322 322 322 323 323 324 325 326 325 316 311 321 327 327 326 310 309 307 308 307 305 306 305 302 300 302 303 302 302 303 303 303 303 304 305 307 309 321
320 320 319 319 320 320 321 321 322 322 322 323 324 325 325 322 309 308 325 326 327 320 312 310 308 307 304 305 303 300 301 298 300 301 302 302 301 303 303 302 306 306 308 308 320
319 319 319 318 319 320 320 320 321 321 322 322 324 324 323 315 296 311 324 325 325 314 310 307 306 304 302 300 302 299 299 300 302 303 302 301 302 301 303 307 306 309 309 309 316
319 319 318 318 318 319 320 320 320 321 321 322 324 324 315 304 305 315 321 319 312 311 308 305 304 303 300 302 301 299 300 300 302 301 302 301 301 302 301 307 305 304 305 308 312
319 319 319 318 319 319 320 320 320 320 320 322 323 322 308 298 314 313 312 311 310 309 307 306 305 305 302 301 300 301 300 300 301 302 301 300 301 301 305 306 304 304 306 307 310
319 318 318 318 318 319 319 320 320 320 320 321 323 315 304 301 315 312 310 309 310 309 307 307 307 305 304 301 302 300 299 300 301 301 301 301 299 299 305 303 304 304 306 306 308
319 318 318 318 318 318 319 319 320 320 321 322 322 310 300 310 315 309 310 308 309 309 309 308 309 306 303 303 301 299 299 296 299 299 300 300 297 302 302 302 303 306 306 306 306
319 318 318 318 318 318 319 320 320 320 320 321 311 306 298 315 309 312 309 307 307 307 308 306 307 303 302 300 298 297 294 294 296 299 298 299 298 302 301 301 302 305 305 305 306
319 319 319 319 318 319 320 319 319 318 316 313 310 299 301 300 309 309 308 307 305 305 305 304 303 301 300 298 291 293 293 293 294 297 297 297 297 302 304 300 303 305 306 306 305
320 320 319 319 319 320 318 307 302 300 306 298 298 296 300 307 309 307 307 305 305 303 299 299 298 295 298 299 296 295 294 293 296 296 296 297 298 300 303 303 303 304 305 306 306
317 320 320 320 320 319 316 306 306 307 301 304 303 302 303 307 302 305 307 303 301 298 298 297 294 300 298 296 295 295 294 294 297 295 295 297 296 300 302 302 304 305 305 306 307
316 316 320 320 319 318 314 309 314 310 303 302 303 302 302 305 301 303 305 301 299 295 296 295 296 298 296 294 293 294 293 294 293 294 295 294 294 297 301 301 302 304 305 306 307
313 315 316 319 315 315 312 315 315 310 298 299 298 301 302 304 297 304 306 303 298 296 296 296 297 295 294 293 295 291 296 295 293 292 289 293 287 295 298 299 299 302 305 305 306
311 312 315 318 313 311 312 315 315 310 284 298 296 305 301 298 299 299 303 301 297 295 296 294 293 293 293 294 296 293 295 294 293 292 291 292 288 293 294 295 298 302 304 306 307
311 311 311 315 315 315 316 316 311 293 283 294 297 296 295 297 296 298 299 302 300 296 295 294 296 296 296 294 296 295 294 293 292 292 286 291 289 291 295 296 299 301 303 305 305
309 311 308 309 309 317 315 309 291 285 295 292 292 294 294 293 294 296 295 294 292 289 289 292 293 295 296 293 294 295 293 286 285 284 284 288 288 291 297 297 298 300 303 303 303
306 309 307 308 312 316 310 298 284 292 293 295 294 293 291 293 292 293 293 292 295 292 289 287 285 293 296 296 293 292 293 287 283 282 286 285 284 292 298 299 300 300 301 302 300
306 305 305 308 309 313 302 287 288 292 295 293 293 290 290 292 292 292 292 292 295 294 289 287 287 293 293 296 297 291 288 294 288 280 283 288 292 296 297 296 297 298 301 302 303
302 302 300 308 311 309 295 289 292 297 296 296 290 293 289 291 290 289 290 294 293 296 298 292 286 291 292 295 294 293 295 287 288 282 281 286 287 289 295 297 298 299 300 301 302
301 293 300 307 310 300 288 289 293 298 298 294 293 292 293 291 292 289 291 292 294 293 296 295 290 288 291 290 291 291 289 289 290 288 284 283 287 297 297 299 298 300 299 301 301
298 286 301 309 292 293 289 291 295 296 299 297 296 295 293 294 292 291 290 293 295 295 291 294 291 287 288 292 293 292 292 292 286 284 286 285 287 295 297 298 298 299 298 300 299
292 292 300 302 285 287 290 290 293 292 294 295 294 296 296 292 289 294 295 297 296 295 293 294 289 284 287 289 289 289 291 292 292 288 287 285 288 295 295 297 297 298 300 300 299
291 284 290 292 295 288 286 286 287 293 293 294 293 296 294 291 293 290 291 295 297 295 296 297 290 288 286 289 291 286 289 291 290 285 286 288 290 295 296 297 298 300 301 300 301
290 286 289 283 285 288 288 287 285 285 292 293 290 290 289 286 288 288 290 290 293 295 295 294 286 289 291 293 292 291 291 290 288 290 287 290 291 295 297 298 300 302 302 301 302
286 287 287 286 287 286 286 286 285 287 288 287 287 288 290 287 288 286 290 291 291 294 293 295 286 290 287 292 292 289 291 291 290 291 290 291 291 298 300 301 300 300 301 301 302
293 292 289 286 285 284 285 285 285 288 289 290 290 289 287 289 291 293 293 292 291 289 287 286 286 285 283 289 289 284 289 291 292 293 293 289 294 299 299 299 299 300 300 300 301

GFSSW_sfc_thetae_069.txt.gz
Theta_e
322 322 321 321 321 322 322 322 322 322 323 324 324 325 326 325 323 322 312 314 317 327 321 313 313 313 313 311 311 310 303 300 302 302 303 306 305 307 309 307 308 311 310 316 322
321 321 321 321 321 321 321 321 322 322 322 323 324 324 325 325 319 313 318 325 327 327 312 310 308 310 308 309 309 307 302 302 306 306 304 306 306 307 305 306 306 308 311 316 325
320 320 319 319 320 320 321 321 321 321 322 322 323 324 325 323 311 310 322 326 327 319 313 312 310 309 305 307 307 306 302 305 304 305 305 305 304 307 304 304 307 307 310 312 322
320 319 318 318 318 319 320 320 321 321 321 322 323 324 323 319 297 313 324 325 326 315 312 310 308 305 303 302 305 301 303 303 304 305 304 303 306 304 305 307 309 311 312 311 318
319 318 318 317 318 319 320 320 320 321 321 322 323 324 318 306 306 315 322 315 314 312 309 307 305 305 301 302 303 301 302 302 304 304 304 303 303 304 305 309 310 308 308 311 314
319 319 318 318 318 319 320 320 320 320 320 321 323 322 311 300 316 316 313 312 312 311 309 308 306 307 303 303 302 303 302 302 303 304 303 301 303 303 306 309 309 308 307 309 311
319 318 318 317 317 318 319 319 320 320 320 321 323 316 306 304 317 315 312 311 312 311 308 309 309 306 306 302 304 303 300 302 302 303 302 303 300 300 306 306 306 307 307 309 310
319 318 318 318 317 318 319 319 320 320 320 321 323 314 302 312 317 311 312 311 312 312 311 311 311 308 306 306 303 300 300 296 302 302 302 302 296 305 306 306 305 306 308 309 309
319 318 318 318 318 318 319 320 320 319 320 321 313 308 300 316 310 313 311 308 310 310 309 310 310 306 305 301 298 300 294 296 299 302 301 301 299 305 305 304 304 306 308 308 309
319 319 319 319 318 319 320 319 318 318 317 314 311 302 303 302 311 311 311 310 308 308 306 306 305 301 301 299 291 294 295 296 296 299 299 299 299 303 305 305 305 306 307 308 309
320 320 319 319 319 320 320 312 306 304 307 301 300 298 301 309 311 309 309 307 307 306 300 303 297 295 298 299 299 297 296 295 298 299 298 298 298 301 304 304 304 305 306 307 308
317 319 320 320 320 320 319 310 308 310 303 306 304 303 305 309 303 307 309 304 303 299 302 298 295 300 301 300 298 297 295 295 298 299 296 297 297 301 303 304 305 305 306 307 308
314 316 319 320 319 319 317 312 316 313 304 306 305 302 303 305 301 304 307 304 300 298 298 296 297 300 298 297 295 296 295 295 295 297 298 296 295 298 303 304 305 306 307 307 308
312 313 315 318 315 318 314 318 318 313 299 300 301 304 303 304 298 307 308 304 300 296 298 297 300 297 296 295 297 292 298 297 295 293 289 296 288 296 299 300 303 305 305 307 308
312 311 311 318 315 312 314 316 316 313 286 302 298 307 303 300 300 300 306 303 298 297 298 295 296 296 294 295 298 295 297 296 296 294 293 293 289 294 299 297 300 303 306 308 309
309 311 311 314 314 315 317 315 311 293 284 295 299 298 297 298 297 300 301 304 302 298 298 297 299 299 298 297 298 298 296 296 295 293 286 291 291 292 296 298 301 303 305 307 308
307 309 309 309 310 318 316 311 290 285 297 293 293 297 297 295 295 297 295 294 293 289 290 294 295 298 298 294 296 297 293 286 285 286 285 292 290 293 298 300 301 302 304 306 306
305 307 309 308 312 317 311 297 284 293 294 297 296 295 293 295 294 295 295 292 296 295 291 289 287 294 297 296 294 293 293 288 282 284 287 288 286 292 300 303 303 303 304 305 305
305 306 306 310 310 313 303 287 289 294 297 295 295 292 292 294 294 293 293 293 296 297 290 289 289 296 297 298 298 293 289 296 289 288 284 289 293 298 301 299 301 302 303 303 305
301 301 302 310 311 309 296 290 293 298 298 298 291 295 292 292 291 292 293 296 295 298 298 294 288 293 294 296 296 294 297 288 288 283 281 286 289 290 297 298 301 301 301 304 305
301 293 301 309 311 300 289 291 294 299 299 295 294 293 294 292 293 291 292 295 297 295 298 295 292 289 292 291 291 291 289 291 291 289 284 283 288 298 298 300 300 302 303 303 304
297 287 304 308 294 294 290 293 296 295 299 298 298 296 294 294 293 293 292 295 298 297 292 296 292 288 290 296 297 295 292 292 287 285 288 287 287 300 300 301 301 301 303 303 302
292 292 305 304 286 289 292 292 294 293 295 295 294 296 297 293 289 293 295 299 298 297 292 294 290 284 287 292 292 290 293 293 293 291 288 284 287 298 300 300 301 300 303 304 304
293 285 292 295 296 289 287 287 288 294 294 296 294 297 294 292 295 291 293 296 298 297 296 296 290 288 286 290 293 288 290 293 291 286 287 288 290 295 298 299 301 301 303 304 304
292 287 291 285 286 288 289 288 286 286 293 294 291 292 292 288 290 290 292 293 295 296 295 292 286 288 291 293 293 293 292 292 289 290 286 290 291 295 298 300 301 303 303 303 303
287 287 291 289 290 287 288 286 285 287 289 287 288 290 291 288 289 287 289 290 290 294 293 293 286 288 286 290 291 288 292 293 293 293 292 293 292 300 301 302 301 302 302 302 303
294 293 291 287 286 287 285 286 287 289 290 291 290 289 288 290 293 294 294 293 292 289 288 286 286 285 282 288 286 282 288 291 293 295 294 289 295 299 299 300 301 303 304 303 303

GFSSW_sfc_thetae_072.txt.gz
Theta_e
322 322 322 322 322 322 322 322 322 322 323 323 324 325 326 325 323 322 312 315 319 326 320 313 312 312 313 310 311 307 297 294 297 298 298 302 300 301 302 302 301 306 303 310 318
322 321 321 321 321 321 321 321 321 321 322 322 323 324 325 325 320 313 319 325 324 324 313 308 306 308 304 307 307 301 297 298 301 300 299 301 300 301 298 299 299 302 306 313 321
321 320 320 320 320 320 320 320 321 321 321 322 323 324 324 322 313 310 324 325 326 320 312 311 308 307 303 305 304 302 298 299 300 302 302 301 299 300 298 296 301 301 304 312 318
320 319 318 318 318 319 320 320 321 321 321 322 323 324 323 320 299 313 324 325 325 315 312 308 305 302 300 299 303 297 301 300 303 303 301 299 302 299 300 299 303 302 306 311 316
319 319 318 317 318 319 319 320 320 320 321 321 323 323 318 307 308 314 322 320 314 312 308 306 302 302 298 299 300 296 298 299 302 301 299 301 298 299 299 302 304 304 306 307 313
319 319 318 318 318 318 319 320 320 320 321 321 323 323 312 300 316 315 312 312 312 310 307 306 303 304 300 299 298 300 300 298 300 300 300 298 298 297 300 303 302 303 302 303 307
319 318 318 318 317 318 318 319 320 320 320 320 322 317 306 304 316 314 311 311 312 310 307 308 307 304 303 299 302 300 295 297 298 299 298 299 295 296 300 301 301 301 301 303 304
319 318 318 318 318 318 319 320 320 321 320 321 323 314 302 314 314 311 312 310 311 311 310 310 308 307 304 303 300 295 294 289 297 299 298 297 289 298 298 298 299 300 299 301 303
319 318 318 318 318 319 319 320 320 320 319 321 313 308 300 315 310 312 310 308 309 309 308 308 309 303 302 295 292 293 287 289 293 299 297 296 292 298 299 297 297 298 299 300 302
319 319 318 319 319 319 320 321 319 318 317 314 309 301 302 302 311 311 309 310 307 306 305 304 302 297 295 292 285 288 288 291 290 295 294 293 293 298 300 299 298 299 300 300 301
319 320 319 319 319 320 319 315 305 305 306 301 300 299 301 308 312 309 309 306 306 303 295 299 293 289 293 295 295 292 291 290 292 296 293 293 293 295 298 297 296 297 298 299 301
316 318 320 320 320 320 319 310 309 309 302 304 304 303 305 308 303 306 308 301 300 295 298 295 290 296 298 298 295 292 290 289 293 296 292 292 292 295 297 297 298 298 298 299 300
313 314 317 320 320 319 317 312 316 313 303 305 305 301 303 306 300 303 304 302 298 296 296 293 295 299 297 294 293 291 290 289 290 293 293 289 289 292 297 299 299 300 301 300 300
312 312 312 318 314 318 314 318 318 315 297 299 301 303 303 303 297 307 306 302 297 294 295 294 298 295 294 293 294 289 294 293 292 289 283 291 281 289 293 294 297 298 298 299 300
309 311 311 315 314 313 314 316 316 312 284 300 299 307 304 298 299 300 304 301 295 294 295 292 293 293 292 293 295 291 295 292 291 287 287 286 283 287 291 290 294 296 298 299 300
307 308 310 313 315 315 316 314 310 292 283 295 298 297 295 297 297 299 299 302 300 295 295 293 296 295 294 295 295 296 292 291 289 288 280 286 285 284 288 290 292 294 296 299 300
305 307 308 309 308 317 316 308 290 284 298 292 294 297 296 294 294 296 294 292 290 287 287 292 292 294 296 292 294 292 288 280 279 278 279 285 283 287 292 294 293 294 296 296 301
306 305 308 308 311 314 311 296 283 291 294 298 296 296 293 295 294 293 292 289 293 291 287 285 283 292 294 293 290 290 289 281 274 277 279 283 281 286 293 294 294 296 297 296 298
306 304 305 310 309 313 303 285 288 293 297 294 295 291 291 293 292 291 290 291 293 293 287 286 287 293 294 293 294 289 286 291 283 276 277 283 287 292 294 293 294 295 296 295 297
300 300 301 310 311 308 295 289 292 298 298 298 291 294 289 291 289 290 290 293 293 296 296 290 284 291 291 293 293 290 292 284 283 274 273 280 281 285 290 293 294 294 295 297 298
299 291 302 310 310 300 288 290 295 299 299 295 294 293 294 291 291 289 290 292 294 293 296 292 289 285 290 288 288 287 286 287 287 284 276 276 281 291 292 294 295 296 297 296 297
297 286 303 306 293 293 289 293 295 295 299 297 297 296 294 294 291 291 290 292 295 295 290 293 290 282 286 290 291 290 288 289 282 280 281 281 284 293 294 295 295 295 297 296 297
292 290 303 303 285 287 291 292 294 293 294 295 294 296 296 294 289 293 294 297 298 295 291 293 287 278 282 287 288 287 289 291 290 285 282 279 283 293 294 293 294 293 295 298 298
292 284 292 294 293 288 287 287 288 294 293 295 294 296 293 291 293 289 292 296 297 295 296 297 290 284 281 286 291 286 288 290 289 283 284 284 287 292 294 293 296 296 296 297 297
290 286 289 283 284 287 289 288 286 286 292 293 291 292 291 287 289 289 292 292 295 297 294 291 285 288 289 289 290 289 289 291 289 289 285 287 287 291 294 294 297 299 297 297 298
287 287 289 287 288 285 287 285 285 287 288 287 287 290 291 288 289 287 291 291 289 291 291 292 283 286 281 287 288 285 288 289 290 291 291 291 289 296 297 298 298 298 298 298 299
293 293 289 286 285 285 283 285 286 288 289 290 289 288 287 290 292 292 293 292 291 288 286 286 285 284 277 283 282 280 284 287 289 291 291 287 292 296 296 297 297 297 299 299 301

GFSSW_sfc_thetae_075.txt.gz
Theta_e
322 322 322 322 322 322 322 322 321 322 322 322 323 324 325 325 324 320 311 314 317 325 321 308 307 306 305 304 304 300 292 290 291 293 294 298 296 299 299 300 299 302 304 308 318
322 322 322 321 321 321 321 321 321 321 322 322 323 324 324 324 319 312 319 327 326 324 309 304 302 304 299 302 301 296 290 292 295 294 294 298 297 298 295 297 297 300 304 313 319
321 321 320 320 320 320 320 320 321 321 321 322 323 324 324 321 311 308 324 326 326 320 309 307 304 302 298 299 298 297 293 296 296 298 298 297 296 299 296 293 297 299 303 315 316
320 320 319 319 319 319 319 320 320 321 321 321 322 323 323 317 294 310 323 325 324 311 308 305 300 297 295 295 299 292 298 297 300 300 298 296 298 295 296 297 300 300 306 313 314
320 319 318 317 318 319 319 320 320 321 321 321 323 323 316 304 305 311 320 319 310 309 305 302 298 298 294 295 297 293 294 296 299 298 296 298 295 295 296 299 299 303 306 313 314
319 319 318 318 318 318 319 319 320 320 320 321 322 323 307 295 313 312 309 309 308 306 303 302 299 300 296 295 294 296 296 295 297 297 297 295 294 295 297 298 298 300 302 308 312
319 318 318 318 317 318 318 319 320 321 321 320 322 317 302 300 312 309 309 308 308 307 303 304 302 299 299 295 298 297 292 294 295 296 295 296 290 294 296 298 298 298 298 301 306
319 318 317 317 318 318 319 320 321 321 321 321 322 310 297 311 309 308 308 307 307 307 307 306 304 303 300 299 296 292 290 286 293 296 296 293 286 294 296 296 297 296 295 298 299
318 317 317 318 318 318 319 320 320 320 320 320 309 302 296 314 307 308 306 305 305 305 304 307 304 299 297 291 288 288 283 286 290 295 295 292 288 296 298 296 294 294 296 297 297
319 318 318 318 318 319 320 321 319 317 316 315 308 293 298 300 308 307 305 307 303 302 301 300 297 292 291 287 282 285 285 287 286 293 293 290 291 294 297 296 296 296 296 297 297
319 319 319 319 319 320 317 311 300 299 301 295 296 295 301 305 309 306 305 303 303 299 291 295 290 287 290 290 290 289 288 286 288 294 292 290 290 293 295 294 292 293 294 296 297
315 317 320 320 320 320 315 306 304 305 299 301 300 300 303 306 300 303 304 298 297 291 294 291 287 293 294 293 292 290 287 286 289 293 290 290 290 292 293 295 297 296 293 294 295
312 313 314 318 320 317 313 309 313 309 299 303 301 299 299 304 298 300 302 298 294 292 292 289 292 296 295 291 291 289 287 286 288 289 289 287 285 289 293 294 296 295 296 296 297
311 312 312 315 314 314 310 313 314 310 293 297 299 301 301 300 293 304 303 299 294 292 292 291 295 293 292 291 292 287 291 291 289 286 282 288 279 286 291 293 292 295 295 296 296
307 308 310 313 313 311 312 315 312 308 276 297 298 305 301 294 296 298 301 298 292 292 292 290 291 290 290 291 292 289 292 290 289 285 283 283 280 285 287 288 291 293 293 294 296
306 306 310 312 314 314 315 314 309 292 279 292 296 295 294 295 295 297 297 299 297 293 292 290 294 293 292 293 293 294 291 290 287 284 278 283 283 281 285 289 289 291 293 296 297
307 306 307 309 308 314 315 308 290 284 296 290 291 294 293 291 292 293 291 290 287 285 285 289 290 292 294 290 293 291 286 278 277 276 276 282 280 284 289 290 291 292 292 292 299
305 306 304 308 312 314 311 295 283 290 291 294 294 293 290 292 291 292 290 287 290 287 285 284 282 290 293 291 288 288 286 279 273 276 278 282 280 286 291 293 293 293 293 292 293
305 300 301 306 309 313 301 285 286 291 296 293 292 288 288 291 290 289 287 287 290 290 285 283 284 290 291 292 292 287 284 288 282 272 276 280 284 290 292 292 293 293 294 295 296
295 295 297 307 308 308 295 287 291 297 298 296 289 291 285 288 287 287 288 291 291 293 292 288 283 288 289 292 291 289 291 283 281 272 271 278 279 283 288 290 293 293 294 294 295
294 287 298 307 305 299 288 290 294 299 299 295 293 291 291 288 288 287 289 291 292 292 293 290 287 284 287 286 286 286 285 286 286 282 275 274 279 287 289 293 293 293 294 295 296
293 283 298 303 291 292 289 293 295 296 299 297 296 295 294 293 289 288 288 290 295 293 289 291 288 280 284 288 289 287 286 287 280 278 280 279 283 290 292 292 294 294 296 297 297
287 288 299 302 282 284 288 290 292 291 294 294 293 295 296 294 290 292 292 295 295 292 291 292 285 274 281 285 287 285 287 288 288 283 281 276 283 292 292 291 292 292 293 295 296
288 280 288 293 289 285 285 287 288 293 291 293 293 295 293 290 294 290 292 295 295 294 297 296 288 282 278 284 288 284 287 290 288 278 281 283 285 291 291 291 293 293 296 297 295
290 282 286 281 282 286 286 286 285 285 290 291 289 291 291 287 288 288 291 292 293 295 292 293 285 286 287 288 289 289 288 288 288 288 285 286 286 290 293 293 294 295 295 296 296
286 284 285 283 284 283 284 283 284 286 288 286 286 289 290 287 288 286 290 290 289 290 291 291 280 286 282 287 287 284 285 286 289 289 289 289 289 296 297 298 294 296 296 296 298
288 292 288 283 284 281 280 283 284 286 288 290 288 287 285 288 291 291 291 291 290 287 288 287 284 281 270 281 282 275 282 285 286 289 289 286 290 294 293 293 293 294 295 294 294

GFSSW_sfc_thetae_078.txt.gz
Theta_e
321 323 323 323 323 323 322 322 321 321 322 322 322 323 324 324 324 318 309 313 315 326 321 306 306 304 303 302 302 298 292 288 289 291 293 295 295 296 298 298 298 300 304 307 318
322 322 322 322 322 322 321 320 320 321 321 322 322 323 324 323 316 311 320 327 326 325 307 302 300 302 298 300 300 295 290 291 293 292 293 295 295 297 295 295 296 298 305 313 320
322 322 321 321 321 320 320 320 320 320 320 321 322 323 323 320 308 307 324 325 325 319 308 306 302 301 296 297 297 294 291 295 294 295 296 296 293 296 295 292 297 299 305 313 318
321 320 320 319 319 320 319 319 320 320 320 321 322 323 323 316 291 309 321 324 324 310 307 303 299 295 294 293 297 292 295 296 298 298 296 295 296 294 295 296 299 300 309 314 318
320 320 319 318 318 318 319 319 320 320 320 321 322 323 315 301 303 310 320 318 309 307 303 300 297 296 292 294 295 292 293 295 298 297 296 296 293 293 295 298 297 299 310 313 317
319 319 318 318 318 318 319 318 319 320 320 321 322 322 305 294 311 310 308 308 307 304 302 301 299 298 295 293 292 294 294 294 296 295 295 293 291 293 295 296 296 300 306 312 313
319 318 318 318 317 318 318 319 320 321 321 321 322 315 299 298 310 308 308 306 307 305 301 302 301 297 296 294 297 295 291 291 293 294 293 294 289 292 294 295 295 297 299 305 310
319 318 317 318 318 318 319 319 321 321 321 321 321 308 295 309 309 307 307 305 305 305 305 304 303 301 297 297 295 290 289 284 290 294 294 290 286 290 295 292 294 294 293 296 301
318 317 317 317 318 318 319 320 320 320 319 320 308 299 295 313 305 306 305 304 304 303 303 306 303 296 295 290 287 288 281 284 288 294 293 290 287 292 295 294 294 293 294 294 296
318 317 317 318 318 319 320 321 319 316 315 313 306 293 298 298 307 306 303 305 302 300 299 299 295 291 289 286 280 284 283 285 284 291 290 288 289 293 295 292 294 294 294 294 295
319 319 318 318 319 320 317 307 298 297 301 293 294 294 300 305 308 304 305 302 301 297 290 293 289 286 289 289 287 287 285 284 287 292 290 289 289 292 294 293 292 292 292 293 295
316 318 320 320 320 320 314 304 301 302 294 301 298 299 303 305 299 302 303 297 295 289 292 289 285 291 291 291 289 287 285 284 287 291 289 288 289 291 292 293 293 293 292 292 293
313 313 314 318 320 316 312 308 311 308 297 300 299 297 298 303 297 299 300 297 292 290 290 287 289 293 292 290 289 287 286 285 286 287 287 286 284 286 290 292 294 294 294 293 294
309 310 311 316 313 313 310 312 313 308 292 295 299 299 300 300 293 303 301 298 292 290 291 290 293 291 290 289 290 285 290 289 287 284 280 285 278 284 289 291 291 292 289 292 293
306 307 309 313 312 310 311 313 311 306 276 295 296 303 299 293 296 297 300 297 292 291 292 289 290 290 288 290 291 288 291 288 287 284 282 282 280 283 286 288 290 291 291 294 295
306 307 308 313 314 314 314 313 308 289 277 291 296 294 293 293 294 296 296 297 295 291 290 290 292 292 291 291 291 293 290 288 285 282 277 281 281 280 284 286 288 291 293 293 295
305 306 307 310 309 315 315 309 290 282 294 289 291 292 291 290 292 292 291 290 288 285 284 287 288 291 292 289 291 289 284 277 277 275 276 280 279 282 288 289 289 291 291 292 292
304 306 303 308 312 315 310 296 282 290 291 294 293 292 288 290 289 290 289 287 289 286 284 283 281 289 292 290 288 286 284 278 272 274 277 281 279 285 289 290 290 292 291 293 295
303 298 299 307 310 313 301 285 286 290 296 291 292 288 288 290 289 288 287 286 289 289 284 283 283 289 290 290 292 287 283 286 280 270 275 279 283 289 290 290 293 293 294 293 295
295 294 296 307 309 308 295 287 291 297 298 295 288 290 285 287 286 286 286 289 289 291 289 287 282 287 288 290 289 287 290 282 281 272 270 277 278 282 286 288 292 293 293 294 295
294 286 296 305 308 299 289 290 293 299 299 294 293 289 288 287 287 286 287 289 290 291 292 289 286 283 287 286 285 286 284 285 284 280 273 272 278 286 288 291 291 292 294 294 294
291 281 298 302 293 292 289 293 296 297 300 297 296 295 292 289 287 288 287 289 294 292 287 290 287 280 283 286 288 288 286 286 280 277 278 279 281 289 291 291 292 292 293 293 294
286 286 297 301 284 286 288 290 293 294 295 295 293 295 296 293 288 291 290 294 294 293 291 292 286 278 282 285 287 285 286 287 286 282 277 276 280 289 290 289 290 290 291 293 293
288 280 287 293 290 285 285 287 288 293 292 294 294 295 292 290 293 290 292 294 295 295 297 295 286 282 279 282 286 284 285 288 286 277 279 282 284 289 290 291 293 293 294 294 294
289 282 284 278 285 286 285 286 287 286 291 292 289 292 291 287 289 288 291 291 294 295 293 292 281 284 285 287 288 288 287 287 285 285 282 283 285 289 292 293 293 293 293 294 294
285 284 284 282 283 285 285 283 284 286 288 286 286 289 290 288 289 287 290 289 289 290 290 290 282 285 281 286 287 284 286 287 287 287 288 287 287 293 294 293 292 293 293 292 292
287 291 286 282 281 281 282 283 284 287 287 289 288 287 287 289 290 290 291 291 291 288 286 284 284 280 274 281 282 276 282 284 285 288 288 284 289 290 289 290 290 290 291 291 292

GFSSW_sfc_thetae_081.txt.gz
Theta_e
322 322 323 323 323 323 323 322 321 321 321 322 322 323 323 324 324 316 306 311 312 323 319 305 304 303 302 301 300 297 291 288 290 290 292 294 294 294 296 297 300 300 304 306 321
321 321 323 323 322 322 322 321 321 321 321 321 322 323 323 323 315 309 320 326 325 324 306 302 300 300 298 298 297 294 290 291 292 292 292 295 293 296 296 295 297 299 306 312 320
320 321 321 322 321 321 321 320 320 320 320 321 321 322 322 320 306 305 323 326 325 318 306 304 302 300 295 295 296 293 291 294 293 294 295 296 292 295 294 293 296 298 302 313 317
321 321 321 321 320 320 320 320 319 320 320 321 322 322 322 314 290 307 322 324 324 309 305 302 299 294 293 293 296 291 294 294 296 296 295 295 295 292 293 295 296 299 305 313 317
320 320 320 319 319 319 319 319 319 320 320 321 322 322 314 301 302 309 321 318 307 306 302 299 296 295 294 294 294 291 292 294 296 295 293 295 293 293 294 296 295 297 308 313 318
319 319 319 318 318 318 319 319 319 320 320 321 322 322 305 293 310 308 306 306 306 303 301 300 297 297 293 294 293 293 293 292 294 294 294 292 290 291 291 294 294 298 305 311 314
319 318 318 318 318 318 318 319 320 321 321 321 321 314 299 297 309 307 307 305 305 304 300 301 300 296 295 293 295 293 289 290 291 293 292 293 288 291 291 291 293 295 297 306 310
319 318 318 318 318 318 318 319 320 321 321 321 321 307 294 308 308 305 305 304 305 305 303 303 303 300 296 296 294 289 287 283 287 292 292 289 285 289 292 291 292 292 292 295 302
318 317 317 317 317 318 319 320 320 320 319 320 307 299 294 312 304 305 304 303 303 302 302 305 302 295 293 289 285 286 280 283 287 292 292 289 286 290 293 292 292 292 292 293 294
318 317 317 318 318 318 319 321 318 316 313 311 304 294 298 297 306 305 303 304 300 300 299 298 294 290 287 284 280 283 282 283 283 289 289 288 289 292 293 292 293 292 292 293 293
318 317 318 318 318 320 316 304 297 295 300 293 294 295 298 304 307 303 303 302 300 296 290 292 289 285 288 287 284 285 284 284 285 291 288 288 288 291 293 291 291 291 292 292 293
318 319 319 319 320 320 313 302 297 299 291 299 296 299 303 304 298 300 302 296 294 289 291 289 285 290 291 290 288 286 284 284 286 290 289 286 288 290 291 292 292 292 292 291 291
312 313 315 319 320 315 311 307 310 307 296 299 298 297 299 303 295 298 300 296 291 289 288 286 287 291 290 287 287 284 284 283 285 286 286 284 283 284 288 289 292 292 291 292 292
309 309 312 314 313 313 309 311 312 307 291 294 296 297 299 299 293 302 300 297 292 289 290 287 290 290 288 287 288 284 289 288 286 284 279 284 277 283 286 288 289 290 289 290 292
307 308 309 313 310 309 310 313 311 303 275 293 296 302 297 292 295 296 299 296 291 290 291 287 290 288 287 288 290 287 289 287 285 282 281 280 279 282 284 285 288 289 291 291 293
305 306 308 313 314 313 314 312 307 289 276 291 295 293 292 292 293 295 295 297 295 291 289 288 291 290 291 290 290 291 287 285 283 280 276 279 279 279 282 284 286 288 290 291 292
304 305 304 310 308 315 314 308 289 281 291 288 290 291 289 289 291 291 291 289 287 283 283 286 287 290 291 288 290 287 284 277 276 275 275 279 278 281 286 286 287 288 290 292 293
303 304 304 307 312 315 310 297 283 287 289 292 292 290 287 290 288 289 288 287 289 285 283 282 281 289 291 289 287 285 284 278 271 272 275 280 278 283 287 289 291 291 291 292 293
302 299 299 307 309 311 302 285 286 291 293 291 291 287 287 288 288 287 286 286 289 288 284 282 282 288 289 289 291 286 282 284 279 269 274 278 281 287 288 291 291 292 293 293 294
295 295 296 306 309 307 293 287 291 297 297 293 287 289 285 286 286 285 285 288 288 290 287 286 281 286 288 289 289 286 289 282 279 271 269 276 277 281 285 289 290 291 292 293 293
293 288 295 303 308 299 286 288 292 299 300 294 291 287 287 286 286 285 286 288 290 289 290 286 285 283 286 285 285 285 284 283 284 280 273 271 277 285 287 290 290 291 291 292 294
290 282 297 302 295 293 289 293 296 297 300 297 296 294 289 288 286 286 287 288 293 291 287 289 286 280 283 286 287 286 285 285 279 277 277 278 279 287 290 290 291 291 291 292 292
286 285 296 301 287 287 288 292 295 295 295 294 293 295 295 292 288 290 289 293 293 292 289 291 285 277 281 284 286 284 285 286 285 282 277 276 279 289 288 288 289 289 290 291 292
286 280 286 293 291 287 286 287 288 293 294 295 294 294 291 288 292 290 291 293 294 295 296 294 287 283 280 282 286 284 286 287 285 280 280 280 282 286 287 290 291 291 291 292 292
287 281 283 279 286 284 286 287 287 286 291 293 291 291 290 287 287 287 290 292 293 294 293 291 284 286 287 288 288 286 286 287 285 284 281 283 284 287 291 291 290 291 292 292 292
285 281 284 281 283 286 285 284 285 287 288 287 287 290 291 287 288 286 290 290 290 290 291 290 284 286 283 286 286 284 286 286 286 286 286 286 286 293 291 291 290 291 291 290 291
286 288 285 283 281 282 283 283 284 287 288 289 289 288 288 290 291 291 293 293 292 289 287 285 282 279 279 281 283 278 281 284 284 286 286 282 287 290 288 289 289 290 289 289 290

GFSSW_sfc_thetae_084.txt.gz
Theta_e
321 322 322 323 324 324 323 323 322 322 321 323 322 323 322 324 323 316 306 309 312 322 318 304 303 301 302 300 299 297 291 288 290 289 291 291 293 292 295 295 298 299 302 305 321
321 322 321 323 323 323 322 322 321 321 321 321 321 322 323 323 314 308 319 325 324 322 304 302 299 300 298 297 297 294 289 291 292 291 291 293 293 294 296 296 297 299 303 311 321
321 321 320 322 322 322 321 321 320 320 320 320 321 322 322 319 306 303 323 324 323 318 304 302 301 299 295 295 294 292 290 292 292 293 295 295 291 294 294 293 296 297 300 313 317
321 321 321 321 321 321 320 320 319 319 320 320 321 322 322 314 289 307 322 322 321 308 304 300 298 294 293 293 295 293 292 292 295 295 294 294 294 292 293 296 295 297 302 312 317
320 320 320 320 320 320 319 319 319 319 320 320 321 322 314 302 301 307 318 317 307 305 301 298 296 295 292 294 294 290 290 293 294 294 293 295 293 292 293 295 294 296 306 312 318
319 319 320 319 318 319 319 319 319 319 320 320 321 321 305 292 309 307 306 306 304 302 300 298 297 296 293 292 292 293 291 292 293 292 292 290 290 293 292 292 292 296 301 309 314
319 319 318 318 318 318 318 318 319 320 321 321 321 314 299 297 308 305 305 304 304 303 299 300 298 295 294 292 293 292 289 289 289 292 290 291 287 290 292 291 291 293 294 302 309
318 318 318 318 318 318 318 319 319 321 321 321 321 308 293 307 307 305 304 303 304 304 302 302 302 299 295 294 292 288 286 284 286 291 290 288 284 288 291 292 291 290 291 294 298
318 317 317 317 317 318 318 319 320 320 319 320 308 298 292 312 303 304 303 302 302 301 302 304 300 294 293 288 285 285 280 282 285 291 290 287 285 289 291 292 291 291 291 292 293
317 317 317 317 317 317 318 320 319 316 312 310 304 294 297 298 305 304 303 303 299 300 299 297 293 289 286 285 280 282 281 282 281 286 289 287 288 290 291 291 292 292 291 291 292
317 317 317 318 318 319 314 305 297 296 299 294 294 294 297 304 305 301 303 301 298 295 289 291 288 285 288 286 284 284 284 282 284 289 287 286 287 290 292 290 291 291 291 291 292
317 317 318 318 319 320 312 298 296 298 291 298 296 299 302 304 298 299 302 295 293 288 290 288 285 289 290 288 287 284 283 283 285 289 288 285 287 289 290 291 291 291 291 291 290
312 315 318 319 320 315 309 306 310 306 292 297 297 297 299 301 295 297 300 295 290 288 287 286 287 291 289 286 286 284 283 283 283 284 284 283 283 284 287 287 289 290 289 289 289
309 310 312 314 313 311 308 310 311 306 289 292 293 296 299 299 293 301 299 296 290 288 288 286 289 289 287 285 286 282 288 286 285 283 280 283 276 282 285 287 287 288 289 290 291
307 308 309 311 310 308 309 312 310 301 276 292 295 300 297 293 294 296 298 295 290 289 289 286 289 287 286 287 289 285 288 286 284 281 281 279 278 282 282 283 287 288 288 290 292
305 306 307 313 313 312 313 312 306 288 275 291 294 292 291 292 292 295 295 296 294 290 288 286 290 289 288 289 288 289 286 284 281 279 276 278 278 279 281 284 286 287 290 291 292
303 304 304 305 307 315 314 306 289 280 290 288 289 290 289 289 290 291 290 288 287 283 282 286 286 289 290 288 289 285 283 277 275 274 274 277 277 280 283 285 285 288 290 291 291
302 303 303 304 306 315 310 296 283 286 287 292 290 288 286 289 288 289 288 286 288 285 283 282 280 288 290 288 286 284 283 278 271 271 275 279 277 281 285 289 289 291 290 291 292
301 300 300 304 308 310 302 285 284 288 292 290 290 285 285 288 287 287 286 287 288 287 284 282 282 287 288 289 291 285 281 283 278 268 273 277 280 285 287 288 289 290 291 291 292
295 296 297 305 309 305 295 287 290 295 295 292 287 288 283 285 286 285 285 288 287 289 287 286 281 286 287 289 288 286 287 281 278 270 269 275 277 279 285 287 288 289 290 292 292
294 289 297 304 306 296 285 287 292 298 298 292 289 287 286 285 286 285 285 287 289 288 289 286 285 283 286 285 284 284 283 282 282 279 273 270 277 283 287 288 288 289 291 291 291
291 284 297 303 293 290 286 291 296 297 300 296 294 292 287 287 285 286 285 287 292 289 286 288 285 280 282 285 286 284 284 284 279 276 276 277 278 287 290 289 290 290 290 290 290
286 286 296 301 286 286 289 292 295 294 294 294 294 295 293 289 285 287 287 292 292 290 288 289 283 275 280 283 285 283 284 284 283 282 276 276 278 287 287 288 289 289 289 291 292
286 281 286 293 291 288 287 288 289 296 294 294 292 294 291 289 291 289 289 292 293 294 296 294 285 282 279 281 284 283 285 285 284 279 280 280 281 285 286 288 289 290 291 291 291
286 282 284 281 286 287 287 287 287 287 293 295 291 291 289 286 287 287 290 290 292 294 293 292 285 286 285 286 286 285 285 285 284 285 282 283 283 287 288 290 290 291 291 290 291
285 282 284 282 283 285 286 284 285 287 289 289 288 291 291 287 288 286 288 288 289 292 291 290 285 285 283 287 285 284 286 286 285 285 285 285 285 292 292 292 290 291 290 289 290
286 288 285 283 282 283 283 283 284 287 288 289 290 290 289 290 293 293 293 293 291 289 289 288 285 283 280 282 284 281 284 284 284 285 286 284 287 289 289 290 290 290 289 289 289

GFSSW_sfc_thetae_087.txt.gz
Theta_e
321 322 322 322 323 324 324 324 324 324 323 324 322 323 323 323 323 316 305 310 313 324 318 305 305 304 304 302 302 300 293 291 292 291 294 295 297 297 299 300 300 307 305 311 323
322 322 322 321 323 324 323 323 322 322 321 322 321 322 322 323 313 308 318 325 324 323 304 302 301 302 300 300 299 297 292 293 295 294 294 295 296 297 298 298 299 301 306 317 324
321 322 322 322 323 323 323 322 322 321 321 321 321 322 321 319 305 304 326 325 322 317 305 303 302 301 298 298 297 295 293 294 294 295 296 296 295 297 297 295 299 300 303 317 321
321 321 322 321 322 322 322 321 320 320 320 320 321 322 322 313 289 306 323 324 321 308 303 301 300 297 295 294 297 293 294 294 297 296 295 295 296 295 296 299 298 300 305 317 320
320 320 321 321 321 321 321 320 320 320 320 320 321 322 314 302 303 308 321 318 307 305 301 299 297 296 294 295 295 293 293 294 296 295 294 295 294 294 295 297 297 299 308 316 320
319 319 319 320 320 320 320 319 319 319 320 320 321 321 306 293 307 307 306 306 305 303 300 299 298 297 294 294 293 294 293 294 294 294 294 292 291 293 294 295 295 298 302 310 318
318 319 319 319 319 319 319 319 319 320 320 321 321 313 300 298 307 305 305 304 304 302 300 300 299 297 295 293 294 293 291 291 292 293 292 293 290 292 293 293 294 295 296 302 310
318 318 318 318 318 318 318 319 319 320 321 321 320 306 295 307 306 304 305 303 304 304 302 302 301 298 295 294 292 289 288 286 289 292 292 291 287 289 293 292 293 293 294 295 298
317 317 318 318 318 318 319 319 320 320 320 320 307 297 291 311 303 304 303 302 302 302 302 303 299 295 293 289 286 285 283 284 286 291 291 289 287 290 293 293 293 293 294 294 294
317 317 317 318 317 317 318 319 319 314 312 311 303 294 297 298 304 303 302 303 300 300 299 297 293 290 287 286 282 283 282 282 283 288 289 288 289 291 293 292 293 293 293 293 294
317 317 317 317 318 318 317 307 298 296 298 294 294 294 296 303 305 300 302 300 297 295 290 292 287 285 288 286 285 285 283 283 285 290 289 287 288 290 292 292 292 293 292 293 293
317 317 318 318 319 320 306 297 296 298 291 297 296 299 302 303 297 299 301 295 293 288 290 289 284 288 289 287 287 285 283 283 286 289 289 287 288 290 291 291 292 291 291 292 291
315 317 317 318 320 315 306 305 309 305 291 295 296 297 299 301 295 297 299 294 290 288 287 286 287 290 289 286 286 283 284 283 284 285 285 283 284 285 288 289 290 289 290 292 292
310 311 315 319 313 310 306 310 310 305 288 291 292 296 299 299 292 300 298 295 289 287 288 286 288 288 286 285 286 282 287 286 285 283 280 283 278 284 285 288 288 289 289 291 293
307 308 310 313 309 308 309 310 309 298 275 291 292 299 298 293 294 295 298 295 289 288 288 286 287 286 286 286 287 285 287 286 284 282 281 281 280 283 283 285 287 289 291 293 293
305 306 309 312 313 310 312 310 304 286 274 290 292 291 291 291 293 295 295 295 293 290 288 287 290 289 288 288 288 288 286 284 282 280 276 279 279 280 282 285 286 290 292 293 293
303 304 305 306 307 313 312 305 287 278 289 288 288 289 287 288 289 291 290 287 286 283 282 285 286 288 290 287 289 286 283 277 276 275 275 278 278 281 284 286 289 291 292 292 293
302 303 303 305 306 308 307 296 276 284 285 291 289 288 286 289 287 288 288 287 288 285 283 281 280 287 289 288 286 284 283 279 273 272 275 279 278 282 286 288 290 291 291 292 292
301 300 300 304 309 309 301 287 284 287 291 289 288 284 284 287 287 287 286 287 288 287 283 281 281 287 288 288 290 285 282 283 277 268 273 278 281 285 288 288 289 291 291 291 292
295 296 298 304 309 304 296 287 288 294 293 292 287 287 282 285 285 285 285 288 287 289 288 287 281 286 287 289 288 285 286 281 278 270 269 275 277 280 285 287 289 290 291 291 291
294 290 298 304 305 295 285 287 292 296 296 292 289 287 286 285 286 285 285 286 289 288 288 286 285 283 286 285 284 284 283 282 282 279 272 270 277 282 288 289 288 290 290 291 291
290 285 297 303 289 286 285 291 296 297 297 295 294 290 287 287 285 285 285 286 289 290 286 287 285 281 283 286 286 285 284 284 279 275 275 276 278 286 290 289 290 290 290 291 292
286 287 296 300 285 285 287 292 296 296 296 294 293 293 293 287 285 287 286 292 292 289 287 288 283 274 280 283 284 282 283 284 283 282 276 276 278 286 288 288 289 289 290 292 291
286 281 286 293 291 288 286 286 288 296 294 294 293 294 291 288 291 287 288 291 293 292 296 293 284 281 279 280 284 282 283 284 284 280 279 280 281 284 285 287 288 290 291 291 291
285 281 284 282 286 287 290 287 287 287 293 294 289 291 290 287 288 287 291 289 291 293 292 290 281 283 283 284 284 284 284 283 283 285 282 284 283 287 287 289 290 291 291 290 291
282 281 284 282 283 286 288 285 286 287 291 290 289 290 290 287 289 286 289 289 289 291 290 290 282 284 282 286 284 283 285 285 286 284 283 282 283 289 290 290 290 291 290 289 290
285 287 284 283 282 283 284 284 285 288 290 290 291 290 289 290 293 293 293 292 291 288 287 287 285 281 279 283 283 281 284 285 285 286 287 283 287 289 289 291 291 290 290 289 289

GFSSW_sfc_thetae_090.txt.gz
Theta_e
323 322 322 323 324 324 325 325 326 326 325 326 324 323 322 323 323 318 307 313 316 325 318 309 309 310 310 308 308 307 302 299 300 298 300 303 303 303 306 306 309 313 311 319 332
323 323 323 323 323 324 325 325 325 324 323 325 323 323 323 322 313 309 319 325 325 325 309 308 307 308 307 306 306 306 302 302 304 304 303 303 305 305 304 304 305 308 312 324 331
322 322 323 323 323 324 324 324 323 323 323 323 323 322 322 320 307 305 326 328 327 321 310 309 308 307 304 306 304 303 301 302 301 301 303 304 302 305 304 302 306 307 309 322 329
321 321 323 323 323 323 323 323 322 322 321 322 322 322 321 316 292 310 327 328 325 313 308 307 305 303 303 302 302 300 299 301 300 301 301 302 303 302 304 305 306 308 311 322 327
320 320 321 321 323 323 322 321 321 321 321 321 322 322 316 305 304 312 322 322 313 310 306 305 303 303 300 302 301 300 300 300 301 300 301 301 301 302 303 305 304 305 311 318 324
320 319 320 320 322 322 321 321 320 321 321 321 322 321 310 296 310 312 311 310 309 309 304 305 304 304 301 301 301 300 301 300 300 300 300 300 299 300 301 302 302 304 308 315 322
319 319 319 319 321 321 321 321 321 321 321 321 322 315 305 301 311 310 309 309 309 308 305 306 305 303 303 299 299 299 297 298 299 299 299 300 298 298 301 300 300 302 305 309 317
318 318 318 319 320 320 320 320 321 321 321 321 322 311 299 310 311 308 309 307 309 308 307 307 307 303 301 301 298 296 298 294 295 298 298 298 296 296 301 300 301 301 303 304 307
318 317 318 318 319 319 319 320 320 321 321 321 310 305 297 313 306 308 308 306 306 306 307 306 306 301 299 298 295 294 292 292 291 296 297 296 296 297 300 301 301 302 303 303 303
317 317 318 318 318 318 319 320 320 318 315 312 305 300 302 301 306 306 307 307 305 305 304 303 301 298 298 296 289 291 290 291 292 294 296 295 296 298 300 299 302 303 303 304 303
317 317 317 317 318 318 319 312 304 301 304 298 299 297 299 306 307 304 306 304 302 302 297 297 295 293 295 296 294 294 291 291 292 295 294 294 295 298 300 300 301 303 302 302 302
317 317 317 318 318 319 315 304 303 304 295 300 298 301 305 306 299 302 306 301 300 294 296 295 292 296 295 293 293 291 292 290 292 294 294 293 295 298 298 297 297 298 299 299 301
317 317 317 317 318 316 311 306 312 308 296 296 299 300 302 303 298 299 303 299 296 293 293 292 293 294 293 291 291 291 291 290 291 291 292 291 292 293 294 295 296 296 297 299 300
314 316 317 317 313 313 309 315 314 311 291 292 294 298 302 302 296 303 302 299 294 293 293 293 292 292 292 290 293 288 293 292 290 291 288 290 287 292 292 294 295 298 300 301 302
308 310 315 318 313 309 312 314 314 304 280 294 293 302 301 297 298 298 303 299 293 292 294 291 290 290 291 292 293 290 293 292 291 291 290 289 288 292 290 292 295 298 299 301 302
306 307 310 314 315 314 314 312 309 290 280 291 294 293 293 295 296 298 299 300 298 294 293 292 294 294 293 291 293 292 292 290 290 289 284 288 288 289 290 293 295 297 299 300 300
303 306 307 309 309 315 314 310 292 283 292 289 289 291 293 291 293 295 294 293 291 287 287 291 291 294 294 291 292 292 291 284 283 283 282 284 284 291 291 293 298 297 298 299 301
302 304 304 307 308 312 311 298 283 288 288 294 292 291 288 291 291 291 292 290 292 291 288 286 284 291 294 293 290 291 291 286 280 279 282 283 283 289 292 294 298 299 299 299 300
301 301 301 305 310 310 303 287 286 289 293 290 290 287 287 290 291 291 291 291 293 292 288 286 285 291 292 292 294 289 287 290 282 277 283 286 288 290 292 293 296 296 298 298 300
298 298 299 305 308 306 297 289 291 296 295 293 287 289 285 287 288 289 289 293 292 292 293 290 284 289 290 293 292 291 292 286 286 280 280 282 284 289 289 292 295 295 297 297 299
296 293 298 303 306 295 288 290 294 298 297 293 291 288 288 286 288 287 288 290 294 292 293 291 290 286 290 289 289 288 287 287 289 286 284 280 284 293 293 295 295 297 298 298 299
293 287 299 305 288 285 285 292 296 297 300 297 295 292 289 289 288 288 287 290 293 292 289 291 289 285 287 290 290 290 289 290 286 282 283 283 287 291 295 297 297 296 296 298 299
289 289 297 302 285 285 285 291 296 296 297 295 294 295 293 289 286 289 290 294 293 292 290 291 288 282 283 288 288 287 288 290 288 287 283 283 286 291 295 295 297 296 296 297 297
289 284 289 294 293 286 285 286 290 297 297 296 295 295 292 290 292 288 289 293 295 293 296 294 288 287 283 286 290 286 287 287 289 285 285 285 289 289 292 294 295 296 297 298 298
289 284 286 285 286 287 288 287 285 287 293 294 291 293 292 287 290 289 291 292 293 295 294 292 287 287 289 289 289 289 288 287 287 289 286 288 287 290 293 295 296 297 298 296 295
286 285 287 284 285 287 287 286 285 286 288 287 288 291 292 289 291 288 291 292 291 293 292 292 286 287 285 288 288 287 289 289 289 290 290 289 288 295 297 297 295 296 296 295 296
290 291 288 284 284 285 286 286 286 288 289 290 291 289 287 289 293 294 295 294 292 291 290 290 287 286 283 285 287 284 287 288 289 291 291 287 291 293 293 293 295 296 296 295 296

GFSSW_sfc_thetae_093.txt.gz
Theta_e
324 324 323 324 324 325 326 327 327 327 327 327 327 326 325 325 325 319 308 313 316 325 319 311 312 312 313 310 312 311 303 301 302 302 302 308 305 307 309 308 311 314 313 321 331
324 323 323 324 324 324 326 326 326 327 326 327 325 325 324 324 316 308 318 324 324 327 311 309 307 309 307 308 309 307 303 303 307 306 304 306 306 306 305 306 307 311 317 328 330
323 323 323 323 324 324 325 326 325 325 324 325 325 324 324 321 306 304 327 327 327 324 313 312 311 308 305 307 307 307 303 306 305 306 307 306 306 308 305 304 307 307 312 325 328
322 322 323 322 323 324 325 325 324 323 323 324 323 323 321 315 293 311 328 329 329 317 311 308 308 305 303 302 306 302 303 305 304 304 305 305 307 305 306 306 309 311 314 323 324
321 321 321 322 322 324 324 323 322 322 323 323 323 322 316 304 303 315 327 326 318 313 309 307 304 304 301 303 303 303 302 303 304 303 304 304 304 304 305 308 308 308 313 318 322
320 320 320 321 322 323 323 322 321 322 322 322 322 322 312 298 311 316 316 314 312 310 309 308 305 307 303 303 303 304 304 303 303 302 303 302 302 302 305 306 306 306 310 315 319
320 319 319 320 321 322 322 322 321 322 322 321 322 316 306 302 312 314 312 311 311 311 307 309 308 305 305 302 303 303 300 301 301 302 301 302 299 300 304 303 303 304 308 311 316
319 318 319 319 320 321 321 322 321 321 322 323 323 313 299 312 313 309 311 309 310 310 310 310 308 306 304 304 301 299 301 296 299 301 300 300 297 304 303 302 303 304 306 308 312
318 317 318 318 319 320 321 321 320 321 321 322 312 309 298 313 306 309 311 306 307 309 309 308 309 304 301 298 296 297 293 295 294 299 299 299 298 300 302 303 302 303 304 305 307
317 317 318 318 319 319 320 320 320 320 317 314 308 302 303 302 308 308 309 309 305 306 304 304 303 299 299 297 290 292 293 294 294 296 297 297 297 300 301 302 303 304 305 306 305
317 317 318 318 318 319 318 316 306 304 306 299 300 299 301 306 308 306 308 306 306 303 297 301 296 293 296 298 299 298 295 293 296 297 296 296 297 299 302 302 302 304 305 305 305
317 317 318 318 318 319 317 304 304 306 297 302 300 302 306 306 299 303 307 301 300 295 300 296 293 298 299 298 296 296 294 293 294 296 296 296 296 299 301 301 301 302 302 303 303
317 317 317 317 318 316 313 307 312 309 297 297 300 301 303 305 299 300 304 302 298 295 296 293 295 297 295 293 293 294 294 293 293 294 295 294 293 297 297 298 299 299 300 301 303
316 316 316 317 312 312 309 311 315 313 292 293 295 298 303 303 297 304 305 301 298 294 295 295 294 294 294 293 295 290 295 295 293 292 288 294 288 294 296 296 298 300 302 303 304
315 315 316 316 311 307 310 315 316 309 281 295 295 303 303 297 298 299 304 300 295 295 295 291 292 292 292 293 296 292 295 294 294 292 291 291 288 293 294 294 297 300 302 303 305
309 311 315 315 316 313 317 315 311 290 281 291 295 294 295 296 297 299 299 301 300 295 296 293 295 296 295 294 296 295 294 293 294 291 284 290 289 291 292 294 297 300 301 302 303
306 308 311 315 308 316 316 310 291 284 294 290 290 294 293 292 294 295 294 293 291 288 288 292 291 294 295 291 294 295 291 284 283 283 282 287 287 291 293 296 299 299 300 302 303
304 306 307 308 310 315 313 298 283 289 290 295 293 293 290 292 292 294 292 290 295 293 290 286 284 292 295 294 291 292 291 286 281 281 284 284 283 290 295 297 301 301 301 302 303
303 303 304 306 309 312 303 286 287 290 294 292 292 288 289 291 291 292 292 291 294 295 289 287 287 293 294 295 295 291 288 293 284 281 285 287 290 293 294 296 298 299 299 301 302
301 299 299 305 307 307 296 289 291 296 297 294 287 290 286 289 289 290 290 294 293 295 296 292 285 291 291 294 294 292 294 286 287 281 280 284 287 289 289 292 296 297 298 300 302
299 291 299 304 305 299 288 291 294 299 298 293 291 289 289 288 290 289 290 294 296 294 294 293 291 286 291 289 289 289 288 289 290 288 286 283 285 294 294 295 296 298 300 300 301
295 287 298 304 288 287 289 295 296 298 300 297 296 293 290 290 288 289 289 292 297 295 290 293 291 285 287 291 292 293 291 290 285 283 285 285 287 294 297 297 299 299 300 301 302
290 291 298 299 284 285 287 292 296 296 297 296 295 295 294 290 286 290 291 294 294 293 292 292 289 283 284 289 290 289 291 293 292 291 286 285 287 293 295 298 299 299 300 300 300
291 285 290 294 289 286 285 287 290 298 297 298 297 297 293 290 293 289 291 294 295 294 295 295 291 287 283 287 290 287 289 290 290 286 286 287 289 290 295 296 298 299 299 299 299
291 285 288 285 287 287 287 286 286 289 296 298 295 295 293 289 290 289 292 293 294 295 294 293 287 289 290 292 291 291 289 290 288 289 286 289 289 293 294 297 298 300 299 299 298
288 286 288 286 287 286 286 287 285 286 288 291 292 294 295 292 292 290 292 292 292 294 292 293 288 289 287 290 289 288 290 290 289 290 290 290 290 297 298 299 298 298 298 298 298
293 294 290 285 285 285 285 286 286 288 288 288 292 292 291 294 296 297 298 297 296 293 291 291 288 286 285 287 288 284 287 290 290 292 292 288 292 296 295 297 298 297 298 298 298

GFSSW_sfc_thetae_096.txt.gz
Theta_e
324 325 324 323 323 325 327 327 328 329 329 328 328 326 325 323 323 316 308 314 317 327 320 309 309 309 311 309 311 310 300 297 299 298 299 304 301 302 302 303 305 308 313 320 327
323 324 323 324 324 324 326 326 327 327 328 328 328 326 325 324 314 309 319 330 329 328 310 306 305 308 304 306 306 302 298 300 302 301 301 303 302 301 299 302 302 307 317 324 326
323 323 323 324 324 324 325 326 326 327 327 327 326 325 324 321 307 305 324 327 328 327 312 310 309 307 302 304 304 302 299 303 302 302 305 303 300 303 299 298 302 304 315 321 323
322 322 323 324 324 324 324 325 325 325 325 325 325 324 323 315 295 311 328 328 329 318 311 308 306 303 300 299 303 299 302 302 302 301 302 301 302 300 299 298 304 306 316 321 321
321 322 322 322 323 323 323 324 324 324 324 324 324 323 315 303 304 316 327 329 322 312 307 306 303 303 299 301 301 300 299 301 301 300 301 303 300 298 299 301 303 306 315 318 319
320 321 321 321 322 323 323 324 323 323 323 323 323 322 311 296 312 317 318 318 313 310 307 307 304 305 301 301 300 301 301 299 300 300 300 300 298 297 298 302 302 304 306 313 317
320 320 320 320 321 322 323 323 322 322 322 322 323 314 304 302 311 314 315 311 312 310 306 308 307 304 302 300 301 301 296 298 298 299 298 299 295 296 298 300 300 300 302 307 313
319 319 319 320 320 321 322 322 322 322 322 323 323 312 299 314 311 310 311 309 310 311 309 310 307 305 302 301 299 296 295 291 295 298 297 296 292 298 299 298 297 298 299 303 307
319 318 319 319 319 320 321 321 321 321 322 323 313 308 298 312 305 308 309 306 307 308 308 307 307 301 300 293 291 293 288 291 291 298 296 294 291 295 297 297 296 296 298 301 303
318 317 318 319 319 319 320 320 321 321 318 315 310 301 302 301 306 307 308 308 305 305 302 303 300 296 294 291 285 288 287 292 289 293 293 291 291 295 296 297 296 295 296 298 299
318 317 318 318 319 320 318 315 307 303 305 298 299 299 301 305 308 305 307 305 304 301 295 298 293 290 292 293 294 294 291 289 291 294 292 291 291 294 296 295 295 296 297 299 300
317 317 318 318 319 319 315 303 303 305 296 303 300 302 305 305 299 302 306 299 299 293 297 294 289 295 297 296 294 291 290 289 291 294 291 291 291 294 295 295 296 295 296 298 297
317 317 317 318 318 316 311 306 310 307 295 298 300 301 302 304 299 299 302 300 296 293 294 291 293 297 294 291 291 290 290 288 289 291 291 287 287 291 293 294 294 294 294 296 296
317 317 316 317 311 310 308 313 314 311 290 291 294 299 303 303 297 303 303 300 295 293 294 293 294 293 292 290 292 288 292 293 291 288 282 288 279 287 289 291 293 295 294 295 297
316 316 316 315 308 306 310 314 314 308 280 293 294 304 303 297 297 297 302 299 293 293 293 290 290 290 290 291 294 290 293 292 291 288 284 283 281 284 290 289 291 295 296 298 299
316 316 315 312 312 310 313 313 310 290 280 289 294 294 294 296 296 297 297 299 298 293 293 291 293 293 292 293 293 294 291 291 289 286 279 284 282 282 285 289 292 295 297 299 298
310 315 313 312 306 314 314 307 288 280 293 288 288 293 292 291 293 293 292 290 289 285 286 289 289 292 293 289 291 290 287 279 277 277 277 282 282 285 288 291 294 295 296 297 298
307 312 309 309 312 314 309 294 280 286 289 294 292 292 288 291 291 292 290 287 291 289 287 284 282 289 292 290 288 288 287 281 274 276 278 281 279 285 289 292 296 297 296 297 298
306 304 304 305 310 311 300 284 283 288 292 291 291 287 288 290 290 290 289 288 291 291 285 284 285 291 292 292 292 287 284 288 281 274 277 280 284 289 291 291 295 295 296 296 297
299 299 299 304 307 307 294 286 289 296 295 293 286 289 285 287 287 288 288 292 291 293 292 289 282 289 289 291 291 289 290 282 283 272 272 279 279 282 286 289 293 294 294 296 297
297 290 298 304 306 298 287 288 292 298 297 292 289 287 288 287 288 287 288 291 294 293 293 289 288 284 288 287 286 286 285 286 286 284 277 274 278 286 289 291 293 294 296 297 296
295 286 299 302 290 290 287 292 296 296 299 295 295 291 289 289 287 288 287 290 295 294 289 291 289 281 284 288 289 288 288 287 282 279 280 281 280 290 290 293 294 295 297 297 297
291 289 299 297 284 285 289 292 295 296 296 295 294 294 292 289 286 289 289 292 294 293 290 291 286 279 281 286 288 287 288 289 288 285 280 277 280 290 290 292 295 295 296 297 297
291 285 289 291 286 285 287 289 290 298 295 297 296 295 291 289 291 288 290 293 294 293 296 295 289 285 281 283 287 284 287 288 287 280 280 281 284 287 289 292 294 295 297 297 297
291 286 288 283 285 287 286 287 288 289 296 297 295 294 291 287 287 288 291 291 293 294 292 292 284 286 287 288 288 287 287 287 285 287 283 286 286 288 290 293 295 297 296 296 296
288 285 287 286 287 287 286 286 286 289 290 292 292 294 293 289 289 287 290 290 289 292 290 291 283 286 281 287 287 284 287 288 288 288 288 288 286 291 294 296 294 296 296 296 296
292 293 289 286 286 284 284 286 286 288 288 288 291 293 292 293 295 295 296 295 294 290 289 287 285 283 280 284 284 280 284 287 288 289 288 285 290 291 291 294 294 295 296 296 296

GFSSW_sfc_thetae_099.txt.gz
Theta_e
324 325 325 325 325 326 326 327 328 328 328 327 326 326 324 322 322 316 307 315 316 328 321 313 317 316 312 304 306 304 296 293 296 295 295 299 298 300 301 303 304 308 312 317 326
324 324 325 324 325 325 326 326 327 328 328 327 328 326 324 321 312 309 319 329 329 329 309 313 313 315 304 302 302 298 295 297 299 298 297 299 299 299 299 299 301 313 321 324 325
323 323 323 324 324 325 326 326 326 327 327 327 327 325 323 319 307 307 323 326 329 328 311 312 314 310 301 301 299 297 295 300 298 300 302 299 297 299 298 295 302 313 318 320 321
322 323 322 324 324 324 325 326 325 326 327 327 326 324 322 314 300 311 326 329 328 322 310 308 308 306 299 297 301 295 299 299 300 299 300 299 299 297 297 297 303 317 320 320 319
321 322 321 323 324 324 324 325 325 325 325 326 325 323 314 303 305 315 325 329 323 315 307 305 305 307 298 299 299 296 296 299 299 299 299 300 297 297 296 297 304 315 319 319 319
320 320 321 321 322 323 324 324 324 324 324 325 324 322 307 294 310 320 321 320 315 309 306 305 305 307 300 299 297 298 298 297 297 297 298 297 294 296 296 298 303 313 315 317 318
320 320 320 321 321 322 323 324 324 323 324 324 324 314 302 301 309 314 318 315 312 309 304 306 305 302 301 297 300 297 294 294 295 297 297 297 293 293 297 298 299 301 307 314 315
320 319 319 320 320 321 322 323 322 322 323 324 323 309 298 311 308 310 311 308 310 311 307 308 306 303 300 298 296 294 292 288 293 296 295 295 290 296 296 297 296 297 297 303 310
319 319 319 319 319 320 321 321 321 322 322 323 310 305 296 311 303 307 307 304 306 306 305 306 304 299 297 291 288 289 285 287 290 295 294 293 289 294 296 295 294 294 296 300 302
318 318 318 319 319 320 320 320 321 320 319 316 310 297 301 299 304 306 306 306 302 302 300 300 298 293 290 287 282 284 284 287 287 292 292 289 289 292 295 295 295 294 294 297 299
318 318 318 319 319 320 318 314 305 301 305 297 298 296 300 303 306 303 305 303 302 298 291 296 291 288 289 290 291 290 288 287 288 292 291 289 289 292 293 293 294 292 294 294 296
318 318 318 318 319 319 314 301 301 303 295 303 301 300 303 303 297 300 304 297 296 291 294 292 288 293 295 293 292 289 287 285 289 292 289 289 290 292 292 293 294 294 294 296 294
318 317 317 318 318 314 308 303 308 304 293 297 300 299 300 302 297 297 301 297 294 291 291 289 292 295 294 291 290 289 287 285 287 289 289 286 285 290 293 292 293 293 294 295 294
317 317 317 317 311 310 306 312 310 307 286 290 293 298 302 301 295 301 301 297 293 291 292 290 294 293 291 289 290 286 291 290 289 286 281 285 278 284 288 290 291 293 292 293 297
317 316 316 316 309 306 307 313 310 305 276 291 292 303 301 296 295 296 300 296 291 291 291 289 290 290 289 290 292 288 292 290 289 286 283 282 279 282 287 287 290 291 293 293 296
316 316 316 312 310 310 311 311 306 288 277 287 293 293 293 293 294 296 295 296 295 292 291 289 292 292 292 291 292 293 290 288 286 284 278 281 280 280 284 287 289 291 293 295 296
311 315 314 312 304 311 311 305 285 279 290 285 287 292 290 289 291 291 290 288 287 284 284 287 287 290 292 289 291 290 285 278 276 277 276 279 279 283 287 289 291 293 294 295 295
308 315 312 310 310 311 307 292 278 285 286 291 289 290 286 289 288 289 287 285 288 287 285 282 281 288 291 289 287 286 285 278 273 274 276 279 278 283 288 292 294 296 295 295 295
309 307 305 304 311 311 298 283 281 285 290 288 289 286 283 288 288 287 287 288 288 288 284 282 283 290 290 291 291 285 283 287 280 271 276 278 281 287 289 290 292 293 294 294 295
299 299 298 304 308 306 292 285 286 292 292 290 284 286 281 285 284 284 285 289 288 290 289 287 282 288 289 290 290 287 289 282 281 274 272 276 277 280 285 287 291 292 293 294 295
295 291 297 303 307 297 286 286 290 296 294 289 286 285 285 284 285 284 285 288 291 291 292 288 287 284 287 286 285 285 284 284 285 281 274 272 277 285 288 289 291 293 294 295 295
292 284 296 301 292 290 287 289 294 294 297 293 291 289 287 286 284 285 284 287 293 293 288 289 286 281 283 287 288 287 286 286 281 278 279 279 279 288 289 289 293 293 294 295 296
286 287 297 297 284 285 289 291 293 294 295 294 291 291 290 287 284 286 287 290 292 292 289 291 285 278 281 285 287 286 287 287 286 282 278 275 279 288 288 289 293 293 293 296 295
290 284 287 288 287 287 286 288 288 296 295 296 293 293 289 287 288 286 287 291 293 292 296 295 288 283 280 282 286 283 285 286 285 279 280 280 283 286 287 289 291 292 295 296 295
288 284 287 282 284 286 289 288 287 288 293 295 292 291 289 285 287 286 290 289 291 293 292 292 282 284 285 286 286 286 286 286 285 287 282 286 285 286 288 290 293 294 295 296 295
285 283 287 285 286 286 286 285 287 287 290 290 289 292 291 287 287 285 289 288 287 290 288 290 282 285 281 285 286 284 286 288 288 287 287 287 286 290 291 292 293 294 295 295 295
289 290 288 287 285 283 283 286 288 291 288 290 290 291 291 292 294 293 293 293 292 289 287 287 284 281 281 282 283 280 285 285 287 289 288 284 289 289 290 292 294 294 296 296 296

GFSSW_sfc_thetae_102.txt.gz
Theta_e
325 325 326 326 327 328 329 329 328 329 328 329 327 325 323 323 322 315 306 314 317 330 324 314 318 319 315 303 304 301 294 292 295 292 294 298 297 297 300 302 306 309 314 319 324
324 324 325 325 326 326 327 329 327 327 327 328 327 326 322 321 312 309 318 325 330 329 317 316 314 313 305 302 301 296 293 296 299 296 297 298 298 298 299 299 308 312 317 324 322
323 323 324 324 325 326 326 327 327 327 327 326 327 325 321 318 312 312 326 327 331 328 318 319 317 310 305 304 299 297 294 299 299 298 300 299 296 296 298 294 306 312 317 321 320
322 322 323 323 324 325 326 326 327 327 327 327 326 324 321 314 298 314 328 328 328 319 318 318 315 308 303 299 301 295 298 298 300 300 299 298 298 295 295 297 306 318 321 320 320
321 321 322 322 324 324 324 325 326 326 326 326 325 323 313 303 308 314 327 328 322 314 311 313 312 307 302 301 300 296 296 297 298 299 298 298 295 296 296 296 312 318 320 319 320
321 320 321 321 323 324 324 325 325 326 326 326 325 321 305 300 311 315 318 322 318 311 306 316 313 312 306 302 299 299 297 296 297 296 296 296 294 296 296 299 313 317 316 318 319
320 320 320 321 322 323 323 324 325 324 325 325 324 311 302 302 307 317 321 318 315 309 305 309 316 312 308 300 306 299 292 293 293 295 295 296 292 292 296 302 311 313 315 317 318
320 319 319 320 321 322 322 323 323 323 324 325 323 307 295 307 308 313 313 311 312 310 307 308 312 311 301 300 297 294 291 287 291 295 293 293 288 294 295 299 305 307 308 314 316
316 318 319 319 320 320 321 322 322 323 324 323 309 301 294 311 304 307 308 306 308 309 307 306 307 299 299 292 290 288 285 286 288 294 292 291 289 294 294 295 295 296 299 305 311
314 318 319 319 319 319 320 321 321 321 319 313 309 297 299 297 303 305 304 305 304 303 300 299 297 293 292 289 285 285 285 285 285 291 290 289 290 291 293 293 293 292 293 296 301
314 318 318 318 319 320 318 313 304 302 305 297 298 297 297 302 304 302 304 302 303 299 293 295 291 289 292 289 291 290 288 287 286 290 289 289 289 291 292 292 291 291 292 294 298
315 318 318 318 319 319 313 302 302 303 295 302 301 300 301 301 296 299 303 296 296 291 294 292 289 294 295 293 291 289 287 285 287 289 288 287 289 290 291 291 292 293 292 295 295
316 318 317 318 318 314 307 303 307 304 291 295 299 298 299 300 295 296 299 297 293 290 291 288 291 294 293 290 289 286 286 285 286 288 287 285 285 288 292 291 291 292 292 293 294
312 317 317 317 312 311 304 309 307 304 286 288 293 297 300 300 293 300 300 297 292 291 290 290 293 292 291 290 291 285 290 289 287 284 281 284 279 282 289 290 291 292 292 293 293
310 317 317 317 310 305 307 311 308 302 276 289 291 302 300 295 295 295 299 295 290 290 291 289 289 289 289 291 291 288 291 290 288 283 282 281 279 281 285 286 289 291 291 292 294
309 316 316 314 311 311 309 310 304 287 277 286 292 293 292 293 294 295 295 295 294 290 290 290 291 292 292 291 292 292 289 287 285 282 278 280 280 279 283 287 290 289 291 292 294
308 315 314 313 305 311 309 303 285 278 289 284 286 292 290 288 289 290 290 288 286 283 285 286 287 289 291 289 291 289 286 278 276 276 276 278 277 283 285 288 289 291 291 293 295
307 313 313 310 312 311 305 291 278 284 284 288 289 290 286 289 288 288 287 287 288 287 283 283 280 287 290 289 287 285 286 278 272 273 275 279 278 284 287 288 290 291 293 293 294
306 312 306 305 311 310 297 283 281 285 289 287 289 285 284 288 288 286 286 288 288 287 283 282 282 289 289 290 291 286 283 286 279 271 276 278 280 286 288 289 290 291 293 293 293
298 303 298 304 311 306 292 285 285 291 291 290 283 286 282 286 285 283 284 290 288 289 289 286 281 287 288 290 289 288 289 283 280 272 272 277 277 280 284 287 290 290 292 292 293
295 292 297 303 308 298 286 286 289 293 292 288 286 284 284 285 285 283 284 286 290 289 289 288 286 283 287 286 285 285 283 283 284 281 276 272 278 284 287 289 289 291 292 293 293
290 285 296 304 292 292 288 289 293 293 294 293 290 288 286 287 284 284 283 287 292 290 286 288 286 280 283 287 288 286 286 285 282 279 279 279 279 287 287 289 290 292 293 293 294
285 285 296 298 284 286 290 291 292 293 293 292 289 290 289 287 284 285 286 290 291 291 288 290 284 277 281 284 286 285 285 286 285 282 279 276 279 286 287 288 289 292 293 294 293
288 283 285 288 287 288 287 288 288 295 295 294 292 291 288 286 288 285 286 289 292 293 296 294 286 283 280 282 286 283 285 285 285 279 278 280 282 284 286 288 290 292 293 294 294
289 284 285 282 285 289 290 288 287 288 293 293 290 289 288 284 286 285 288 288 289 293 292 291 281 284 283 285 286 285 286 286 284 287 282 285 282 287 287 288 290 292 293 294 294
284 285 287 285 285 289 290 287 287 287 289 287 288 290 290 286 288 284 288 287 286 288 288 289 279 283 281 285 285 283 285 287 287 286 285 286 284 288 289 290 291 292 294 294 295
289 290 288 286 284 284 285 287 288 290 288 290 290 291 289 291 293 292 293 292 291 288 287 287 283 280 281 283 284 280 284 285 286 288 287 284 289 288 288 290 292 292 294 295 296

GFSSW_sfc_thetae_105.txt.gz
Theta_e
325 325 326 326 326 327 328 329 330 329 327 328 326 325 324 323 322 314 306 314 320 331 324 314 316 315 311 304 302 300 293 291 293 291 293 297 296 297 300 302 304 309 314 318 325
325 325 325 325 326 327 328 328 329 328 328 328 325 325 323 322 312 307 318 321 326 332 314 312 312 311 305 303 301 295 292 295 298 295 296 297 296 298 301 303 306 309 315 322 326
323 323 324 325 325 326 327 328 328 327 327 327 326 325 322 318 310 309 327 324 324 325 320 319 315 311 305 305 300 295 292 297 299 297 298 298 295 296 299 296 307 309 316 319 324
323 322 323 323 325 326 326 327 326 327 327 326 326 324 320 311 293 316 327 331 329 321 321 318 313 307 304 301 303 293 297 296 299 298 298 296 297 296 297 298 306 315 320 319 322
322 321 322 323 323 325 325 326 326 326 326 326 325 322 312 306 309 313 327 328 320 316 316 315 310 307 303 303 303 296 297 297 298 297 297 297 294 295 296 296 314 317 320 318 321
320 321 320 321 322 324 325 325 326 326 326 326 324 321 306 302 314 314 319 318 315 309 313 316 313 311 306 304 302 301 300 296 297 295 295 296 293 295 296 302 313 316 317 318 318
318 320 319 321 321 323 323 324 325 325 325 325 323 312 304 308 307 314 319 318 315 309 312 316 315 312 307 302 307 303 298 298 294 294 293 295 291 293 294 307 312 314 315 316 318
314 319 319 320 321 322 323 324 324 324 324 325 322 308 302 307 309 316 315 312 314 310 309 314 318 312 306 305 300 297 293 287 293 294 292 293 289 294 295 308 309 310 310 313 315
315 318 319 319 320 320 322 323 323 324 324 323 310 302 295 311 304 308 311 311 310 308 307 307 313 303 303 294 292 292 287 285 289 293 291 290 289 293 293 303 307 307 309 311 314
315 315 318 319 319 320 321 322 322 322 317 312 309 294 298 297 302 306 303 312 307 305 302 299 301 297 297 292 285 287 285 286 287 290 289 288 290 290 291 295 301 302 303 306 311
315 314 318 318 319 320 319 314 306 305 305 297 298 295 296 300 304 301 302 302 306 303 293 295 291 289 294 297 292 290 289 287 289 291 289 288 289 291 290 288 290 292 293 296 303
314 314 318 318 319 319 314 305 302 304 296 301 301 298 300 300 295 298 302 296 296 293 295 292 288 293 295 293 292 289 288 287 288 290 288 286 288 288 289 290 291 292 291 291 293
311 314 318 318 318 315 309 302 308 305 292 295 299 297 298 299 294 295 298 295 293 290 291 288 290 295 293 291 290 288 288 286 287 288 287 285 286 286 290 289 290 292 291 291 294
309 312 316 317 312 311 305 307 309 301 285 288 293 296 299 298 292 299 299 295 291 290 291 291 294 293 291 291 292 287 289 289 287 285 281 285 279 283 287 289 289 291 291 292 292
308 311 314 317 311 306 307 308 306 300 274 289 291 301 299 293 294 294 298 293 288 289 289 287 290 291 290 291 292 289 290 289 288 284 281 280 279 281 283 286 289 290 292 292 292
308 310 311 314 312 311 311 309 302 285 274 285 291 291 291 292 292 293 294 294 293 289 289 289 291 294 293 293 293 292 289 287 285 283 278 282 281 280 282 286 289 293 292 292 292
307 308 310 315 307 311 310 302 284 275 286 283 286 290 289 287 288 290 290 287 284 281 284 284 286 288 291 289 290 290 286 279 278 277 278 277 278 286 284 286 288 289 292 292 291
307 307 311 313 314 310 306 291 271 283 283 287 288 289 286 288 286 287 288 286 287 285 283 282 281 286 290 289 287 286 287 279 272 273 276 279 277 282 287 286 288 289 289 290 292
306 306 309 311 312 309 297 283 281 283 287 286 287 284 282 287 286 285 286 287 288 285 282 282 282 287 288 289 291 285 282 287 279 271 275 277 280 285 286 287 289 290 289 291 292
298 300 302 311 311 305 292 286 284 290 289 290 282 285 281 285 283 283 284 290 289 288 287 285 281 286 287 289 289 288 289 283 281 272 271 276 277 279 282 288 288 289 290 291 292
294 293 298 301 309 298 286 286 287 291 292 287 284 283 283 284 285 284 284 286 292 288 288 286 284 282 287 285 284 284 283 283 285 281 275 272 277 284 287 289 289 290 290 291 292
289 285 297 297 292 292 288 288 293 290 291 290 288 286 285 286 282 284 282 287 292 289 285 287 284 279 282 285 286 286 286 287 283 279 277 278 278 285 287 287 288 290 292 292 292
285 285 296 295 285 286 291 290 291 291 291 288 287 288 287 286 283 285 285 290 292 291 288 289 283 276 280 284 285 284 285 286 285 283 279 276 281 285 287 288 289 290 292 293 293
288 283 286 289 288 290 288 288 287 292 292 292 289 289 287 286 288 285 286 289 291 292 295 293 285 283 279 281 285 282 284 285 285 281 280 280 283 285 286 288 289 291 292 293 293
288 283 284 282 284 290 291 289 285 287 292 292 287 287 287 283 284 284 287 288 290 293 292 290 282 283 282 284 286 285 285 285 284 286 282 286 283 287 288 288 289 291 292 292 293
283 285 286 285 286 288 289 287 287 286 289 287 286 287 288 285 286 283 287 287 287 288 290 288 279 283 281 284 284 283 286 286 286 287 286 286 284 288 288 289 290 291 292 293 294
288 292 287 285 284 286 286 287 288 288 289 289 290 289 287 290 291 291 292 291 290 288 288 287 281 277 275 282 282 279 283 285 286 288 288 283 288 287 286 288 290 291 293 294 295

GFSSW_sfc_thetae_108.txt.gz
Theta_e
321 326 326 326 325 325 327 328 328 329 326 328 327 326 325 325 325 317 307 315 317 330 323 314 315 315 313 305 304 302 296 290 292 290 292 295 295 296 299 305 304 310 312 317 324
320 325 325 325 325 325 326 327 327 328 327 327 326 325 325 323 310 306 317 326 329 331 312 310 309 313 308 306 302 298 293 294 297 293 293 295 296 297 299 303 305 309 315 323 325
318 324 324 324 324 325 326 326 327 328 327 326 325 324 323 318 304 303 326 329 328 323 319 316 313 310 306 305 301 297 295 295 297 295 296 296 294 296 299 299 305 308 315 322 323
319 323 323 324 324 325 326 326 327 327 327 325 325 324 321 309 295 311 329 329 328 320 321 314 310 306 303 301 303 295 297 296 297 297 295 295 295 295 298 299 303 312 319 322 321
316 322 322 322 323 324 325 325 327 327 326 325 325 322 312 303 305 319 327 327 320 319 317 314 307 307 301 302 303 298 296 299 298 296 296 296 293 293 295 297 309 316 319 320 321
317 321 320 321 322 324 325 326 327 326 326 326 324 321 308 298 312 320 322 317 316 317 315 316 311 311 306 304 302 302 302 300 299 296 294 293 291 293 294 305 312 317 316 319 321
313 320 320 320 322 323 324 325 326 326 325 326 323 312 307 304 306 317 317 312 314 316 314 314 314 311 307 303 306 303 299 301 299 295 294 293 290 292 292 307 311 313 314 315 319
313 313 319 319 321 322 323 325 325 325 325 325 321 307 305 309 314 314 314 311 310 312 315 314 317 311 307 304 302 301 296 293 300 293 294 292 289 293 296 306 308 310 310 312 314
313 313 316 319 320 321 322 323 324 325 325 321 310 305 300 311 306 312 311 309 306 306 311 313 314 307 302 298 295 296 292 292 295 293 291 292 289 292 295 304 305 307 308 310 312
312 312 312 319 319 320 321 323 323 323 318 314 310 301 301 298 304 309 306 311 304 303 300 301 300 299 297 297 290 290 291 289 293 290 289 288 290 290 290 301 304 305 306 307 310
312 312 312 318 319 320 320 317 310 305 306 299 299 296 297 300 306 302 306 309 308 300 292 295 292 292 295 294 293 293 292 291 289 292 288 288 289 293 290 288 294 300 302 304 308
311 312 313 318 319 320 318 309 308 307 296 300 302 299 299 301 297 300 305 301 302 293 294 292 288 294 297 296 294 290 287 289 290 290 287 285 288 290 288 289 291 295 295 299 300
309 312 313 317 318 317 313 307 311 307 295 296 300 298 297 298 294 295 299 297 299 294 292 289 291 295 294 291 291 290 287 286 288 288 288 285 286 286 289 288 289 290 291 292 296
309 310 312 313 313 313 308 309 310 301 287 288 294 297 298 297 292 298 299 296 291 293 293 290 294 292 290 289 290 286 291 289 288 289 284 286 280 284 287 289 288 290 289 291 291
307 309 311 312 312 308 306 310 307 300 277 290 292 301 298 293 294 294 296 293 288 288 289 287 290 289 288 290 292 289 291 289 288 285 282 283 279 283 282 285 287 289 291 292 293
306 308 311 310 313 311 310 308 302 285 275 286 292 291 292 291 291 293 293 293 293 289 288 288 289 291 290 292 293 292 291 288 285 284 278 284 281 281 282 285 287 292 291 293 292
306 307 308 311 307 310 309 301 284 279 286 283 285 290 289 286 287 292 289 285 285 281 282 284 284 287 292 288 292 290 288 280 278 276 277 278 278 285 286 286 289 291 293 293 291
305 306 307 308 312 310 304 290 273 282 282 286 287 289 285 287 285 286 288 284 286 284 283 282 279 285 287 288 286 287 288 281 274 274 277 279 278 282 288 288 288 288 289 288 290
305 303 305 308 311 309 296 282 281 284 285 285 287 285 282 287 286 286 287 287 287 285 282 281 281 285 286 287 290 283 284 288 280 273 275 279 281 285 287 288 288 288 289 289 290
295 299 302 309 311 304 290 285 283 288 289 289 282 285 281 284 282 284 286 289 288 287 285 284 280 284 286 287 286 287 289 282 281 275 272 277 277 281 283 287 290 289 290 292 290
292 294 299 303 309 296 285 286 286 290 292 286 283 282 284 284 283 283 285 286 291 286 286 285 283 281 285 283 282 282 283 283 285 281 276 272 279 284 287 289 290 291 289 290 291
291 286 297 300 292 290 287 287 292 288 289 288 287 284 285 286 281 284 282 287 293 290 284 286 283 278 280 284 285 284 284 286 282 278 277 278 282 285 287 287 287 288 290 292 292
287 286 295 296 283 285 291 290 290 288 288 287 285 286 286 286 282 283 284 288 291 290 287 287 282 272 279 282 283 282 283 285 284 282 280 277 282 286 286 287 288 289 290 291 291
288 281 286 287 285 286 288 288 287 291 289 289 287 287 286 284 285 283 283 287 291 292 295 293 285 281 278 279 283 281 282 282 284 279 281 280 281 286 286 287 287 289 291 291 292
288 283 284 282 284 286 291 289 284 286 289 290 285 287 286 281 283 282 285 286 287 293 291 290 284 283 281 283 285 285 285 285 284 286 282 286 285 287 289 288 288 289 291 292 292
283 283 286 284 285 286 290 288 286 286 288 287 284 286 286 283 286 282 286 285 285 287 288 287 278 282 279 282 283 283 285 286 286 287 286 287 285 287 288 288 288 290 291 292 293
288 291 287 284 284 284 287 288 288 289 289 290 288 287 285 286 289 290 292 291 290 288 287 286 280 277 274 280 281 278 283 284 285 287 288 283 289 287 286 287 289 289 291 292 293

GFSSW_sfc_thetae_114.txt.gz
Theta_e
318 318 318 318 319 318 326 329 329 329 330 329 329 327 327 327 327 321 311 318 319 328 330 321 320 317 314 310 309 309 304 300 302 300 303 308 306 308 312 315 317 319 319 325 330
318 318 317 317 318 320 324 327 328 328 329 329 328 327 327 327 318 313 322 327 327 332 321 321 318 316 309 306 306 306 303 303 304 303 303 307 309 307 310 312 313 316 323 329 329
319 318 317 317 318 320 320 326 326 327 328 327 327 326 326 323 310 309 325 329 331 328 322 322 321 316 308 307 303 302 305 305 301 303 303 304 304 309 309 308 312 313 320 323 326
318 319 317 317 319 320 319 325 325 326 327 327 326 326 324 315 299 311 325 330 333 321 319 317 314 309 307 303 305 300 299 300 303 301 302 302 305 305 309 309 312 317 324 324 323
318 318 318 317 318 319 320 325 325 325 326 327 325 324 318 305 307 320 327 332 324 319 314 314 312 310 305 305 304 303 302 302 303 302 302 301 302 305 306 307 311 318 324 323 323
317 317 317 318 317 319 321 324 325 325 326 326 325 322 310 301 317 322 323 323 320 318 316 314 312 314 308 306 304 305 302 303 303 303 300 300 300 302 307 311 314 319 322 324 325
316 315 316 317 315 317 318 324 325 324 325 326 324 316 306 306 321 323 322 320 322 320 315 318 318 314 311 304 309 306 301 302 301 298 298 300 298 299 304 311 313 317 321 323 326
314 314 314 316 314 318 319 323 323 324 325 325 323 312 302 311 324 320 319 319 322 320 318 319 319 311 309 310 307 304 304 297 299 298 297 300 299 302 304 309 310 315 319 321 323
312 313 312 313 312 314 321 322 322 324 325 324 313 310 301 318 314 317 318 314 316 317 318 318 315 308 308 304 301 301 296 299 302 300 297 298 297 299 302 307 308 313 316 320 322
311 312 311 310 313 319 321 322 322 323 322 318 314 303 301 305 313 314 317 318 313 311 306 306 307 304 305 303 293 293 297 298 300 300 297 299 298 302 300 304 306 310 315 317 320
310 310 310 310 312 316 320 317 309 308 312 304 304 305 303 311 314 311 312 313 311 305 296 299 299 299 302 305 302 300 300 299 298 303 298 298 301 304 307 300 303 306 311 314 317
309 311 311 310 313 316 318 308 309 312 301 305 308 301 307 311 303 307 310 303 303 296 297 296 295 302 306 303 301 301 299 300 301 296 296 298 298 302 303 301 302 304 307 312 315
308 310 310 310 312 312 313 312 313 311 298 297 303 301 305 308 303 303 306 303 299 295 296 295 296 301 301 296 295 296 298 296 295 293 294 294 297 298 300 301 301 301 304 308 313
308 309 309 309 304 309 309 313 313 313 291 289 295 297 301 305 299 307 308 303 298 295 296 295 296 297 297 294 296 289 294 293 292 291 291 297 292 299 300 301 297 300 301 302 307
307 308 309 309 304 308 313 314 312 308 280 288 293 304 303 301 299 298 301 302 297 295 296 293 293 295 294 295 299 292 297 294 292 290 289 290 288 296 296 296 300 298 301 302 303
306 307 309 306 305 304 314 313 307 290 280 283 292 291 294 295 297 296 295 299 301 296 297 295 298 297 298 297 294 295 293 292 290 289 285 291 289 293 295 295 298 301 301 301 302
306 307 306 308 300 308 310 306 287 284 287 283 284 291 292 291 293 296 293 291 289 286 288 291 292 294 296 293 295 294 291 283 282 282 284 285 287 293 297 298 300 301 303 303 303
306 306 306 305 309 307 306 294 283 284 285 290 289 289 288 291 292 294 291 290 293 293 288 285 282 289 294 295 292 292 293 284 279 280 285 282 283 291 296 301 299 299 301 301 301
305 303 303 305 308 306 288 284 285 287 289 288 288 285 285 288 291 290 291 291 293 293 290 287 285 291 294 295 295 290 288 290 284 279 281 286 289 293 296 294 295 296 295 298 300
300 300 299 306 307 299 286 287 285 292 293 292 285 288 283 286 288 291 289 295 292 293 295 291 283 288 290 296 295 294 296 286 287 280 278 284 284 288 292 294 295 295 296 298 298
299 293 297 306 301 287 284 287 287 293 295 292 288 287 288 287 290 290 290 292 294 291 293 292 288 284 290 290 289 290 289 290 291 287 282 281 287 293 293 295 296 297 296 298 298
295 286 296 302 286 285 286 288 292 293 295 290 294 291 289 289 288 288 288 291 295 293 290 292 287 283 286 289 292 293 291 291 286 283 285 283 286 293 294 294 294 296 296 297 297
288 288 297 299 283 284 288 289 292 291 291 291 290 292 293 289 285 290 290 295 296 294 292 290 286 281 282 287 288 289 290 293 291 288 285 284 288 296 292 293 295 295 298 298 298
289 284 288 291 287 286 285 286 287 294 290 291 291 293 291 289 290 288 288 290 295 295 295 294 287 286 281 285 288 285 288 291 291 285 286 286 290 293 295 296 295 295 296 298 299
289 284 286 283 285 287 288 287 287 286 291 292 289 291 291 287 288 287 288 288 293 294 293 293 286 287 287 288 289 288 287 288 288 290 286 289 289 292 295 296 299 298 297 297 298
286 285 287 286 287 288 286 285 287 288 289 289 289 291 292 288 290 286 289 290 289 291 292 291 287 287 283 286 288 286 288 289 289 290 290 290 290 296 297 298 298 298 297 297 298
292 292 289 285 285 285 286 286 289 291 291 293 292 291 289 292 295 294 294 293 292 290 290 289 287 285 283 285 286 283 286 288 289 291 291 287 292 296 295 295 296 297 297 296 297

GFSSW_sfc_thetae_117.txt.gz
Theta_e
317 318 319 319 320 320 320 320 321 321 328 329 330 328 328 328 327 321 314 323 322 329 329 324 317 316 314 312 313 313 306 303 305 306 307 311 310 313 315 315 317 321 319 327 331
317 317 318 319 319 319 320 320 320 322 327 328 329 328 328 327 321 316 325 327 329 331 323 320 317 314 309 307 309 312 306 306 310 309 307 310 310 310 311 313 314 318 325 330 329
317 317 318 319 319 319 319 320 319 318 327 327 328 327 326 324 315 315 328 328 329 329 324 325 325 315 311 306 305 307 307 310 305 306 306 308 310 312 310 310 312 314 322 325 327
317 318 317 319 319 318 319 319 321 319 325 327 327 326 325 319 301 318 329 328 330 325 322 322 321 311 310 308 308 302 304 305 304 303 304 304 310 308 310 310 314 316 325 325 324
316 317 318 318 319 318 318 319 320 317 325 326 326 325 319 309 312 319 327 326 322 320 317 318 316 311 308 311 308 306 304 301 305 305 304 304 304 308 309 313 312 318 324 325 325
316 317 317 318 319 318 318 319 320 318 325 326 325 324 312 302 320 320 320 320 319 317 317 319 318 316 312 307 308 308 306 306 304 303 302 302 304 304 308 313 312 318 322 325 326
316 317 316 317 318 318 318 318 319 319 324 326 325 318 309 309 319 321 319 319 319 317 314 320 318 314 312 304 309 307 301 304 304 300 299 302 300 300 308 311 311 316 320 323 326
315 315 315 316 317 318 318 318 318 322 324 325 324 315 305 317 321 317 321 318 321 322 319 321 319 312 310 311 308 304 302 296 303 303 300 300 299 306 308 309 310 313 317 321 324
312 313 313 314 316 315 314 318 317 322 324 325 316 309 301 316 315 318 319 317 318 319 319 318 314 309 307 304 302 303 296 298 301 302 299 300 300 305 304 307 308 311 314 319 321
311 310 313 314 314 315 313 317 317 323 322 321 316 302 303 305 315 315 319 319 315 314 310 310 307 303 304 303 295 296 299 303 302 303 302 301 302 306 305 303 306 309 313 315 319
312 312 312 312 313 313 315 313 305 308 312 305 303 303 305 312 316 312 315 315 312 308 301 301 300 297 303 307 308 305 303 302 305 303 302 302 303 306 309 305 305 306 308 313 315
310 311 311 311 312 313 311 306 308 313 302 308 307 307 308 314 305 310 317 307 305 298 298 297 295 305 308 308 306 305 302 302 305 300 301 304 304 307 309 309 308 307 306 308 313
309 310 312 311 311 309 305 307 318 317 301 302 305 304 306 310 304 306 313 309 304 294 297 297 302 305 306 305 302 303 302 302 300 301 299 299 299 302 307 309 310 309 308 307 309
309 309 310 310 304 305 301 316 317 317 293 292 298 301 305 307 301 312 313 307 303 296 297 298 301 302 302 301 304 295 298 300 294 294 294 299 293 303 307 307 307 309 309 308 307
308 309 310 310 304 300 305 317 316 310 280 292 294 303 305 302 303 303 310 304 299 299 298 293 297 300 297 298 304 295 297 295 293 291 290 293 291 298 303 302 305 309 308 310 307
307 309 310 307 306 306 310 314 308 290 281 284 293 293 296 299 301 301 297 302 304 299 298 297 304 304 302 301 298 298 295 293 291 289 284 292 291 295 299 300 303 306 309 309 308
307 308 307 308 300 308 307 306 288 283 286 281 285 292 294 293 295 297 293 293 291 288 289 293 295 298 302 293 295 294 293 285 283 283 285 289 293 295 302 304 303 304 307 309 310
306 307 307 306 308 307 296 293 282 285 286 289 289 291 287 294 293 295 293 291 297 298 292 288 284 293 301 298 291 292 295 289 282 284 288 286 286 293 299 299 302 304 303 306 308
306 304 303 305 306 301 287 282 286 287 289 288 289 286 285 292 293 293 293 293 296 299 292 289 288 295 297 299 298 291 289 296 286 282 283 289 292 297 299 298 298 300 301 301 302
301 299 299 306 305 292 285 285 287 295 293 291 286 289 284 286 290 291 291 297 296 300 301 296 284 293 293 298 298 296 297 287 290 282 281 288 288 289 295 297 299 298 300 302 303
299 292 297 303 298 286 283 286 287 296 296 293 291 288 288 288 292 290 291 297 299 296 298 298 290 287 291 290 290 290 291 292 293 290 285 284 289 296 294 295 297 299 299 300 301
297 286 297 302 287 285 286 286 291 294 297 297 296 294 291 293 291 292 291 297 301 297 292 294 290 284 287 291 296 296 293 293 288 285 289 287 288 296 296 297 297 297 299 300 300
290 289 297 298 282 284 286 287 291 294 295 295 294 296 297 294 290 295 295 299 300 296 294 293 288 282 283 289 291 291 293 294 294 290 287 285 289 299 298 297 298 297 300 300 301
291 285 287 291 289 286 285 286 287 296 296 297 295 296 294 292 294 292 293 295 298 297 297 295 289 287 283 286 289 286 290 292 292 286 288 288 292 296 296 297 298 298 299 300 300
292 287 287 283 285 288 286 287 287 288 292 296 292 292 292 288 289 288 289 290 296 297 295 294 287 289 290 291 290 288 288 290 290 291 288 291 291 295 299 299 300 301 301 300 299
288 286 288 286 287 287 285 285 286 288 290 291 291 293 293 289 291 288 290 291 290 294 292 294 287 289 285 289 290 288 290 291 291 292 292 292 291 298 299 300 299 300 300 300 300
293 293 291 286 286 286 286 286 288 292 292 295 295 294 293 294 295 296 296 294 294 292 291 291 289 287 284 287 287 284 287 289 291 293 293 289 294 297 296 297 298 299 300 299 299

GFSSW_sfc_thetae_120.txt.gz
Theta_e
318 318 319 320 321 320 320 322 322 323 321 322 327 329 329 329 328 322 315 324 326 330 330 324 317 314 312 310 310 313 303 300 303 304 305 308 306 308 310 311 311 315 318 324 330
317 318 318 319 321 320 320 321 322 322 322 321 322 328 328 327 320 317 326 333 331 330 324 318 312 312 308 307 309 304 303 304 309 307 303 307 307 307 305 309 311 315 325 328 330
317 317 317 318 321 320 321 320 321 322 321 321 323 328 327 325 315 315 331 332 330 329 323 324 320 312 307 307 305 306 305 310 305 304 303 306 305 309 305 305 310 312 322 324 326
316 317 317 317 320 320 321 321 320 322 320 320 322 327 326 321 301 320 329 330 330 322 318 320 319 311 309 305 308 305 307 303 306 304 303 302 307 304 306 302 308 317 324 323 323
316 316 317 318 319 319 320 320 319 320 321 322 320 326 321 311 311 318 328 327 322 320 315 316 317 312 307 308 308 306 304 301 304 305 302 304 301 304 304 307 309 322 322 322 322
315 316 316 317 318 319 320 320 320 320 321 319 320 322 316 304 321 320 325 321 317 317 315 318 318 315 311 309 307 310 307 301 303 301 301 301 301 301 303 306 308 320 320 322 323
314 315 316 317 318 319 320 320 320 320 320 319 318 322 313 309 322 319 322 318 318 316 313 319 321 316 313 306 309 310 302 304 303 302 299 300 298 297 303 306 307 316 318 322 323
314 315 316 317 318 318 318 319 319 319 320 320 317 320 307 321 322 318 318 316 317 318 318 320 319 314 311 310 306 302 301 295 302 299 298 298 298 304 305 304 305 309 313 319 322
314 314 316 316 316 317 318 318 318 318 319 318 311 312 304 320 311 316 317 313 318 318 318 318 315 309 308 302 299 299 293 294 298 302 297 295 297 304 301 302 303 305 309 315 318
313 314 314 314 315 316 317 317 317 317 316 316 312 304 305 306 312 314 318 319 314 313 311 311 308 303 303 300 293 294 297 296 297 298 298 295 297 298 299 300 301 302 306 311 314
313 311 312 313 314 314 314 310 305 303 306 302 306 305 304 311 316 313 318 315 313 309 301 305 300 297 300 302 305 302 301 299 302 302 298 296 298 301 304 300 299 300 301 307 313
313 312 311 311 311 313 311 303 303 307 296 303 308 308 309 312 305 310 317 308 306 299 300 297 295 303 306 304 304 303 300 301 301 301 300 300 299 303 305 305 303 301 301 302 307
311 312 312 312 311 307 305 305 312 311 299 303 306 305 305 310 303 305 312 307 303 299 299 297 301 306 305 303 302 302 300 301 299 296 296 294 295 298 303 306 307 308 305 303 303
310 310 312 311 303 304 301 309 311 311 289 293 299 303 306 308 301 310 312 307 301 297 299 299 304 304 303 302 303 297 300 300 295 294 291 296 288 297 302 302 305 307 306 304 302
310 310 311 309 305 301 305 309 312 306 278 295 298 308 308 302 303 304 312 303 299 297 298 295 297 301 301 302 305 297 298 293 292 290 290 288 286 292 296 300 302 305 306 306 304
309 309 310 307 306 306 308 304 308 288 279 286 294 296 299 300 302 305 304 303 304 299 297 296 304 304 302 299 299 296 293 292 290 290 284 290 288 289 294 297 299 303 306 307 306
308 308 307 308 299 303 305 293 287 281 286 281 288 296 296 294 297 300 295 294 292 288 289 294 298 297 300 294 297 295 293 284 283 282 283 287 287 292 298 300 297 299 300 303 306
307 307 306 306 307 303 293 285 279 285 285 289 293 294 291 294 293 295 293 291 296 295 290 286 284 295 300 296 291 292 293 284 279 279 281 282 283 289 297 297 295 296 299 296 297
306 303 302 304 305 298 286 279 281 285 288 288 292 289 286 292 290 293 293 292 294 297 290 288 287 294 299 298 297 291 290 291 282 276 279 283 287 293 296 295 295 294 294 293 294
300 298 298 301 301 294 284 282 284 291 292 293 288 291 285 287 289 290 292 295 295 298 298 293 284 292 296 298 296 295 296 287 286 276 275 282 282 285 289 291 294 293 295 296 296
298 291 299 301 299 287 281 284 286 291 295 293 291 290 290 286 291 289 291 295 298 297 298 295 288 286 292 291 289 289 289 290 291 287 279 278 283 289 292 291 291 293 294 294 294
295 285 299 301 284 285 283 288 290 290 296 296 295 294 290 290 290 291 290 294 300 299 293 294 289 282 286 290 294 293 292 292 286 283 285 283 283 291 292 292 292 292 293 293 295
289 288 298 298 280 281 287 287 289 289 292 295 293 295 295 292 289 293 294 299 300 298 293 292 286 280 283 287 288 289 292 294 291 286 282 280 284 292 293 292 292 292 293 294 295
290 283 286 290 288 285 284 285 286 291 294 297 295 296 294 293 294 292 292 297 300 299 297 295 288 284 281 284 287 285 290 292 291 282 283 284 287 291 291 291 292 292 292 293 294
291 285 286 282 283 285 285 286 286 286 291 297 294 294 293 290 291 291 294 295 297 297 294 292 283 287 288 289 289 288 289 290 289 290 286 289 289 292 292 293 293 294 293 294 294
287 286 287 285 286 285 285 284 285 285 289 291 292 295 296 291 291 290 293 293 292 293 291 291 282 286 282 287 288 286 289 290 290 291 291 290 289 293 296 294 291 292 293 293 294
293 293 290 287 285 284 284 284 286 290 291 294 294 295 294 294 296 297 298 296 296 292 291 289 286 283 279 283 283 278 286 288 290 291 291 287 292 293 292 292 292 293 294 294 294